[[{"header":{"parameterUnit":"m.s-1","parameterCategory":1,"la1":31.0,"la2":29.5877,"lo1":-88.7671,"lo2":-86.6584,"dx":0.0162,"dy":0.0185,"nx":115,"ny":88,"refTime":"2022-11-09T18:00:00:Z","depth":0,"parameterNumber":2,"parameterNumberName":"U-component_of_WINDS"},"data":[0.0,0.0,0.0,0.0,0.0,0.0,0.0,0.0,0.0,0.0,0.0,0.0,0.0,0.0,0.0,0.0,0.0,0.0,0.0,0.0,0.0,0.0,0.0,0.0,0.0,0.0,0.0,0.0,0.0,0.0,0.0,0.0,0.0,0.0,0.0,0.0,0.0,0.0,0.0,0.0,0.0,0.0,0.0,0.0,0.0,0.0,0.0,0.0,0.0,0.0,0.0,0.0,0.0,0.0,0.0,0.0,0.0,0.0,0.0,0.0,0.0,0.0,0.0,0.0,0.0,0.0,0.0,0.0,0.0,0.0,0.0,0.0,0.0,0.0,0.0,0.0,0.0,0.0,0.0,0.0,0.0,0.0,0.0,0.0,0.0,0.0,0.0,0.0,0.0,0.0,0.0,0.0,0.0,0.0,0.0,0.0,0.0,0.0,0.0,0.0,0.0,0.0,0.0,0.0,0.0,0.0,0.0,0.0,0.0,0.0,0.0,0.0,0.0,0.0,0.0,0.0,0.0,0.0,0.0,0.0,0.0,0.0,0.0,0.0,0.0,0.0,0.0,0.0,0.0,0.0,0.0,0.0,0.0,0.0,0.0,0.0,0.0,0.0,0.0,0.0,0.0,0.0,0.0,0.0,0.0,0.0,0.0,0.0,0.0,0.0,0.0,0.0,0.0,0.0,0.0,0.0,0.0,0.0,0.0,0.0,0.0,0.0,0.0,0.0,0.0,0.0,0.0,0.0,0.0,0.0,0.0,0.0,0.0,0.0,0.0,0.0,0.0,0.0,0.0,0.0,0.0,0.0,0.0,0.0,0.0,0.0,0.0,0.0,0.0,0.0,0.0,0.0,0.0,0.0,0.0,0.0,0.0,0.0,0.0,0.0,0.0,0.0,0.0,0.0,0.0,0.0,0.0,0.0,0.0,0.0,0.0,0.0,0.0,0.0,0.0,0.0,0.0,0.0,0.0,0.0,0.0,0.0,0.0,0.0,0.0,0.0,0.0,0.0,0.0,0.0,0.0,0.0,0.0,0.0,0.0,0.0,0.0,0.0,0.0,0.0,0.0,0.0,0.0,0.0,0.0,0.0,0.0,0.0,0.0,0.0,0.0,0.0,0.0,0.0,0.0,0.0,0.0,0.0,0.0,0.0,0.0,0.0,0.0,0.0,0.0,0.0,0.0,0.0,0.0,0.0,0.0,0.0,0.0,0.0,0.0,0.0,0.0,0.0,0.0,0.0,0.0,0.0,0.0,0.0,0.0,0.0,0.0,0.0,0.0,0.0,0.0,0.0,0.0,0.0,0.0,0.0,0.0,0.0,0.0,0.0,0.0,0.0,0.0,0.0,0.0,0.0,0.0,0.0,0.0,0.0,0.0,0.0,0.0,0.0,0.0,0.0,0.0,0.0,0.0,0.0,0.0,0.0,0.0,0.0,0.0,0.0,0.0,0.0,0.0,0.0,0.0,0.0,0.0,0.0,0.0,0.0,0.0,0.0,0.0,0.0,0.0,0.0,0.0,0.0,0.0,0.0,0.0,0.0,0.0,0.0,0.0,0.0,0.0,0.0,0.0,0.0,0.0,0.0,0.0,0.0,0.0,0.0,0.0,0.0,0.0,0.0,0.0,0.0,0.0,0.0,0.0,0.0,0.0,0.0,0.0,0.0,0.0,0.0,0.0,0.0,0.0,0.0,0.0,0.0,0.0,0.0,0.0,0.0,0.0,0.0,0.0,0.0,0.0,0.0,0.0,0.0,0.0,0.0,0.0,0.0,0.0,0.0,0.0,0.0,0.0,0.0,0.0,0.0,0.0,0.0,0.0,0.0,0.0,0.0,0.0,0.0,0.0,0.0,0.0,0.0,0.0,0.0,0.0,0.0,0.0,0.0,0.0,0.0,0.0,0.0,0.0,0.0,0.0,0.0,0.0,0.0,0.0,0.0,0.0,0.0,0.0,0.0,0.0,0.0,0.0,0.0,0.0,0.0,0.0,0.0,0.0,0.0,0.0,0.0,0.0,0.0,0.0,0.0,0.0,0.0,0.0,0.0,0.0,0.0,0.0,0.0,0.0,0.0,0.0,0.0,0.0,0.0,0.0,0.0,0.0,0.0,0.0,0.0,0.0,0.0,0.0,0.0,0.0,0.0,0.0,0.0,0.0,0.0,0.0,0.0,0.0,0.0,0.0,0.0,0.0,0.0,0.0,0.0,0.0,0.0,0.0,0.0,0.0,0.0,0.0,0.0,0.0,0.0,0.0,0.0,0.0,0.0,0.0,0.0,0.0,0.0,0.0,0.0,0.0,0.0,0.0,0.0,0.0,0.0,0.0,0.0,0.0,0.0,0.0,0.0,0.0,0.0,0.0,0.0,0.0,0.0,0.0,0.0,0.0,0.0,0.0,0.0,0.0,0.0,0.0,0.0,0.0,0.0,0.0,0.0,0.0,0.0,0.0,0.0,0.0,0.0,0.0,0.0,0.0,0.0,0.0,0.0,0.0,0.0,0.0,0.0,0.0,0.0,0.0,0.0,0.0,0.0,0.0,0.0,0.0,0.0,0.0,0.0,0.0,0.0,0.0,0.0,0.0,0.0,0.0,0.0,0.0,0.0,0.0,0.0,0.0,0.0,0.0,0.0,0.0,0.0,0.0,0.0,0.0,0.0,0.0,0.0,0.0,0.0,0.0,0.0,0.0,0.0,0.0,0.0,0.0,0.0,0.0,0.0,0.0,0.0,0.0,0.0,0.0,0.0,0.0,0.0,0.0,0.0,0.0,0.0,0.0,0.0,0.0,0.0,0.0,0.0,0.0,0.0,0.0,0.0,0.0,0.0,0.0,0.0,0.0,0.0,0.0,0.0,0.0,0.0,0.0,0.0,0.0,0.0,0.0,0.0,0.0,0.0,0.0,0.0,0.0,0.0,0.0,0.0,0.0,0.0,0.0,0.0,0.0,0.0,0.0,0.0,0.0,0.0,0.0,0.0,0.0,0.0,0.0,0.0,0.0,0.0,0.0,0.0,0.0,0.0,0.0,0.0,0.0,0.0,0.0,0.0,0.0,0.0,0.0,0.0,0.0,0.0,0.0,0.0,0.0,0.0,0.0,0.0,0.0,0.0,0.0,0.0,0.0,0.0,0.0,0.0,0.0,0.0,0.0,0.0,0.0,0.0,0.0,0.0,0.0,0.0,0.0,0.0,0.0,0.0,0.0,0.0,0.0,0.0,0.0,0.0,0.0,0.0,0.0,0.0,0.0,0.0,0.0,0.0,0.0,0.0,0.0,0.0,0.0,0.0,0.0,0.0,0.0,0.0,0.0,0.0,0.0,0.0,0.0,0.0,0.0,0.0,0.0,0.0,0.0,0.0,0.0,0.0,0.0,0.0,0.0,0.0,0.0,0.0,0.0,0.0,0.0,0.0,0.0,0.0,0.0,0.0,0.0,0.0,0.0,0.0,0.0,0.0,0.0,0.0,0.0,0.0,0.0,0.0,0.0,0.0,0.0,0.0,0.0,0.0,0.0,0.0,0.0,0.0,0.0,0.0,0.0,0.0,0.0,0.0,0.0,0.0,0.0,0.0,0.0,0.0,0.0,0.0,0.0,0.0,0.0,0.0,0.0,0.0,0.0,0.0,0.0,0.0,0.0,0.0,0.0,0.0,0.0,0.0,0.0,0.0,0.0,0.0,0.0,0.0,0.0,0.0,0.0,0.0,0.0,0.0,0.0,0.0,0.0,0.0,0.0,0.0,0.0,0.0,0.0,0.0,0.0,0.0,0.0,0.0,0.0,0.0,0.0,0.0,0.0,0.0,0.0,0.0,0.0,0.0,0.0,0.0,0.0,0.0,0.0,0.0,0.0,0.0,0.0,0.0,0.0,0.0,0.0,0.0,0.0,0.0,0.0,0.0,0.0,0.0,0.0,0.0,0.0,0.0,0.0,0.0,0.0,0.0,0.0,0.0,0.0,0.0,0.0,0.0,0.0,0.0,0.0,0.0,0.0,0.0,0.0,0.0,0.0,0.0,0.0,0.0,0.0,0.0,0.0,0.0,0.0,0.0,0.0,0.0,0.0,0.0,0.0,0.0,0.0,0.0,0.0,0.0,0.0,0.0,0.0,0.0,0.0,0.0,0.0,0.0,0.0,0.0,0.0,0.0,0.0,0.0,0.0,0.0,0.0,0.0,0.0,0.0,0.0,0.0,0.0,0.0,0.0,0.0,0.0,0.0,0.0,0.0,0.0,0.0,0.0,0.0,0.0,0.0,0.0,0.0,4.2422,0.0,0.0,0.0,4.457,0.0,0.0,0.0,0.0,0.0,0.0,0.0,0.0,0.0,0.0,0.0,0.0,0.0,0.0,0.0,0.0,0.0,0.0,0.0,0.0,0.0,0.0,0.0,0.0,0.0,0.0,0.0,0.0,0.0,0.0,0.0,0.0,0.0,0.0,0.0,0.0,0.0,0.0,0.0,0.0,0.0,0.0,0.0,0.0,0.0,0.0,0.0,0.0,0.0,0.0,0.0,0.0,0.0,0.0,0.0,0.0,0.0,0.0,0.0,0.0,0.0,0.0,0.0,0.0,0.0,0.0,0.0,0.0,0.0,0.0,0.0,0.0,0.0,0.0,0.0,0.0,0.0,0.0,0.0,0.0,0.0,0.0,0.0,0.0,0.0,0.0,0.0,0.0,0.0,0.0,0.0,0.0,0.0,0.0,0.0,0.0,0.0,0.0,0.0,0.0,0.0,0.0,0.0,0.0,0.0,0.0,0.0,0.0,0.0,0.0,4.3281,4.3672,4.4141,4.4609,4.4961,0.0,0.0,0.0,0.0,0.0,0.0,0.0,0.0,0.0,0.0,0.0,0.0,0.0,0.0,0.0,0.0,0.0,0.0,0.0,0.0,0.0,0.0,0.0,0.0,0.0,0.0,0.0,0.0,0.0,0.0,0.0,0.0,0.0,0.0,0.0,0.0,0.0,0.0,0.0,0.0,0.0,0.0,0.0,0.0,0.0,0.0,0.0,0.0,0.0,0.0,0.0,0.0,0.0,0.0,0.0,0.0,0.0,0.0,0.0,0.0,0.0,0.0,0.0,0.0,0.0,0.0,0.0,0.0,0.0,0.0,0.0,0.0,0.0,0.0,0.0,0.0,0.0,0.0,0.0,0.0,0.0,0.0,0.0,0.0,0.0,0.0,0.0,0.0,0.0,0.0,0.0,0.0,0.0,0.0,0.0,0.0,0.0,0.0,0.0,0.0,0.0,0.0,0.0,0.0,0.0,0.0,0.0,0.0,0.0,0.0,0.0,0.0,4.4961,4.5195,4.5,0.0,0.0,0.0,0.0,0.0,0.0,0.0,0.0,0.0,0.0,0.0,0.0,0.0,0.0,0.0,0.0,0.0,0.0,0.0,0.0,0.0,0.0,0.0,0.0,0.0,0.0,0.0,0.0,0.0,0.0,0.0,0.0,0.0,0.0,0.0,0.0,0.0,0.0,0.0,0.0,0.0,0.0,0.0,0.0,0.0,0.0,0.0,0.0,0.0,0.0,0.0,0.0,0.0,0.0,0.0,0.0,0.0,0.0,0.0,0.0,0.0,0.0,0.0,0.0,0.0,0.0,0.0,0.0,0.0,0.0,0.0,0.0,0.0,0.0,0.0,0.0,0.0,0.0,0.0,0.0,0.0,0.0,0.0,0.0,0.0,0.0,0.0,0.0,0.0,0.0,0.0,0.0,0.0,0.0,0.0,0.0,0.0,0.0,0.0,0.0,0.0,0.0,0.0,0.0,0.0,0.0,0.0,0.0,0.0,0.0,4.5273,4.6055,4.6133,0.0,4.5,0.0,0.0,0.0,0.0,0.0,0.0,0.0,0.0,0.0,0.0,0.0,0.0,0.0,0.0,0.0,0.0,0.0,0.0,0.0,0.0,0.0,0.0,0.0,0.0,0.0,0.0,0.0,0.0,0.0,0.0,0.0,0.0,0.0,0.0,0.0,0.0,0.0,0.0,0.0,0.0,0.0,0.0,0.0,0.0,0.0,0.0,0.0,0.0,0.0,0.0,0.0,0.0,0.0,0.0,0.0,0.0,0.0,0.0,0.0,0.0,0.0,0.0,0.0,0.0,0.0,0.0,0.0,0.0,0.0,0.0,0.0,0.0,0.0,0.0,0.0,0.0,0.0,0.0,0.0,0.0,0.0,0.0,0.0,0.0,0.0,0.0,0.0,0.0,0.0,0.0,0.0,0.0,0.0,0.0,0.0,0.0,0.0,0.0,0.0,0.0,0.0,0.0,0.0,0.0,0.0,0.0,0.0,0.0,0.0,0.0,4.6719,4.707,4.707,4.6445,0.0,0.0,0.0,0.0,0.0,0.0,0.0,0.0,0.0,0.0,0.0,0.0,0.0,0.0,0.0,0.0,0.0,0.0,0.0,0.0,0.0,0.0,0.0,0.0,0.0,0.0,0.0,0.0,0.0,0.0,0.0,0.0,0.0,0.0,0.0,0.0,0.0,0.0,0.0,0.0,0.0,0.0,0.0,0.0,0.0,0.0,0.0,0.0,0.0,0.0,0.0,0.0,0.0,0.0,0.0,0.0,0.0,0.0,0.0,0.0,0.0,0.0,0.0,0.0,0.0,0.0,0.0,0.0,0.0,0.0,0.0,0.0,0.0,0.0,0.0,0.0,0.0,0.0,0.0,0.0,0.0,0.0,0.0,0.0,0.0,0.0,0.0,0.0,0.0,0.0,0.0,0.0,0.0,0.0,0.0,0.0,0.0,0.0,0.0,0.0,0.0,0.0,0.0,0.0,0.0,0.0,0.0,0.0,0.0,0.0,4.6953,4.7695,4.7969,4.7969,4.7266,4.5742,0.0,0.0,0.0,0.0,0.0,0.0,0.0,0.0,0.0,0.0,0.0,0.0,0.0,0.0,0.0,0.0,0.0,0.0,0.0,0.0,0.0,0.0,0.0,0.0,0.0,0.0,0.0,0.0,0.0,0.0,0.0,0.0,0.0,0.0,0.0,0.0,0.0,0.0,0.0,0.0,0.0,0.0,0.0,0.0,0.0,0.0,0.0,0.0,0.0,0.0,0.0,0.0,0.0,0.0,0.0,0.0,0.0,0.0,0.0,0.0,0.0,0.0,0.0,0.0,0.0,0.0,0.0,0.0,0.0,0.0,0.0,0.0,0.0,0.0,0.0,0.0,0.0,0.0,0.0,0.0,0.0,0.0,0.0,0.0,0.0,0.0,0.0,0.0,0.0,0.0,0.0,0.0,0.0,0.0,0.0,0.0,0.0,0.0,0.0,0.0,0.0,0.0,0.0,0.0,0.0,0.0,0.0,0.0,4.7422,4.7578,4.8008,4.8828,4.8828,4.8437,0.0,0.0,0.0,0.0,0.0,0.0,0.0,0.0,0.0,0.0,0.0,0.0,0.0,0.0,0.0,0.0,0.0,0.0,0.0,0.0,0.0,0.0,0.0,0.0,0.0,0.0,0.0,0.0,0.0,0.0,0.0,0.0,0.0,0.0,0.0,0.0,0.0,0.0,0.0,0.0,0.0,0.0,0.0,0.0,0.0,0.0,0.0,0.0,0.0,0.0,0.0,0.0,0.0,0.0,0.0,0.0,0.0,0.0,0.0,0.0,0.0,0.0,0.0,0.0,0.0,0.0,0.0,0.0,0.0,0.0,0.0,0.0,0.0,0.0,0.0,0.0,0.0,0.0,0.0,0.0,0.0,0.0,0.0,0.0,0.0,0.0,0.0,0.0,0.0,0.0,0.0,0.0,0.0,0.0,0.0,0.0,0.0,0.0,0.0,0.0,0.0,0.0,0.0,0.0,0.0,0.0,0.0,0.0,0.0,4.8395,4.8984,4.9414,4.9726,4.9726,4.9336,0.0,0.0,0.0,0.0,0.0,0.0,0.0,0.0,0.0,0.0,0.0,0.0,0.0,0.0,0.0,0.0,0.0,0.0,0.0,0.0,0.0,0.0,0.0,0.0,0.0,0.0,0.0,0.0,0.0,0.0,0.0,0.0,0.0,0.0,0.0,0.0,0.0,0.0,0.0,0.0,0.0,0.0,0.0,0.0,0.0,0.0,0.0,0.0,0.0,0.0,0.0,0.0,0.0,0.0,0.0,0.0,0.0,0.0,0.0,0.0,0.0,0.0,0.0,0.0,0.0,0.0,0.0,0.0,0.0,0.0,0.0,0.0,0.0,0.0,0.0,0.0,0.0,0.0,0.0,0.0,0.0,0.0,0.0,0.0,0.0,0.0,0.0,0.0,0.0,0.0,0.0,0.0,0.0,0.0,0.0,0.0,0.0,0.0,0.0,0.0,0.0,0.0,0.0,0.0,0.0,0.0,0.0,0.0,0.0,4.9672,5.0852,5.1442,5.1444,5.1171,5.0625,0.0,0.0,0.0,0.0,0.0,0.0,0.0,0.0,0.0,0.0,0.0,0.0,0.0,0.0,0.0,0.0,0.0,0.0,0.0,0.0,0.0,0.0,0.0,0.0,0.0,0.0,0.0,0.0,0.0,0.0,0.0,0.0,0.0,0.0,0.0,0.0,0.0,0.0,0.0,0.0,0.0,0.0,0.0,0.0,0.0,0.0,0.0,0.0,0.0,0.0,0.0,0.0,0.0,0.0,0.0,0.0,0.0,0.0,0.0,0.0,0.0,0.0,0.0,0.0,0.0,0.0,0.0,0.0,0.0,0.0,0.0,0.0,0.0,0.0,0.0,0.0,0.0,0.0,0.0,0.0,0.0,0.0,0.0,0.0,0.0,0.0,0.0,0.0,0.0,0.0,0.0,0.0,0.0,0.0,0.0,0.0,0.0,0.0,0.0,0.0,0.0,0.0,0.0,0.0,0.0,0.0,0.0,0.0,4.9781,5.1447,5.3129,5.3999,5.4013,5.3194,5.234,0.0,0.0,0.0,0.0,0.0,0.0,0.0,0.0,0.0,0.0,0.0,0.0,0.0,0.0,0.0,0.0,0.0,0.0,0.0,0.0,0.0,0.0,0.0,0.0,0.0,0.0,0.0,0.0,0.0,0.0,0.0,0.0,0.0,0.0,0.0,0.0,0.0,0.0,0.0,0.0,0.0,0.0,0.0,0.0,0.0,0.0,0.0,0.0,0.0,0.0,0.0,0.0,0.0,0.0,0.0,0.0,0.0,0.0,0.0,0.0,0.0,0.0,0.0,0.0,0.0,0.0,0.0,0.0,0.0,0.0,0.0,0.0,0.0,0.0,0.0,0.0,0.0,0.0,0.0,0.0,0.0,0.0,0.0,0.0,0.0,0.0,0.0,0.0,0.0,0.0,0.0,0.0,0.0,0.0,0.0,0.0,0.0,0.0,0.0,0.0,0.0,0.0,0.0,0.0,0.0,0.0,0.0,0.0,0.0,5.4852,5.5964,5.6572,5.652,5.5751,5.4627,0.0,0.0,0.0,0.0,0.0,0.0,0.0,0.0,0.0,0.0,0.0,0.0,0.0,0.0,0.0,0.0,0.0,0.0,0.0,0.0,0.0,0.0,0.0,0.0,0.0,0.0,0.0,0.0,0.0,0.0,0.0,0.0,0.0,0.0,0.0,0.0,0.0,0.0,0.0,0.0,0.0,0.0,0.0,0.0,0.0,0.0,0.0,0.0,0.0,0.0,0.0,0.0,0.0,0.0,0.0,0.0,0.0,0.0,0.0,0.0,0.0,0.0,0.0,0.0,0.0,0.0,0.0,0.0,0.0,0.0,0.0,0.0,0.0,0.0,0.0,0.0,0.0,0.0,0.0,0.0,0.0,0.0,0.0,0.0,0.0,0.0,0.0,0.0,0.0,0.0,0.0,0.0,0.0,0.0,0.0,0.0,0.0,0.0,0.0,0.0,0.0,0.0,0.0,0.0,0.0,0.0,0.0,0.0,0.0,6.0097,6.0004,5.9977,6.0025,5.8912,5.7381,5.5428,0.0,0.0,0.0,0.0,0.0,0.0,0.0,0.0,0.0,0.0,0.0,0.0,0.0,0.0,0.0,0.0,0.0,0.0,0.0,0.0,0.0,0.0,0.0,0.0,0.0,0.0,0.0,0.0,0.0,0.0,0.0,0.0,0.0,0.0,0.0,0.0,0.0,0.0,0.0,0.0,0.0,0.0,0.0,0.0,0.0,0.0,0.0,0.0,0.0,0.0,0.0,0.0,0.0,0.0,0.0,0.0,0.0,0.0,0.0,0.0,0.0,0.0,0.0,0.0,0.0,0.0,0.0,0.0,0.0,0.0,0.0,0.0,0.0,0.0,0.0,0.0,0.0,0.0,0.0,0.0,0.0,0.0,0.0,0.0,0.0,0.0,0.0,0.0,0.0,0.0,0.0,0.0,0.0,0.0,0.0,0.0,0.0,0.0,0.0,0.0,0.0,0.0,0.0,0.0,0.0,0.0,0.0,0.0,6.6607,6.5091,6.4257,6.4221,6.2516,6.0417,0.0,0.0,0.0,0.0,0.0,0.0,0.0,0.0,0.0,0.0,0.0,0.0,0.0,0.0,0.0,0.0,0.0,0.0,0.0,0.0,0.0,0.0,0.0,0.0,0.0,0.0,0.0,0.0,0.0,0.0,0.0,0.0,0.0,0.0,0.0,0.0,0.0,0.0,0.0,0.0,0.0,0.0,0.0,0.0,0.0,0.0,0.0,0.0,0.0,0.0,0.0,0.0,0.0,0.0,0.0,0.0,0.0,0.0,0.0,0.0,0.0,0.0,0.0,0.0,0.0,0.0,0.0,0.0,0.0,0.0,0.0,0.0,0.0,0.0,0.0,0.0,0.0,0.0,0.0,0.0,0.0,0.0,0.0,0.0,0.0,0.0,0.0,0.0,0.0,0.0,0.0,0.0,0.0,0.0,0.0,0.0,0.0,0.0,0.0,0.0,0.0,0.0,0.0,0.0,0.0,0.0,0.0,0.0,0.0,7.0504,7.0311,6.9536,6.84,6.6181,6.3548,0.0,0.0,0.0,0.0,0.0,0.0,0.0,0.0,0.0,0.0,0.0,0.0,0.0,0.0,0.0,0.0,0.0,0.0,0.0,0.0,0.0,0.0,0.0,0.0,0.0,0.0,0.0,0.0,0.0,0.0,0.0,0.0,0.0,0.0,0.0,0.0,0.0,0.0,0.0,0.0,0.0,0.0,0.0,0.0,0.0,0.0,0.0,0.0,0.0,0.0,0.0,0.0,0.0,0.0,0.0,0.0,0.0,0.0,0.0,0.0,0.0,0.0,0.0,0.0,0.0,0.0,0.0,0.0,0.0,0.0,0.0,0.0,0.0,0.0,0.0,0.0,0.0,0.0,0.0,0.0,0.0,0.0,0.0,0.0,0.0,0.0,0.0,0.0,0.0,0.0,0.0,0.0,0.0,0.0,0.0,0.0,0.0,0.0,0.0,0.0,0.0,0.0,0.0,0.0,0.0,0.0,0.0,0.0,6.9344,7.3259,7.4046,7.3831,7.2544,6.9124,6.5873,0.0,0.0,0.0,0.0,0.0,0.0,0.0,0.0,0.0,0.0,0.0,0.0,0.0,0.0,0.0,0.0,0.0,0.0,0.0,0.0,0.0,0.0,0.0,0.0,0.0,0.0,0.0,0.0,0.0,0.0,0.0,0.0,0.0,0.0,0.0,0.0,0.0,0.0,0.0,0.0,0.0,0.0,0.0,0.0,0.0,0.0,0.0,0.0,0.0,0.0,0.0,0.0,0.0,0.0,0.0,0.0,0.0,0.0,0.0,0.0,0.0,0.0,0.0,0.0,0.0,0.0,0.0,0.0,0.0,0.0,0.0,0.0,0.0,0.0,0.0,0.0,0.0,0.0,0.0,0.0,0.0,0.0,0.0,0.0,0.0,0.0,0.0,0.0,0.0,0.0,0.0,0.0,0.0,0.0,0.0,0.0,0.0,0.0,0.0,0.0,0.0,0.0,0.0,0.0,0.0,0.0,0.0,0.0,7.2521,7.514,7.6665,7.7059,7.6176,7.153,6.7753,0.0,0.0,0.0,0.0,0.0,0.0,0.0,0.0,0.0,0.0,0.0,0.0,0.0,0.0,0.0,0.0,0.0,0.0,0.0,0.0,0.0,0.0,0.0,0.0,0.0,0.0,0.0,0.0,0.0,0.0,0.0,0.0,0.0,0.0,0.0,0.0,0.0,0.0,0.0,0.0,0.0,0.0,0.0,0.0,0.0,0.0,0.0,0.0,0.0,0.0,0.0,0.0,0.0,0.0,0.0,0.0,0.0,0.0,0.0,0.0,0.0,0.0,0.0,0.0,0.0,0.0,0.0,0.0,0.0,0.0,0.0,0.0,0.0,0.0,0.0,0.0,0.0,0.0,0.0,0.0,0.0,0.0,0.0,0.0,0.0,0.0,0.0,0.0,0.0,0.0,0.0,0.0,0.0,0.0,0.0,0.0,0.0,0.0,0.0,0.0,0.0,0.0,0.0,0.0,0.0,0.0,0.0,0.0,7.4504,7.762,7.8065,7.8136,7.7944,7.3757,6.9717,0.0,0.0,0.0,0.0,0.0,0.0,0.0,0.0,0.0,0.0,0.0,0.0,0.0,0.0,0.0,0.0,0.0,0.0,0.0,0.0,0.0,0.0,0.0,0.0,0.0,0.0,0.0,0.0,0.0,0.0,0.0,0.0,0.0,0.0,0.0,0.0,0.0,0.0,0.0,0.0,0.0,0.0,0.0,0.0,0.0,0.0,0.0,0.0,5.539,0.0,0.0,0.0,0.0,0.0,0.0,0.0,0.0,0.0,0.0,0.0,0.0,0.0,0.0,0.0,0.0,0.0,0.0,0.0,0.0,0.0,0.0,0.0,0.0,0.0,0.0,0.0,0.0,0.0,0.0,0.0,0.0,0.0,0.0,0.0,0.0,0.0,0.0,0.0,0.0,0.0,0.0,0.0,0.0,0.0,0.0,0.0,0.0,0.0,0.0,0.0,0.0,0.0,0.0,0.0,0.0,0.0,0.0,0.0,7.6707,7.9594,7.975,7.9325,7.8446,7.5587,7.205,0.0,0.0,0.0,0.0,0.0,0.0,0.0,0.0,0.0,0.0,0.0,0.0,0.0,0.0,0.0,0.0,0.0,0.0,0.0,0.0,0.0,0.0,0.0,0.0,0.0,0.0,0.0,0.0,0.0,0.0,0.0,0.0,0.0,0.0,0.0,0.0,0.0,0.0,0.0,0.0,0.0,0.0,0.0,0.0,0.0,0.0,0.0,0.0,0.0,0.0,0.0,0.0,0.0,0.0,0.0,0.0,0.0,0.0,0.0,0.0,0.0,0.0,0.0,0.0,0.0,0.0,0.0,0.0,0.0,0.0,0.0,0.0,0.0,0.0,0.0,0.0,0.0,0.0,0.0,0.0,0.0,0.0,0.0,0.0,0.0,0.0,0.0,0.0,0.0,0.0,0.0,0.0,0.0,0.0,0.0,0.0,0.0,0.0,0.0,0.0,0.0,0.0,0.0,0.0,0.0,0.0,0.0,7.5439,7.8788,8.1323,8.1475,8.071,7.9134,7.7478,7.4611,7.0426,0.0,0.0,0.0,0.0,0.0,0.0,0.0,0.0,0.0,0.0,0.0,0.0,0.0,0.0,0.0,0.0,0.0,0.0,0.0,0.0,0.0,0.0,0.0,0.0,0.0,0.0,0.0,0.0,0.0,0.0,0.0,0.0,0.0,0.0,0.0,0.0,0.0,0.0,5.1211,5.4062,0.0,0.0,0.0,0.0,0.0,0.0,0.0,0.0,6.1094,0.0,0.0,0.0,0.0,0.0,0.0,0.0,0.0,0.0,0.0,0.0,0.0,0.0,0.0,0.0,0.0,0.0,0.0,0.0,0.0,0.0,0.0,0.0,0.0,0.0,0.0,0.0,0.0,0.0,0.0,0.0,0.0,0.0,0.0,0.0,0.0,0.0,0.0,0.0,0.0,0.0,0.0,0.0,0.0,0.0,0.0,0.0,0.0,0.0,0.0,0.0,0.0,0.0,0.0,0.0,0.0,7.4013,7.6865,7.9906,8.3101,8.3176,8.2712,8.1674,8.0052,7.7207,7.2984,0.0,0.0,0.0,0.0,0.0,0.0,0.0,0.0,0.0,0.0,0.0,0.0,0.0,0.0,0.0,0.0,0.0,0.0,0.0,0.0,0.0,0.0,0.0,0.0,0.0,0.0,0.0,0.0,0.0,0.0,0.0,0.0,0.0,0.0,0.0,0.0,0.0,0.0,0.0,5.582,5.8359,0.0,0.0,0.0,0.0,0.0,0.0,0.0,0.0,6.3242,0.0,0.0,0.0,0.0,0.0,0.0,0.0,0.0,0.0,0.0,0.0,0.0,0.0,0.0,0.0,0.0,0.0,0.0,0.0,0.0,0.0,0.0,0.0,0.0,0.0,0.0,0.0,0.0,0.0,0.0,0.0,0.0,0.0,0.0,0.0,0.0,0.0,0.0,0.0,0.0,0.0,0.0,0.0,0.0,0.0,0.0,0.0,0.0,0.0,0.0,0.0,0.0,0.0,0.0,0.0,7.528,7.9173,8.2368,8.4788,8.4478,8.4053,8.363,8.1125,7.8011,0.0,0.0,0.0,0.0,0.0,0.0,0.0,0.0,0.0,0.0,0.0,0.0,0.0,0.0,0.0,0.0,0.0,0.0,0.0,0.0,0.0,0.0,0.0,0.0,0.0,0.0,0.0,0.0,0.0,0.0,0.0,0.0,0.0,0.0,0.0,0.0,0.0,0.0,0.0,0.0,5.9336,6.1992,6.4101,0.0,0.0,0.0,0.0,0.0,0.0,6.6875,6.5859,0.0,0.0,0.0,0.0,0.0,0.0,0.0,0.0,0.0,0.0,0.0,0.0,0.0,0.0,0.0,0.0,0.0,0.0,0.0,0.0,0.0,0.0,0.0,0.0,0.0,0.0,0.0,0.0,0.0,0.0,0.0,0.0,0.0,0.0,0.0,0.0,0.0,0.0,0.0,0.0,0.0,0.0,0.0,0.0,0.0,0.0,0.0,0.0,0.0,0.0,0.0,0.0,0.0,0.0,0.0,7.6515,8.0868,8.4172,8.6205,8.5397,8.5051,8.5322,8.2091,7.8706,0.0,0.0,0.0,0.0,0.0,0.0,0.0,0.0,0.0,0.0,0.0,0.0,0.0,0.0,0.0,0.0,0.0,0.0,0.0,0.0,0.0,0.0,0.0,0.0,0.0,0.0,0.0,0.0,0.0,0.0,0.0,0.0,0.0,0.0,0.0,0.0,0.0,0.0,0.0,0.0,0.0,6.5,6.6875,6.789,0.0,0.0,0.0,0.0,6.9883,6.9375,0.0,0.0,0.0,0.0,0.0,0.0,0.0,0.0,0.0,0.0,0.0,0.0,0.0,0.0,0.0,0.0,0.0,0.0,0.0,0.0,0.0,0.0,0.0,0.0,0.0,0.0,0.0,0.0,0.0,0.0,0.0,0.0,0.0,0.0,0.0,0.0,0.0,0.0,0.0,0.0,0.0,0.0,0.0,0.0,0.0,0.0,0.0,0.0,0.0,0.0,0.0,0.0,0.0,0.0,0.0,0.0,7.8059,8.0287,8.3287,8.6942,8.5705,8.5591,8.7019,8.3785,8.0441,0.0,0.0,0.0,0.0,0.0,0.0,0.0,0.0,0.0,0.0,0.0,0.0,0.0,0.0,0.0,0.0,0.0,0.0,0.0,0.0,0.0,0.0,0.0,0.0,0.0,0.0,0.0,0.0,0.0,0.0,0.0,0.0,0.0,0.0,0.0,0.0,0.0,0.0,0.0,0.0,0.0,6.5195,6.7695,6.8789,6.9336,0.0,0.0,7.082,7.1562,7.1601,0.0,0.0,0.0,0.0,0.0,0.0,0.0,0.0,0.0,0.0,0.0,0.0,0.0,0.0,0.0,0.0,0.0,0.0,0.0,0.0,0.0,0.0,0.0,0.0,0.0,0.0,0.0,0.0,0.0,0.0,0.0,0.0,0.0,0.0,0.0,0.0,0.0,0.0,0.0,0.0,0.0,0.0,0.0,0.0,0.0,0.0,0.0,0.0,0.0,0.0,0.0,0.0,0.0,0.0,0.0,7.4628,7.9171,8.2324,8.5284,8.7983,8.7406,8.7596,8.8782,8.5057,8.1902,0.0,0.0,0.0,0.0,0.0,0.0,0.0,0.0,0.0,0.0,0.0,0.0,0.0,0.0,0.0,0.0,0.0,0.0,0.0,0.0,0.0,0.0,0.0,0.0,0.0,0.0,0.0,0.0,0.0,0.0,0.0,0.0,0.0,0.0,0.0,0.0,0.0,0.0,0.0,0.0,0.0,0.0,7.0156,7.1953,0.0,0.0,0.0,7.3594,7.3476,0.0,0.0,0.0,0.0,0.0,0.0,0.0,0.0,0.0,0.0,0.0,0.0,0.0,0.0,0.0,0.0,0.0,0.0,0.0,0.0,0.0,0.0,0.0,0.0,0.0,0.0,0.0,0.0,0.0,0.0,0.0,0.0,0.0,0.0,0.0,0.0,0.0,0.0,0.0,0.0,0.0,0.0,0.0,0.0,0.0,0.0,0.0,0.0,0.0,0.0,0.0,0.0,0.0,0.0,0.0,0.0,0.0,7.9781,8.3974,8.694,8.8637,8.8677,8.8981,8.9513,8.6096,0.0,0.0,0.0,0.0,0.0,0.0,0.0,0.0,0.0,0.0,0.0,0.0,0.0,0.0,0.0,0.0,0.0,0.0,0.0,0.0,0.0,0.0,0.0,0.0,0.0,0.0,0.0,4.8945,0.0,0.0,0.0,0.0,0.0,0.0,0.0,0.0,0.0,0.0,0.0,0.0,0.0,0.0,7.1406,7.25,7.4531,7.5664,0.0,0.0,7.5742,7.5312,7.5234,7.4492,0.0,0.0,0.0,0.0,0.0,0.0,0.0,0.0,0.0,0.0,0.0,0.0,0.0,0.0,0.0,0.0,0.0,0.0,0.0,0.0,0.0,0.0,0.0,0.0,0.0,0.0,0.0,0.0,0.0,0.0,0.0,0.0,0.0,0.0,0.0,0.0,0.0,0.0,0.0,0.0,0.0,0.0,0.0,0.0,0.0,0.0,0.0,0.0,0.0,0.0,0.0,0.0,0.0,0.0,7.7167,7.9819,8.3974,8.6942,8.8603,8.8677,8.8718,8.8754,8.694,8.4053,0.0,0.0,0.0,0.0,0.0,0.0,0.0,0.0,0.0,0.0,0.0,0.0,0.0,0.0,0.0,0.0,0.0,0.0,0.0,0.0,0.0,0.0,0.0,0.0,0.0,0.0,0.0,0.0,0.0,0.0,0.0,0.0,0.0,0.0,0.0,0.0,0.0,0.0,0.0,0.0,0.0,7.25,7.418,7.5273,7.5898,0.0,7.5859,7.6133,7.6914,7.7031,7.668,7.5703,0.0,0.0,0.0,0.0,0.0,0.0,0.0,0.0,0.0,0.0,0.0,0.0,0.0,0.0,0.0,0.0,0.0,0.0,0.0,0.0,0.0,0.0,0.0,0.0,0.0,0.0,0.0,0.0,0.0,0.0,0.0,0.0,0.0,0.0,0.0,0.0,0.0,0.0,0.0,0.0,0.0,0.0,0.0,0.0,0.0,0.0,0.0,0.0,0.0,0.0,0.0,0.0,0.0,7.7784,8.1323,8.5016,8.7478,8.8675,8.9712,9.0248,9.025,8.8096,8.5668,0.0,0.0,0.0,0.0,0.0,0.0,0.0,0.0,0.0,0.0,0.0,0.0,0.0,0.0,0.0,0.0,0.0,0.0,0.0,0.0,0.0,0.0,0.0,0.0,0.0,0.0,0.0,0.0,6.2109,6.2969,6.2539,0.0,0.0,0.0,0.0,0.0,0.0,0.0,0.0,0.0,0.0,7.5039,7.6758,7.7695,0.0,0.0,7.8711,7.8984,7.875,7.9219,7.9062,7.7734,7.5781,0.0,0.0,0.0,0.0,0.0,0.0,0.0,0.0,0.0,0.0,0.0,0.0,0.0,0.0,0.0,0.0,0.0,0.0,0.0,0.0,0.0,0.0,0.0,0.0,0.0,0.0,0.0,0.0,0.0,0.0,0.0,0.0,0.0,0.0,0.0,0.0,0.0,0.0,0.0,0.0,0.0,0.0,0.0,0.0,0.0,0.0,0.0,0.0,0.0,0.0,0.0,0.0,7.9208,8.2672,8.6286,8.8327,8.8677,9.0094,9.0667,9.04,8.8712,8.6901,0.0,0.0,0.0,0.0,0.0,0.0,0.0,0.0,0.0,0.0,0.0,0.0,0.0,0.0,0.0,0.0,0.0,0.0,0.0,0.0,0.0,0.0,0.0,0.0,0.0,0.0,0.0,0.0,6.5469,6.5664,6.3942,0.0,0.0,0.0,0.0,0.0,0.0,0.0,0.0,0.0,0.0,7.7656,7.9375,7.9883,8.0156,8.0429,8.0976,8.1172,8.0586,8.1015,8.0976,7.9805,0.0,0.0,0.0,0.0,0.0,0.0,0.0,0.0,0.0,0.0,0.0,0.0,0.0,0.0,0.0,0.0,0.0,0.0,0.0,0.0,0.0,0.0,0.0,0.0,0.0,0.0,0.0,5.072,0.0,0.0,4.9777,0.0,0.0,0.0,0.0,0.0,0.0,0.0,0.0,0.0,0.0,0.0,0.0,0.0,0.0,0.0,0.0,0.0,0.0,0.0,0.0,0.0,0.0,8.1785,8.3599,8.7667,8.9436,8.8754,8.9515,8.959,8.8833,8.8677,8.7481,8.4972,0.0,0.0,0.0,0.0,0.0,0.0,0.0,0.0,0.0,0.0,0.0,0.0,0.0,0.0,0.0,0.0,0.0,0.0,0.0,0.0,0.0,0.0,0.0,0.0,0.0,0.0,6.6601,6.7578,6.738,0.0,0.0,0.0,0.0,0.0,0.0,0.0,0.0,0.0,7.664,7.8555,8.0273,8.1953,8.1523,8.1328,8.2148,8.2265,8.2304,8.2265,8.2304,8.2265,0.0,0.0,0.0,0.0,0.0,0.0,0.0,0.0,0.0,0.0,0.0,0.0,0.0,0.0,0.0,0.0,0.0,0.0,0.0,0.0,0.0,0.0,0.0,0.0,0.0,0.0,0.0,5.8582,5.9057,0.0,0.0,0.0,0.0,0.0,0.0,0.0,0.0,0.0,0.0,0.0,7.0784,7.1515,0.0,0.0,0.0,0.0,0.0,0.0,0.0,0.0,0.0,0.0,0.0,0.0,8.2479,8.5247,8.7786,8.8981,8.8718,8.9477,8.9515,8.8716,8.8677,8.7519,8.4974,0.0,0.0,0.0,0.0,0.0,0.0,0.0,0.0,0.0,0.0,0.0,0.0,0.0,0.0,0.0,0.0,0.0,0.0,0.0,0.0,0.0,0.0,0.0,0.0,0.0,6.803,0.0,0.0,0.0,0.0,0.0,0.0,0.0,0.0,0.0,0.0,0.0,7.6523,7.9375,8.0703,8.207,8.3789,8.3789,8.3711,0.0,0.0,0.0,0.0,0.0,0.0,0.0,0.0,0.0,0.0,0.0,0.0,0.0,0.0,7.7617,7.3633,7.3359,7.3555,7.3008,0.0,0.0,0.0,0.0,0.0,0.0,0.0,0.0,0.0,0.0,0.0,0.0,0.0,0.0,6.4468,6.4633,6.39,0.0,0.0,0.0,0.0,0.0,0.0,0.0,0.0,7.2587,7.4428,7.5479,7.5968,7.6478,0.0,7.6665,7.5355,0.0,0.0,0.0,0.0,0.0,0.0,0.0,0.0,8.3939,8.6089,8.8094,8.8972,8.8726,8.9201,8.925,8.8716,8.8677,8.8058,8.6664,8.4437,8.1775,0.0,0.0,0.0,0.0,0.0,0.0,0.0,0.0,0.0,0.0,0.0,0.0,0.0,0.0,0.0,0.0,0.0,0.0,0.0,0.0,0.0,0.0,0.0,7.1892,0.0,0.0,0.0,0.0,0.0,0.0,0.0,0.0,0.0,7.3945,7.6562,7.9492,8.2031,8.3125,8.4062,8.5156,0.0,0.0,0.0,0.0,0.0,0.0,0.0,8.6015,8.5469,8.4883,8.4687,8.5234,8.5078,8.4883,8.4883,0.0,0.0,7.8945,7.8398,7.8515,7.8242,7.8164,7.8555,7.9648,8.0117,8.0703,0.0,0.0,0.0,0.0,0.0,0.0,0.0,0.0,7.0666,6.9779,0.0,6.8555,0.0,0.0,0.0,0.0,6.8941,7.1224,0.0,0.0,7.9451,8.1137,8.1208,8.1121,8.1981,8.3368,8.1091,8.0781,8.2056,7.9173,0.0,0.0,0.0,0.0,0.0,0.0,8.6091,8.6282,8.8588,8.9487,8.8713,8.8724,8.8754,8.8754,8.8752,8.9094,8.9703,8.678,8.4603,8.3595,7.8912,0.0,0.0,0.0,0.0,0.0,0.0,0.0,0.0,0.0,0.0,0.0,0.0,0.0,0.0,0.0,0.0,0.0,0.0,0.0,0.0,7.3494,0.0,0.0,0.0,0.0,0.0,0.0,0.0,0.0,0.0,7.9073,7.7733,7.9609,8.207,8.4609,0.0,0.0,0.0,0.0,8.6289,8.6289,8.625,8.625,8.625,8.625,8.625,8.625,0.0,0.0,8.6328,8.5664,8.5273,8.5195,8.5976,8.6094,8.5273,8.414,8.375,8.4414,8.4414,8.4804,8.4922,8.5078,8.5586,7.3595,0.0,0.0,0.0,0.0,7.0751,7.2056,7.4205,7.4437,7.5137,7.6154,7.5809,0.0,0.0,0.0,0.0,0.0,0.0,7.6386,7.8884,8.0469,8.1784,8.289,8.2888,8.3139,8.3599,8.4053,8.4551,8.5016,8.5328,8.3482,7.9748,0.0,0.0,0.0,0.0,8.6122,8.7882,8.8667,8.893,8.8707,8.9269,8.9551,8.9551,8.9551,8.9667,8.9855,8.897,8.7229,8.4659,8.2538,0.0,0.0,0.0,0.0,0.0,0.0,0.0,0.0,0.0,0.0,0.0,0.0,0.0,0.0,0.0,0.0,0.0,0.0,0.0,7.4337,7.6707,7.7889,0.0,0.0,0.0,0.0,0.0,0.0,0.0,0.0,0.0,8.321,8.3589,8.4451,0.0,0.0,8.7406,8.8593,8.8272,8.7913,8.7968,8.75,0.0,8.7109,8.7148,8.7148,8.7148,8.7617,8.8203,8.8789,8.9219,8.9687,9.0195,9.0078,8.9922,9.0156,8.7656,8.5508,8.5,8.4883,8.5117,8.5703,8.6054,8.6679,8.0131,7.8511,7.6048,7.5476,7.6172,7.6213,7.7632,8.0014,8.0015,8.0704,8.1777,8.1244,7.994,7.7978,7.7127,0.0,0.0,0.0,8.0619,8.3387,8.358,8.4366,8.5565,8.5602,8.579,8.6094,8.6091,8.6438,8.7134,8.7171,8.6017,8.371,0.0,0.0,8.5359,8.5707,8.647,8.7654,8.8363,8.8699,8.8698,8.9496,9.0047,9.0396,9.0086,9.0047,9.0396,9.0086,8.8959,8.694,8.512,8.2546,0.0,0.0,0.0,0.0,0.0,0.0,0.0,0.0,0.0,0.0,0.0,6.4171,6.5203,0.0,0.0,0.0,7.3613,7.5785,7.8471,7.9807,0.0,0.0,0.0,0.0,0.0,0.0,0.0,8.2368,8.349,8.4824,8.6461,8.6649,8.6979,8.8113,8.8446,8.8984,8.9988,0.0,8.9903,8.9929,8.9557,8.9117,8.877,8.8733,8.8636,8.8281,8.8594,8.9062,8.9609,9.0175,9.0685,9.1079,9.0858,9.0686,9.1195,8.9123,8.7624,8.789,8.7969,8.8125,8.8672,8.875,8.914,8.5203,8.4779,8.0171,7.9829,8.2362,8.2404,8.3749,8.5976,8.5897,8.5551,8.4972,8.4933,8.363,8.1477,8.0742,0.0,8.5051,8.4249,8.5563,8.8639,8.7788,8.7865,8.8677,8.8677,8.9096,8.9742,8.7474,8.7209,8.8639,8.6553,8.613,8.7555,8.7594,8.7171,8.6397,8.698,8.6938,8.6243,8.7865,8.8769,8.8909,8.9602,9.0393,9.1169,9.0434,9.0396,9.1131,9.0434,8.9919,8.9743,8.6919,8.4797,8.3556,0.0,0.0,0.0,0.0,0.0,0.0,0.0,0.0,0.0,0.0,0.0,0.0,0.0,0.0,7.5334,7.8428,0.0,8.2292,8.2636,0.0,0.0,0.0,8.3068,8.3115,8.4487,8.5526,8.5583,0.0,0.0,8.8095,8.8821,8.9462,8.9804,9.0273,9.0638,9.0794,9.1305,9.1771,9.1545,9.1625,9.1347,9.0317,9.0248,8.9983,8.9321,8.9288,8.9336,8.9453,8.9477,8.9472,8.9739,8.9561,8.9583,8.9544,8.9584,9.0108,9.1915,9.2187,9.2148,9.1875,9.1836,9.164,8.779,8.7713,8.6484,8.4946,8.3293,8.3291,8.4018,8.5087,8.448,8.4786,8.5743,8.5166,8.4897,8.4937,8.5361,8.6055,8.6788,8.6596,8.7292,8.86,8.779,8.7865,8.8677,8.8677,8.8793,8.8981,8.8974,8.9203,8.9628,8.9667,8.9549,8.9318,8.9318,8.89,8.8058,8.6978,8.6622,8.7109,8.8167,8.9323,9.0534,9.0776,9.1011,9.1167,9.1013,9.0975,9.1169,9.1015,9.0299,8.9068,8.8793,8.7141,8.3787,8.1836,0.0,0.0,0.0,0.0,0.0,0.0,0.0,0.0,0.0,7.3177,7.4438,0.0,7.9434,0.0,8.2472,8.3592,8.331,8.4509,0.0,0.0,8.545,8.579,8.6359,8.6774,8.7263,8.797,8.8401,8.8956,8.9709,8.9873,9.0204,9.0937,9.0696,9.0947,9.2163,9.1437,9.0849,9.091,9.0483,8.9842,8.9769,8.9609,8.964,8.9328,8.9331,8.9514,9.0191,9.0296,9.0493,9.1131,9.1284,9.1282,9.1271,9.129,9.1434,9.1878,9.1182,9.0312,9.0117,9.0273,9.0514,8.9021,8.8718,8.8677,8.7602,8.5871,8.5871,8.6138,8.6555,8.6061,8.6405,8.7211,8.6363,8.6478,8.7288,8.7752,8.8173,8.8513,8.89,8.9366,8.9789,8.9327,8.9363,8.9827,8.9829,8.9827,8.9825,8.9859,8.9893,8.9893,8.9631,8.9438,8.9361,8.8974,8.8938,8.9171,8.794,8.7515,8.797,8.8814,8.9853,9.1129,9.1203,9.1203,9.1203,9.1203,9.1203,9.1203,9.1203,9.0767,8.9858,8.9538,8.8312,8.5977,8.3966,8.2058,0.0,0.0,0.0,0.0,0.0,0.0,0.0,0.0,0.0,0.0,0.0,8.3101,8.3915,8.5239,8.58,8.534,8.653,8.7313,8.7336,8.8043,8.8573,8.8632,8.9298,8.9789,8.9915,8.9932,9.0128,9.0684,9.0645,9.0941,9.1788,9.0927,9.0808,9.2316,9.1958,9.1522,9.1877,9.1564,9.1252,9.1252,9.1277,9.126,9.1242,9.1282,9.1443,9.1879,9.1984,9.2165,9.2601,9.2683,9.2681,9.2683,9.2683,9.2721,9.2618,9.2167,9.1447,9.0618,9.0583,9.0804,8.9592,8.887,8.8983,8.8906,8.8718,8.8831,8.887,8.8829,8.8756,8.8677,8.8639,8.7906,8.7985,8.8718,8.8793,8.9248,8.9934,9.0665,9.0977,9.09,9.0975,9.0975,9.0898,9.109,9.1203,9.1167,9.0436,9.0126,9.0165,8.8748,8.8442,8.9137,8.8517,8.89,9.0165,8.9635,8.9261,8.919,8.9878,9.0641,9.1477,9.1515,9.1515,9.1515,9.1515,9.1477,9.1362,9.1362,9.1244,9.1009,8.9748,8.8872,8.8487,8.5679,8.3984,0.0,8.1668,0.0,0.0,0.0,0.0,0.0,0.0,0.0,0.0,8.4066,8.5672,8.6393,8.7207,8.772,8.7704,8.8496,8.9002,8.9068,9.0331,9.0887,9.0204,9.1441,9.2038,9.1285,9.1203,9.1203,9.1174,9.1282,9.1683,9.2038,9.1244,9.0977,9.2136,9.232,9.2463,9.3537,9.3701,9.3317,9.3434,9.3554,9.3532,9.3606,9.3492,9.3691,9.356,9.3608,9.3663,9.3665,9.3593,9.3636,9.3674,9.3674,9.3674,9.3602,9.3699,9.3425,9.2428,9.2159,9.219,9.0436,8.9742,9.0436,8.994,8.8752,8.9402,8.9665,8.9628,8.8983,8.8677,8.8677,8.8534,8.853,8.8754,8.94,8.9742,8.9893,9.0086,8.9782,8.9216,8.9861,8.9782,8.9254,9.0592,9.1203,9.1206,9.1011,9.1321,9.1979,9.171,9.1635,9.1787,9.2251,9.2328,9.2056,0.0,0.0,0.0,9.1941,9.2398,9.3172,9.3251,9.321,9.3213,9.3253,0.0,9.2287,9.2249,9.1586,9.0254,9.0504,0.0,0.0,0.0,0.0,0.0,0.0,0.0,0.0,0.0,0.0,0.0,8.5036,8.5117,8.61,8.7284,8.8034,8.8207,8.8936,8.9408,8.944,9.0225,9.0742,9.0769,9.1007,9.1111,9.0996,9.1263,9.1364,9.1206,9.1203,9.1206,9.1285,9.18,9.2038,9.1635,9.1759,9.2115,9.2423,9.1935,9.2064,9.3371,9.3719,9.3713,9.3674,9.3751,9.3871,9.369,9.369,9.3751,9.3789,9.3776,9.3724,9.3767,9.3681,9.3751,9.3751,9.3674,9.379,9.3713,9.3781,9.3697,9.3429,9.3525,9.3614,9.1323,9.059,9.1015,9.0708,0.0,9.0359,9.0549,9.0472,8.9212,8.8677,8.8677,8.8684,8.8684,8.8754,8.9554,8.9893,8.9932,9.0319,9.0323,8.9979,9.0361,9.0323,8.9979,9.1248,9.1864,9.1862,9.2249,9.2674,9.3061,9.2712,9.252,9.252,9.2905,9.3097,9.3136,9.4367,9.4367,9.3097,9.3102,9.3292,9.3672,9.3674,9.3674,9.3674,9.3674,0.0,0.0,0.0,0.0,0.0,0.0,0.0,0.0,0.0,0.0,8.6827,8.6786,8.6786,8.6829,8.7527,8.8186,8.8592,8.9013,8.8741,8.7519,8.8199,8.8843,8.928,9.0054,9.0556,9.0573,9.0947,9.1203,9.1206,9.1563,9.1674,9.1376,9.1964,9.2249,9.1979,9.221,9.2445,9.2452,9.2782,9.2726,9.1973,9.181,9.2057,9.2372,9.2129,9.2328,9.3511,9.41,9.433,9.4369,9.4749,9.498,9.4982,9.4982,9.4968,9.4979,9.4975,9.4975,9.4977,9.5,9.498,9.498,9.4982,9.498,9.498,9.4971,9.4973,9.493,9.4421,9.3857,9.1823,9.1244,9.1515,9.1552,9.1441,9.1748,9.1785,9.1515,8.9868,0.0,0.0,8.9139,8.9216,8.9408,9.0054,9.0434,9.0626,9.1323,9.1552,9.1439,9.1592,9.1554,9.1477,9.2287,9.2715,9.2751,9.3405,9.3792,9.3907,9.3253,9.302,9.3174,9.3172,9.3559,9.4407,9.5949,9.6025,9.4677,9.4312,9.4156,9.4174,9.4174,9.4174,9.4136,9.4174,9.4097,9.3948,9.391,9.3529,9.2741,9.2031,9.1237,9.0401,8.9737,8.9289,8.9175,8.9291,8.937,8.937,8.9977,9.0516,9.0934,9.1485,9.0766,8.8203,8.8752,8.9401,9.0047,9.078,9.1206,9.1203,9.1203,9.1282,9.1402,9.2076,9.2237,9.1828,9.2828,9.3366,9.2943,9.3251,9.3599,9.3421,9.352,9.3307,9.2446,9.1826,9.1717,9.2531,9.2901,9.333,9.4197,9.4867,9.5215,9.5333,9.5711,9.6245,9.6132,9.6209,9.6283,9.6283,9.6283,9.6283,9.6125,9.6283,9.6206,9.6245,9.617,9.6283,9.6283,9.6283,9.6283,9.6165,9.5174,9.4305,9.1319,9.1323,9.2751,9.2943,9.2441,9.3871,9.4061,9.3213,9.1595,9.0859,9.0864,9.0862,9.1246,9.1982,9.2092,9.2518,9.3174,9.3289,9.2979,9.2364,9.3018,9.2982,9.2366,9.3136,9.3523,9.3561,9.3638,9.41,9.472,9.472,9.5023,9.5672,9.5785,9.617,9.6983,9.7946,9.833,9.8064,9.667,9.5937,9.5939,9.5937,9.5937,9.5939,9.5939,9.5595,9.4833,9.4833,9.441,9.3604,9.3416,9.2982,9.2179,9.1998,9.1622,9.0977,9.1556,9.1982,9.1945,9.2086,9.1547,9.0222,8.9555,8.9581,9.0578,9.0772,9.0905,9.1022,9.1092,9.1203,9.1203,9.1206,9.1522,9.2157,9.2433,9.2698,9.3176,9.3482,9.3636,9.352,9.3597,9.3407,9.2986,9.3298,9.3167,9.1928,9.2161,9.2658,9.3486,9.4185,9.4982,9.5697,9.6016,9.6132,9.6247,9.6209,9.6439,9.6283,9.6403,9.648,9.6516,9.6516,9.6478,9.6324,9.6362,9.6324,9.6324,9.6283,9.6283,9.6283,9.6283,9.6283,9.6283,9.5966,9.5808,9.1939,9.2097,9.3216,9.3484,9.3215,9.3982,9.4063,9.3638,9.2905,9.2556,9.2556,9.2556,9.2789,9.3136,9.3138,9.3328,9.3674,9.3674,9.352,9.3213,9.352,9.352,9.3249,9.4023,9.4407,9.4448,9.4905,9.5328,9.5715,9.6139,9.6559,9.6978,9.7401,9.7827,9.8214,9.8581,9.8776,9.8793,9.8057,9.7675,9.7673,9.7673,9.7673,9.7673,9.7637,9.7483,9.7064,9.66,9.5982,9.5134,9.4683,9.4048,9.3194,9.3136,9.2964,9.2593,9.2943,9.2945,9.252,9.2515,9.234,9.1967,9.164,9.1723,9.2476,9.1272,9.049,9.0513,9.0898,9.1203,9.1206,9.1601,9.2076,9.2433,9.29,9.3294,9.3599,9.3699,9.3674,9.3674,9.3674,9.3559,9.321,9.3484,9.3514,9.2724,9.3278,9.4149,9.4989,9.5803,9.6488,9.6899,9.7324,9.7634,9.7637,9.7634,9.7644,9.7667,9.7633,9.766,9.7641,9.7632,9.7442,9.7055,9.6939,9.6747,9.6478,9.6285,9.6283,9.6283,9.6283,9.6283,9.6283,9.6283,9.6283,9.2453,9.267,9.3406,9.3953,9.4249,9.429,9.429,9.429,9.4292,9.429,9.4251,9.3905,9.3792,9.3986,9.3984,9.4097,9.4249,9.429,9.429,9.4292,9.429,9.4292,9.4367,9.4984,9.5371,9.56,9.6247,9.667,9.6942,9.7519,9.7788,9.7865,9.8675,9.9101,9.9098,9.9252,9.9365,9.9365,9.9365,9.9175,9.8832,9.8793,9.8793,9.8793,9.8793,9.8793,9.8752,9.8137,9.7524,9.6876,9.6032,9.524,9.4619,9.4369,9.4269,9.4287,9.4292,9.3941,9.3165,9.3067,9.3243,9.3633,9.3708,9.3694,9.3545,9.1903,9.0747,9.0853,9.1475,9.1825,9.1916,9.2354,9.2823,9.3038,9.3597,9.411,9.4264,9.4303,9.4181,9.4068,9.3991,9.3943,9.3751,9.3674,9.3785,9.4016,9.4758,9.5609,9.6469,9.7286,9.7793,9.8125,9.8519,9.8675,9.8793,9.8716,9.8689,9.8802,9.8725,9.8624,9.8668,9.8731,9.8586,9.7935,9.7786,9.7593,9.7055,9.6939,9.6978,9.7019,9.7057,9.698,9.6994,9.6987,9.6783,9.202,9.2665,9.3558,9.4734,9.5962,9.6014,9.5978,9.5975,9.6052,9.6055,9.5862,9.4403,9.4215,9.4794,9.4874,9.529,9.5942,9.6052,9.6016,9.6019,9.6055,9.6055,9.6055,9.6172,9.6555,9.7173,9.7363,9.775,9.8406,9.8601,9.8716,9.8791,9.9565,9.9986,10.0065,10.0673,10.1053,10.1051,10.1053,10.0327,9.8868,9.8793,9.8793,9.8793,9.8832,9.8793,9.8908,9.8714,9.8658,9.8498,9.7712,9.7198,9.7076,9.6446,9.6052,9.6016,9.6016,9.5697,9.4869,9.4755,9.4448,9.3798,9.3805,9.3803,9.3796,9.352,9.3348,9.3314,9.3407,9.3346,9.346,9.3542,9.3864,9.4459,9.4749,9.5174,9.5769,9.6089,9.5763,9.4955,9.4808,9.46,9.402,9.3986,9.4206,9.4938,9.5896,9.6704,9.7448,9.8253,9.9046,9.9474,9.937,9.8947,9.8947,9.8832,9.9026,9.8954,9.8875,9.8973,9.9094,9.9,9.8726,9.8812,9.8675,9.8598,9.8444,9.856,9.8444,9.8214,9.8254,9.8454,9.8528,9.8391,9.8127,9.2565,9.2953,9.4145,9.5297,9.6214,9.6283,9.6283,9.6283,9.6283,9.6555,9.6899,9.6249,9.5867,9.5749,9.5788,9.598,9.6283,9.6283,9.6555,9.6978,9.7014,9.7288,9.775,9.779,9.7983,9.8252,9.8291,9.8447,9.8829,9.9293,9.9791,10.025,10.0673,10.083,10.0827,10.113,10.1279,10.1279,10.1279,10.0938,10.0363,10.0286,10.0286,10.0286,10.0286,10.0286,10.0209,9.9829,9.9565,9.9526,9.8723,9.8266,9.8264,9.7947,9.7557,9.7055,9.6555,9.6362,9.6444,9.6045,9.5808,9.5928,9.5491,9.5253,9.5253,9.5253,9.5224,9.5129,9.4328,9.3685,9.3778,9.414,9.4625,9.4993,9.545,9.5928,9.6206,9.5887,9.5498,9.5663,9.5328,9.5141,9.5297,9.5675,9.6039,9.6621,9.758,9.8591,9.9024,9.9771,10.0336,10.0664,10.0481,10.0325,10.0245,10.0248,10.0248,10.0286,10.0286,10.0269,10.0219,10.0286,10.0178,9.9687,9.9589,9.9332,9.8793,9.8793,9.8793,9.8868,9.8793,9.8798,9.8776,9.8779,9.8748,9.3487,9.3861,9.5039,9.5861,9.6378,9.6585,9.6643,9.6709,9.6873,9.7324,9.7827,9.7865,9.7555,9.7019,9.698,9.6978,9.698,9.6978,9.7288,9.7827,9.7865,9.8175,9.8752,9.8793,9.8947,9.9142,9.9142,9.9293,9.9522,10.0099,10.0712,10.1243,10.1279,10.1279,10.1279,10.1279,10.1279,10.1279,10.1279,10.1279,10.1279,10.1279,10.1279,10.1279,10.1279,10.1279,10.1284,10.075,10.0435,10.0413,9.9615,9.9163,9.9163,9.8925,9.862,9.825,9.7901,9.7682,9.7866,9.7304,9.7026,9.7114,9.6603,9.6283,9.6283,9.6283,9.6283,9.6168,9.5134,9.4482,9.4487,9.4962,9.5335,9.5416,9.6125,9.6603,9.6603,9.6195,9.6291,9.6513,9.6156,9.591,9.6609,9.7454,9.8176,9.838,9.942,10.0444,10.0485,10.0882,10.1241,10.1279,10.1281,10.1243,10.1279,10.1166,10.1279,10.1279,10.1166,10.1128,10.1279,10.1279,10.1241,10.0464,10.044,10.0368,9.9981,9.9673,9.9442,9.9481,9.9442,9.9481,9.968,9.9522,9.9781,9.4634,9.5346,9.6106,9.6412,9.6553,9.7197,9.7509,9.7514,9.824,9.8663,9.8711,9.8755,9.8716,9.8675,9.8675,9.8678,9.8637,9.856,9.8598,9.8752,9.8752,9.8755,9.8793,9.8793,9.9255,9.9986,10.0027,10.0366,10.1053,10.1169,10.1245,10.1279,10.1279,10.1279,10.1279,10.1279,10.1279,10.1279,10.1279,10.1279,10.1279,10.1279,10.1279,10.1279,10.1279,10.1279,10.1281,10.1245,10.1243,10.1238,10.0454,10.0055,9.9978,9.9303,9.9204,9.9901,10.0594,10.0308,9.9073,9.8744,9.8146,9.687,9.68,9.6439,9.6666,9.6745,9.6783,9.6437,9.6555,9.6362,9.6326,9.6292,9.6292,9.6406,9.6999,9.7475,9.7544,9.8252,9.8163,9.7837,9.7772,9.7872,9.7739,9.8944,9.9774,10.0031,10.0685,10.1161,10.112,10.1241,10.1279,10.1279,10.1279,10.1279,10.1279,10.1279,10.1279,10.1279,10.1279,10.1279,10.1279,10.1279,10.1238,10.12,10.1089,10.1053,10.1128,10.1089,10.0935,10.0858,10.0781,10.0822,10.0553,10.0974,10.1041,9.4747,9.5425,9.5695,9.6039,9.6516,9.6801,9.7154,9.7606,9.7911,9.8664,9.9526,9.9642,9.9909,10.0399,10.0402,9.9788,9.887,9.8793,9.9101,9.9565,9.9639,9.9906,10.0363,10.0399,10.0517,10.0827,10.0866,10.1017,10.1243,10.1279,10.1279,10.1279,10.1279,10.1279,10.1279,10.1279,10.1279,10.1279,10.1279,10.1279,10.1279,10.1279,10.1279,10.1279,10.1279,10.1279,10.1279,10.1279,10.1279,10.1279,10.1002,10.0844,10.0841,10.0565,10.0767,10.1556,10.1438,10.1299,10.1178,10.0711,10.0153,9.9611,9.9496,9.9105,9.8935,9.9197,9.9512,9.9435,9.9437,9.9476,9.9132,9.8105,9.7316,9.7909,9.8662,9.9343,9.9841,10.0226,10.0437,10.0755,10.1197,10.1414,10.0851,10.1323,10.1465,10.1007,10.112,10.1279,10.1279,10.1279,10.1279,10.1279,10.1279,10.1279,10.1279,10.1279,10.1279,10.1279,10.1279,10.1279,10.1279,10.1279,10.1279,10.1241,10.1279,10.1279,10.1243,10.1243,10.1279,10.1279,10.1279,10.1279,10.1279,10.1279,10.1279,9.5341,9.5789,9.5832,9.6095,9.659,9.7101,9.7595,9.8133,9.8574,9.9442,10.0368,10.0486,10.0789,10.1243,10.1279,10.0748,9.9675,9.9637,9.9942,10.0447,10.0486,10.0786,10.1207,10.1279,10.1279,10.1281,10.1279,10.1279,10.1279,10.1279,10.1279,10.1279,10.1279,10.1279,10.1279,10.1279,10.1279,10.1279,10.1279,10.1279,10.1279,10.1279,10.1279,10.1279,10.1279,10.1279,10.1279,10.1279,10.1279,10.1279,10.1279,10.1279,10.1317,10.1592,10.1979,10.2476,10.2363,10.2082,10.2113,10.1657,10.1058,10.0548,10.0457,10.0238,9.9802,10.0189,10.0557,10.0813,10.0902,10.0943,10.1019,9.9959,9.9175,9.9417,10.0221,10.0955,10.1322,10.1799,10.2347,10.2798,10.3279,10.3412,10.3117,10.2739,10.2311,10.1755,10.1517,10.1317,10.1279,10.1279,10.1279,10.1279,10.1279,10.1279,10.1279,10.1279,10.1279,10.1279,10.1279,10.1279,10.1279,10.1279,10.1279,10.1279,10.1279,10.1279,10.1279,10.1279,10.1279,10.1279,10.1279,10.1279,10.1279,10.1279,10.1279,9.6663,9.6656,9.6705,9.6635,9.6838,9.8008,9.8818,9.9018,10.0248,10.0711,10.096,10.1153,10.1145,10.1279,10.1279,10.1243,10.1092,10.1012,10.1051,10.1166,10.1205,10.1205,10.1279,10.1279,10.1279,10.1279,10.1279,10.1279,10.1279,10.1279,10.1279,10.1279,10.1279,10.1279,10.1279,10.1279,10.1279,10.1279,10.1279,10.1279,10.1279,10.1279,10.1279,10.1279,10.1279,10.1279,10.1279,10.1279,10.1279,10.1279,10.1279,10.1279,10.1476,10.2053,10.2597,10.2789,10.3369,10.297,10.1736,10.1544,10.0927,9.9874,9.9174,9.9574,9.9576,9.9558,9.9939,10.07,10.0796,10.0794,10.1712,10.2188,10.19,10.0632,10.1695,10.2327,10.2133,10.295,10.3921,10.4008,10.4174,10.3946,10.3756,10.3376,10.2845,10.2426,10.1914,10.1399,10.132,10.1279,10.1279,10.1279,10.1279,10.1279,10.1279,10.1279,10.1279,10.1279,10.1279,10.1279,10.1279,10.1279,10.1279,10.1279,10.1279,10.1279,10.1279,10.1279,10.1279,10.1279,10.1279,10.1279,10.1279,10.1279,10.1279,9.6727,9.6727,9.6727,9.6727,9.6748,9.7223,9.7681,9.8171,9.8757,9.9499,10.0401,10.0555,10.0809,10.1225,10.1279,10.1279,10.1279,10.1279,10.1279,10.1279,10.1279,10.1279,10.1279,10.1279,10.1279,10.1279,10.1279,10.1279,10.1279,10.1279,10.1279,10.1279,10.1279,10.1279,10.1279,10.1279,10.1279,10.1279,10.1279,10.1279,10.1279,10.1279,10.1279,10.1279,10.1279,10.1279,10.1279,10.1279,10.1279,10.1279,10.1317,10.1558,10.2109,10.2448,10.2864,10.3446,10.3715,10.3746,10.3252,10.3006,10.2504,10.1742,10.1858,10.1948,10.1579,10.1813,10.2476,10.3299,10.3563,10.3869,10.4633,10.5018,10.4386,10.2925,10.3682,10.4443,10.4546,10.5169,10.5574,10.5628,10.5595,10.5356,10.4841,10.4346,10.3784,10.2852,10.2386,10.1993,10.1479,10.132,10.1279,10.1279,10.1279,10.1279,10.1279,10.1279,10.1279,10.1279,10.1279,10.1279,10.1279,10.1279,10.1279,10.1279,10.1279,10.1279,10.1279,10.1279,10.1279,10.1279,10.1279,10.1279,10.1279,10.1279,10.1279,9.6727,9.6727,9.6727,9.6727,9.6748,9.6976,9.7375,9.7797,9.814,9.8835,9.9676,10.0055,10.0433,10.0863,10.1149,10.1279,10.1279,10.1279,10.1279,10.1279,10.1279,10.1279,10.1279,10.1279,10.1279,10.1279,10.1279,10.1279,10.1279,10.1279,10.1279,10.1279,10.1279,10.1279,10.1279,10.1279,10.1279,10.1279,10.1279,10.1279,10.1279,10.1279,10.1279,10.1279,10.1279,10.1279,10.1279,10.1279,10.1279,10.1279,10.1279,10.1597,10.2073,10.2102,10.2363,10.2789,10.2943,10.2904,10.294,10.2707,10.2756,10.2347,10.2629,10.2667,10.2273,10.2708,10.3352,10.4415,10.4561,10.5138,10.6095,10.6359,10.5877,10.4978,10.5224,10.5794,10.629,10.6397,10.6359,10.6285,10.6321,10.6121,10.5764,10.5172,10.4757,10.3671,10.2963,10.2508,10.1873,10.1517,10.1397,10.1279,10.1279,10.1279,10.1279,10.1279,10.1279,10.1279,10.1279,10.1279,10.1279,10.1279,10.1279,10.1279,10.1279,10.1279,10.1279,10.1279,10.1279,10.1279,10.1279,10.1279,10.1279,10.1279,10.1279,9.6727,9.6727,9.6727,9.6727,9.6795,9.7357,9.7603,9.7818,9.8419,9.8746,9.9072,9.9689,10.0139,10.0372,10.098,10.1279,10.1279,10.1279,10.1279,10.1279,10.1279,10.1279,10.1279,10.1279,10.1279,10.1279,10.1279,10.1279,10.1279,10.1279,10.1279,10.1279,10.1279,10.1279,10.1279,10.1279,10.1279,10.1279,10.1279,10.1279,10.1279,10.1279,10.1279,10.1279,10.1279,10.1279,10.1279,10.1279,10.1279,10.1279,10.1279,10.132,10.132,10.1317,10.1438,10.1515,10.1358,10.1474,10.1394,10.1589,10.1512,10.1476,10.1517,10.1356,10.1669,10.1861,10.2558,10.4025,10.4215,10.4751,10.6015,10.6397,10.6326,10.6362,10.6218,10.629,10.6362,10.6397,10.6397,10.6397,10.6397,10.6359,10.6241,10.5646,10.5251,10.4716,10.3671,10.2912,10.235,10.1873,10.1399,10.1279,10.1279,10.1279,10.1279,10.1279,10.1279,10.1279,10.1279,10.1279,10.1279,10.1279,10.1279,10.1279,10.1279,10.1279,10.1279,10.1279,10.1279,10.1279,10.1279,10.1279,10.1279,10.1279,10.1279,9.6727,9.6727,9.6727,9.6727,9.6709,9.6924,9.6981,9.7036,9.7214,9.7693,9.8204,9.8971,9.9666,10.023,10.0949,10.1279,10.1279,10.1279,10.1279,10.1279,10.1279,10.1279,10.1279,10.1279,10.1279,10.1279,10.1279,10.1279,10.1279,10.1279,10.1279,10.1279,10.1279,10.1279,10.1279,10.1279,10.1279,10.1279,10.1279,10.1279,10.1279,10.1279,10.1279,10.1279,10.1279,10.1279,10.1279,10.1279,10.1279,10.1279,10.1279,10.1279,10.1279,10.1279,10.1279,10.1279,10.1279,10.1279,10.1279,10.1279,10.1279,10.1279,10.1279,10.1587,10.2221,10.2221,10.3079,10.4366,10.4794,10.5177,10.6092,10.6397,10.6397,10.6397,10.6397,10.6397,10.6397,10.6397,10.6397,10.6397,10.6397,10.6397,10.6321,10.6162,10.5764,10.5136,10.429,10.331,10.2804,10.2032,10.1517,10.132,10.1279,10.1279,10.1279,10.1279,10.1279,10.1279,10.1279,10.1279,10.1279,10.1279,10.1279,10.1279,10.1279,10.1279,10.1279,10.1279,10.1279,10.1279,10.1279,10.1279,10.1279,10.1279,10.1279,9.6727,9.6727,9.6727,9.6727,9.6727,9.6727,9.6727,9.6727,9.6741,9.6906,9.7527,9.8533,9.9252,9.9802,10.0809,10.1272,10.1279,10.1279,10.1279,10.1279,10.1279,10.1279,10.1279,10.1279,10.1279,10.1279,10.1279,10.1279,10.1279,10.1279,10.1279,10.1279,10.1279,10.1279,10.1279,10.1279,10.1279,10.1279,10.1279,10.1279,10.1279,10.1279,10.1279,10.1279,10.1279,10.1279,10.1279,10.1279,10.1279,10.1279,10.1279,10.1279,10.1279,10.1279,10.1279,10.1279,10.1279,10.1279,10.1279,10.1279,10.1279,10.1279,10.1279,10.1546,10.1877,10.2057,10.2711,10.3707,10.433,10.4984,10.5713,10.6169,10.6359,10.6397,10.6397,10.6397,10.6397,10.6397,10.6397,10.6397,10.6397,10.6397,10.6397,10.6397,10.6162,10.5685,10.4972,10.4087,10.3319,10.2419,10.1676,10.1517,10.132,10.1279,10.1279,10.1279,10.1279,10.1279,10.1279,10.1279,10.1279,10.1279,10.1279,10.1279,10.1279,10.1279,10.1279,10.1279,10.1279,10.1279,10.1279,10.1279,10.1279,10.1279,10.1279,9.6727,9.6727,9.6727,9.6727,9.6727,9.6727,9.6727,9.6727,9.6727,9.6714,9.7041,9.8256,9.8749,9.8955,10.0357,10.1172,10.1136,10.1235,10.1279,10.1279,10.1279,10.1279,10.1279,10.1279,10.1279,10.1279,10.1279,10.1279,10.1279,10.1279,10.1279,10.1279,10.1279,10.1279,10.1279,10.1279,10.1279,10.1279,10.1279,10.1279,10.1279,10.1279,10.1279,10.1279,10.1279,10.1279,10.1279,10.1279,10.1279,10.1279,10.1279,10.1279,10.1279,10.1279,10.1279,10.1279,10.1279,10.1279,10.1279,10.1279,10.1279,10.1279,10.1279,10.1397,10.1584,10.1759,10.2139,10.313,10.3561,10.4561,10.5369,10.6015,10.6321,10.6397,10.6397,10.6397,10.6397,10.6397,10.6397,10.6397,10.6397,10.6397,10.6397,10.6397,10.6359,10.6082,10.5408,10.4651,10.3802,10.296,10.2222,10.1755,10.1517,10.1279,10.1279,10.1279,10.1279,10.1279,10.1279,10.1279,10.1279,10.1279,10.1279,10.1279,10.1279,10.1279,10.1279,10.1279,10.1279,10.1279,10.1279,10.1279,10.1279,10.1279,10.1279,9.6727,9.6727,9.6727,9.6727,9.6727,9.6727,9.6727,9.6727,9.6727,9.6727,9.6938,9.7698,9.8075,9.82,9.9683,10.0427,10.0591,10.1037,10.1279,10.1279,10.1279,10.1279,10.1279,10.1279,10.1279,10.1279,10.1279,10.1279,10.1279,10.1279,10.1279,10.1279,10.1279,10.1279,10.1279,10.1279,10.1279,10.1279,10.1279,10.1279,10.1279,10.1279,10.1279,10.1279,10.1279,10.1279,10.1279,10.1279,10.1279,10.1279,10.1279,10.1279,10.1279,10.1279,10.1279,10.1279,10.1279,10.1279,10.1279,10.1279,10.1279,10.1279,10.132,10.1597,10.227,10.2183,10.2676,10.3527,10.4369,10.5023,10.5903,10.6246,10.6359,10.6397,10.6397,10.6397,10.6397,10.6397,10.6397,10.6397,10.6397,10.6397,10.6397,10.6397,10.6359,10.628,10.5849,10.5144,10.4351,10.353,10.284,10.2219,10.1827,10.1589,10.1279,10.1279,10.1279,10.1279,10.1279,10.1279,10.1279,10.1279,10.1279,10.1279,10.1279,10.1279,10.1279,10.1279,10.1279,10.1279,10.1279,10.1279,10.1279,10.1279,10.1279,9.6727,9.6727,9.6727,9.6727,9.6727,9.6727,9.6727,9.6727,9.6727,9.6727,9.6867,9.7484,9.7797,9.7918,9.9058,9.9783,10.0328,10.0949,10.1279,10.1279,10.1279,10.1279,10.1279,10.1279,10.1279,10.1279,10.1279,10.1279,10.1279,10.1279,10.1279,10.1279,10.1279,10.1279,10.1279,10.1279,10.1279,10.1279,10.1279,10.1279,10.1279,10.1279,10.1279,10.1279,10.1279,10.1279,10.1279,10.1279,10.1279,10.1279,10.1279,10.1279,10.1279,10.1279,10.1279,10.1279,10.1279,10.1279,10.1279,10.1279,10.1279,10.1279,10.1279,10.1556,10.1876,10.1993,10.2412,10.3212,10.4056,10.4982,10.6208,10.6397,10.6397,10.6397,10.6397,10.6397,10.6397,10.6397,10.6397,10.6397,10.6397,10.6397,10.6397,10.6397,10.6397,10.6321,10.6321,10.5654,10.5057,10.4236,10.3451,10.2796,10.2291,10.1863,10.1435,10.1279,10.1279,10.1279,10.1279,10.1279,10.1279,10.1279,10.1279,10.1279,10.1279,10.1279,10.1279,10.1279,10.1279,10.1279,10.1279,10.1279,10.1279,10.1279,10.1279,9.6727,9.6727,9.6727,9.6727,9.6727,9.6727,9.6727,9.6727,9.6727,9.6727,9.6819,9.7373,9.7545,9.7792,9.8428,9.9284,10.0169,10.0738,10.1021,10.1277,10.1279,10.1279,10.1279,10.1279,10.1279,10.1279,10.1279,10.1279,10.1279,10.1279,10.1279,10.1279,10.1279,10.1279,10.1279,10.1279,10.1279,10.1279,10.1279,10.1279,10.1279,10.1279,10.1279,10.1279,10.1279,10.1279,10.1279,10.1279,10.1279,10.1279,10.1279,10.1279,10.1279,10.1279,10.1279,10.1279,10.1279,10.1279,10.1279,10.1279,10.1279,10.1279,10.1279,10.1279,10.1358,10.1474,10.1897,10.2705,10.3669,10.4905,10.6169,10.6397,10.6397,10.6397,10.6397,10.6397,10.6397,10.6397,10.6397,10.6397,10.6397,10.6397,10.6397,10.6397,10.6397,10.6397,10.6359,10.62,10.5605,10.4944,10.412,10.3294,10.2712,10.194,10.1476,10.1279,10.1279,10.1279,10.1279,10.1279,10.1279,10.1279,10.1279,10.1279,10.1279,10.1279,10.1279,10.1279,10.1279,10.1279,10.1279,10.1279,10.1279,10.1279,10.1279,9.6727,9.6727,9.6727,9.6727,9.6727,9.6727,9.6727,9.6727,9.6727,9.6727,9.6724,9.6834,9.6943,9.7124,9.7672,9.8783,9.9767,10.036,10.0755,10.1136,10.1252,10.1279,10.1279,10.1279,10.1279,10.1279,10.1279,10.1279,10.1279,10.1279,10.1279,10.1279,10.1279,10.1279,10.1279,10.1279,10.1279,10.1279,10.1279,10.1279,10.1279,10.1279,10.1279,10.1279,10.1279,10.1279,10.1279,10.1279,10.1279,10.1279,10.1279,10.1279,10.1279,10.1279,10.1279,10.1279,10.1279,10.1279,10.1279,10.1279,10.1279,10.1279,10.1279,10.132,10.1358,10.1394,10.1966,10.2892,10.4092,10.5331,10.6246,10.6397,10.6397,10.6397,10.6397,10.6397,10.6397,10.6397,10.6397,10.6397,10.6397,10.6397,10.6397,10.6397,10.6397,10.6397,10.6397,10.6359,10.6082,10.5415,10.4723,10.3892,10.3056,10.2248,10.1476,10.1358,10.1279,10.1279,10.1279,10.1279,10.1279,10.1279,10.1279,10.1279,10.1279,10.1279,10.1279,10.1279,10.1279,10.1279,10.1279,10.1279,10.1279,10.1279,10.1279,9.6727,9.6727,9.6727,9.6727,9.6727,9.6727,9.6727,9.6727,9.6727,9.6727,9.6727,9.6727,9.6727,9.6819,9.7041,9.7906,9.8865,9.9933,10.0366,10.076,10.1091,10.1279,10.1279,10.1279,10.1279,10.1279,10.1279,10.1279,10.1279,10.1279,10.1279,10.1279,10.1279,10.1279,10.1279,10.1279,10.1279,10.1279,10.1279,10.1279,10.1279,10.1279,10.1279,10.1279,10.1279,10.1279,10.1279,10.1279,10.1279,10.1279,10.1279,10.1279,10.1279,10.1279,10.1279,10.1279,10.1279,10.1279,10.1279,10.1279,10.1279,10.1279,10.1279,10.1556,10.183,10.2094,10.2541,10.3782,10.4859,10.5941,10.6359,10.6397,10.6397,10.6397,10.6397,10.6397,10.6397,10.6397,10.6397,10.6397,10.6397,10.6397,10.6397,10.6397,10.6397,10.6397,10.6397,10.6397,10.6397,10.5931,10.5264,10.4346,10.3474,10.2556,10.1786,10.1438,10.1317,10.1279,10.1279,10.1279,10.1279,10.1279,10.1279,10.1279,10.1279,10.1279,10.1279,10.1279,10.1279,10.1279,10.1279,10.1279,10.1279,10.1279,10.1279,9.6727,9.6727,9.6727,9.6727,9.6727,9.6727,9.6727,9.6727,9.6727,9.6727,9.6727,9.6727,9.6727,9.6695,9.6782,9.7151,9.7893,9.9207,9.9779,10.0357,10.076,10.1088,10.1267,10.1279,10.1279,10.1279,10.1279,10.1279,10.1279,10.1279,10.1279,10.1279,10.1279,10.1279,10.1279,10.1279,10.1279,10.1279,10.1279,10.1279,10.1279,10.1279,10.1279,10.1279,10.1279,10.1279,10.1279,10.1279,10.1279,10.1279,10.1279,10.1279,10.1279,10.1279,10.1279,10.1279,10.1279,10.1279,10.1279,10.1279,10.1279,10.1279,10.1279,10.1755,10.2491,10.2938,10.3685,10.4938,10.5828,10.6323,10.6397,10.6397,10.6397,10.6397,10.6397,10.6397,10.6397,10.6397,10.6397,10.6397,10.6397,10.6397,10.6397,10.6397,10.6397,10.6397,10.6397,10.6397,10.6397,10.6397,10.5774,10.4808,10.389,10.2938,10.2171,10.1592,10.1435,10.1279,10.1279,10.1279,10.1279,10.1279,10.1279,10.1279,10.1279,10.1279,10.1279,10.1279,10.1279,10.1279,10.1279,10.1279,10.1279,10.1279,10.1279,9.6727,9.6727,9.6727,9.6727,9.6727,9.6727,9.6727,9.6727,9.6727,9.6727,9.6727,9.6727,9.6727,9.6727,9.6727,9.7114,9.7669,9.8127,9.8934,9.9818,10.0197,10.0645,10.1156,10.1277,10.125,10.1262,10.1279,10.1279,10.1279,10.1279,10.1279,10.1279,10.1279,10.1279,10.1279,10.1279,10.1279,10.1279,10.1279,10.1279,10.1279,10.1279,10.1279,10.1279,10.1279,10.1279,10.1279,10.1279,10.1279,10.1279,10.1279,10.1279,10.1279,10.1279,10.1279,10.1279,10.1279,10.1279,10.1279,10.1399,10.1476,10.1517,10.1479,10.1835,10.2832,10.4049,10.4803,10.4984,10.5905,10.6362,10.6397,10.6397,10.6397,10.6397,10.6397,10.6397,10.6397,10.6397,10.6397,10.6397,10.6397,10.6397,10.6397,10.6397,10.6397,10.6397,10.6397,10.6397,10.6397,10.6397,10.6323,10.5392,10.4431,10.3517,10.2751,10.2133,10.1551,10.1358,10.1279,10.1279,10.1279,10.1279,10.1279,10.1279,10.1279,10.1279,10.1279,10.1279,10.1279,10.1279,10.1279,10.1279,10.1279,10.1279,10.1279,9.6727,9.6727,9.6727,9.6727,9.6727,9.6727,9.6727,9.6727,9.6727,9.6727,9.6727,9.6727,9.6727,9.6727,9.6727,9.6872,9.7237,9.7586,9.807,9.8894,9.9342,9.9952,10.0523,10.0727,10.0804,10.1252,10.1279,10.1279,10.1279,10.1279,10.1279,10.1279,10.1279,10.1279,10.1279,10.1279,10.1279,10.1279,10.1279,10.1279,10.1279,10.1279,10.1279,10.1279,10.1279,10.1279,10.1279,10.1279,10.1279,10.1279,10.1279,10.1279,10.1279,10.1279,10.1279,10.1279,10.1279,10.1279,10.1358,10.1755,10.1914,10.2191,10.2465,10.3239,10.4059,10.5005,10.5808,10.5861,10.6169,10.6359,10.6397,10.6397,10.6397,10.6397,10.6397,10.6397,10.6397,10.6397,10.6397,10.6397,10.6397,10.6397,10.6397,10.6397,10.6397,10.6397,10.6397,10.6397,10.6397,10.6397,10.6285,10.6015,10.5054,10.41,10.3405,10.2748,10.1861,10.1512,10.1279,10.1279,10.1279,10.1279,10.1279,10.1279,10.1279,10.1279,10.1279,10.1279,10.1279,10.1279,10.1279,10.1279,10.1279,10.1279,10.1279,9.6727,9.6727,9.6727,9.6727,9.6727,9.6727,9.6727,9.6727,9.6727,9.6727,9.6727,9.6727,9.6727,9.6727,9.6727,9.6738,9.6771,9.7277,9.7588,9.7964,9.8467,9.9273,9.999,10.0275,10.0625,10.1267,10.1279,10.1279,10.1279,10.1279,10.1279,10.1279,10.1279,10.1279,10.1279,10.1279,10.1279,10.1279,10.1279,10.1279,10.1279,10.1279,10.1279,10.1279,10.1279,10.1279,10.1279,10.1279,10.1279,10.1279,10.1279,10.1279,10.1279,10.1279,10.1279,10.1279,10.1279,10.1279,10.1556,10.1953,10.2503,10.2929,10.3583,10.4294,10.4918,10.5882,10.6397,10.6282,10.6321,10.6397,10.6397,10.6397,10.6397,10.6397,10.6397,10.6397,10.6397,10.6397,10.6397,10.6397,10.6397,10.6397,10.6397,10.6397,10.6397,10.6397,10.6397,10.6397,10.6397,10.6397,10.6323,10.6169,10.5482,10.4523,10.3753,10.3097,10.2287,10.1666,10.1397,10.1279,10.1279,10.1279,10.1279,10.1279,10.1279,10.1279,10.1279,10.1279,10.1279,10.1279,10.1279,10.1279,10.1279,10.1279,10.1279,9.6727,9.6727,9.6727,9.6727,9.6727,9.6727,9.6727,9.6727,9.6727,9.6727,9.6727,9.6727,9.6727,9.6727,9.6727,9.6727,9.6736,9.6762,9.7169,9.7586,9.7972,9.8716,9.9411,9.9965,10.0339,10.1003,10.1096,10.1141,10.1272,10.1255,10.1267,10.1279,10.1279,10.1279,10.1279,10.1279,10.1279,10.1279,10.1279,10.1279,10.1279,10.1279,10.1279,10.1279,10.1279,10.1279,10.1279,10.1279,10.1279,10.1279,10.1279,10.1279,10.1279,10.1279,10.1279,10.1279,10.1279,10.1279,10.1479,10.2188,10.2645,10.3082,10.3992,10.5077,10.5331,10.5962,10.6321,10.6397,10.6397,10.6397,10.6397,10.6397,10.6397,10.6397,10.6397,10.6397,10.6397,10.6397,10.6397,10.6397,10.6397,10.6397,10.6397,10.6397,10.6397,10.6397,10.6397,10.6397,10.6397,10.6397,10.6397,10.6208,10.5638,10.4833,10.3984,10.3251,10.2556,10.1822,10.1356,10.1279,10.1279,10.1279,10.1279,10.1279,10.1279,10.1279,10.1279,10.1279,10.1279,10.1279,10.1279,10.1279,10.1279,10.1279,10.1279,9.6727,9.6727,9.6727,9.6727,9.6727,9.6727,9.6727,9.6727,9.6727,9.6727,9.6727,9.6727,9.6727,9.6727,9.6727,9.6727,9.6727,9.6727,9.6915,9.6999,9.7272,9.778,9.8489,9.8931,9.9066,9.9889,10.0328,10.0619,10.0617,10.0935,10.1247,10.1279,10.1174,10.1279,10.1279,10.1279,10.1279,10.1279,10.1279,10.1279,10.1279,10.1279,10.1279,10.1279,10.1279,10.1279,10.1279,10.1279,10.1279,10.1279,10.1279,10.1279,10.1279,10.1279,10.1279,10.1279,10.1279,10.1279,10.1597,10.2583,10.3783,10.4902,10.5579,10.5844,10.5803,10.6238,10.6359,10.6397,10.6397,10.6397,10.6397,10.6397,10.6397,10.6397,10.6397,10.6397,10.6397,10.6397,10.6397,10.6397,10.6397,10.6397,10.6397,10.6397,10.6397,10.6397,10.6397,10.6397,10.6397,10.6397,10.6397,10.6397,10.5903,10.5023,10.4138,10.3446,10.2828,10.2053,10.1279,10.1279,10.1279,10.1279,10.1279,10.1279,10.1279,10.1279,10.1279,10.1279,10.1279,10.1279,10.1279,10.1279,10.1279,10.1279,10.1279,9.6727,9.6727,9.6727,9.6727,9.6727,9.6727,9.6727,9.6727,9.6727,9.6727,9.6727,9.6727,9.6727,9.6727,9.6727,9.6727,9.6727,9.6727,9.6727,9.6757,9.6839,9.7146,9.7564,9.7984,9.8444,9.8982,9.9428,9.9857,9.9876,10.0363,10.0412,10.0522,10.0857,10.0985,10.1279,10.1279,10.1279,10.1279,10.1279,10.1279,10.1279,10.1279,10.1279,10.1279,10.1279,10.1279,10.1279,10.1279,10.1279,10.1279,10.1279,10.1279,10.1279,10.1279,10.1279,10.1279,10.1279,10.1279,10.1755,10.2924,10.463,10.5787,10.6167,10.6321,10.6397,10.6397,10.6397,10.6397,10.6397,10.6397,10.6397,10.6397,10.6397,10.6397,10.6397,10.6397,10.6397,10.6397,10.6397,10.6397,10.6397,10.6397,10.6397,10.6397,10.6397,10.6397,10.6397,10.6397,10.6397,10.6397,10.6397,10.6397,10.6285,10.529,10.4215,10.3715,10.3135,10.1861,10.1279,10.1279,10.1279,10.1279,10.1279,10.1279,10.1279,10.1279,10.1279,10.1279,10.1279,10.1279,10.1279,10.1279,10.1279,10.1279,10.1279,9.6727,9.6727,9.6727,9.6727,9.6727,9.6727,9.6727,9.6727,9.6727,9.6727,9.6727,9.6727,9.6727,9.6727,9.6727,9.6727,9.6727,9.6727,9.6727,9.6727,9.6714,9.7183,9.7466,9.7754,9.7889,9.8757,9.9029,9.9032,9.9036,9.9363,9.9329,9.9529,10.0124,10.0675,10.1235,10.1279,10.1279,10.1279,10.1279,10.1279,10.1279,10.1279,10.1279,10.1279,10.1279,10.1279,10.1279,10.1279,10.1279,10.1279,10.1279,10.1279,10.1279,10.1279,10.1279,10.1279,10.1279,10.132,10.1515,10.3025,10.4638,10.6095,10.6397,10.6397,10.6397,10.6397,10.6397,10.6397,10.6397,10.6397,10.6397,10.6397,10.6397,10.6397,10.6397,10.6397,10.6397,10.6397,10.6397,10.6397,10.6397,10.6397,10.6397,10.6397,10.6397,10.6397,10.6397,10.6397,10.6397,10.6397,10.6397,10.6397,10.6359,10.5636,10.4677,10.4138,10.3366,10.2053,10.1279,10.1279,10.1279,10.1279,10.1279,10.1279,10.1279,10.1279,10.1279,10.1279,10.1279,10.1279,10.1279,10.1279,10.1279,10.1279,10.1279,9.6727,9.6727,9.6727,9.6727,9.6727,9.6727,9.6727,9.6727,9.6727,9.6727,9.6727,9.6727,9.6727,9.6727,9.6727,9.6727,9.6727,9.6727,9.6727,9.6727,9.6727,9.6796,9.7059,9.7192,9.73,9.7554,9.7847,9.8228,9.8232,9.8541,9.8927,9.921,9.9614,10.0574,10.1103,10.1279,10.1279,10.1279,10.1279,10.1279,10.1279,10.1279,10.1279,10.1279,10.1279,10.1279,10.1279,10.1279,10.1279,10.1279,10.1279,10.1279,10.1279,10.1279,10.1279,10.1279,10.132,10.1914,10.2616,10.3853,10.4674,10.5785,10.6397,10.6397,10.6397,10.6397,10.6397,10.6397,10.6397,10.6397,10.6397,10.6397,10.6397,10.6397,10.6397,10.6397,10.6397,10.6397,10.6397,10.6397,10.6397,10.6397,10.6397,10.6397,10.6397,10.6397,10.6397,10.6397,10.6397,10.6397,10.6397,10.6397,10.6285,10.5713,10.51,10.4369,10.3607,10.2417,10.1637,10.1279,10.1279,10.1279,10.1279,10.1279,10.1279,10.1279,10.1279,10.1279,10.1279,10.1279,10.1279,10.1279,10.1279,10.1279,10.1279,9.6727,9.6727,9.6727,9.6727,9.6727,9.6727,9.6727,9.6727,9.6727,9.6727,9.6727,9.6727,9.6727,9.6727,9.6727,9.6727,9.6727,9.6727,9.6727,9.6727,9.6727,9.6743,9.6733,9.6727,9.6834,9.6863,9.7096,9.7413,9.7422,9.7931,9.8264,9.8579,9.9122,9.9586,10.0298,10.0806,10.1279,10.1279,10.1279,10.1279,10.1279,10.1279,10.1279,10.1279,10.1279,10.1279,10.1279,10.1279,10.1279,10.1279,10.1279,10.1279,10.1279,10.1279,10.1279,10.1279,10.1399,10.2191,10.3331,10.3814,10.4753,10.6169,10.6359,10.6397,10.6397,10.6397,10.6397,10.6397,10.6397,10.6397,10.6397,10.6397,10.6397,10.6397,10.6397,10.6397,10.6397,10.6397,10.6397,10.6397,10.6397,10.6397,10.6397,10.6397,10.6397,10.6397,10.6397,10.6397,10.6397,10.6397,10.6397,10.6397,10.6282,10.5826,10.5177,10.441,10.3612,10.2739,10.2032,10.1358,10.1279,10.1279,10.1279,10.1279,10.1279,10.1279,10.1279,10.1279,10.1279,10.1279,10.1279,10.1279,10.1279,10.1279,10.1279,9.6727,9.6727,9.6727,9.6727,9.6727,9.6727,9.6727,9.6727,9.6727,9.6727,9.6727,9.6727,9.6727,9.6727,9.6727,9.6727,9.6727,9.6727,9.6727,9.6727,9.6727,9.6727,9.6727,9.6727,9.6727,9.6727,9.6806,9.6948,9.6771,9.7036,9.7397,9.7711,9.8079,9.8606,9.937,10.0317,10.0951,10.1054,10.124,10.1257,10.1279,10.1279,10.1279,10.1279,10.1279,10.1279,10.1279,10.1279,10.1279,10.1279,10.1279,10.1279,10.1279,10.1279,10.1279,10.1279,10.1279,10.2311,10.3533,10.3855,10.4794,10.6092,10.6359,10.6397,10.6397,10.6397,10.6397,10.6397,10.6397,10.6397,10.6397,10.6397,10.6397,10.6397,10.6397,10.6397,10.6397,10.6397,10.6397,10.6397,10.6397,10.6397,10.6397,10.6397,10.6397,10.6397,10.6397,10.6397,10.6397,10.6397,10.6397,10.6397,10.6246,10.6015,10.5325,10.46,10.3874,10.3117,10.1989,10.1279,10.1279,10.1279,10.1279,10.1279,10.1279,10.1279,10.1279,10.1279,10.1279,10.1279,10.1279,10.1279,10.1279,10.1279,10.1279,9.6727,9.6727,9.6727,9.6727,9.6727,9.6727,9.6727,9.6727,9.6727,9.6727,9.6727,9.6727,9.6727,9.6727,9.6727,9.6727,9.6727,9.6727,9.6727,9.6727,9.6727,9.6727,9.6727,9.6727,9.6727,9.6727,9.6727,9.6727,9.6709,9.6727,9.6724,9.7009,9.7505,9.7885,9.8559,9.9702,10.0193,10.0695,10.0977,10.1245,10.1279,10.1279,10.1279,10.1279,10.1279,10.1279,10.1279,10.1279,10.1279,10.1279,10.1279,10.1279,10.1279,10.1279,10.1279,10.1279,10.1476,10.2032,10.3495,10.3896,10.4636,10.5977,10.6359,10.6397,10.6397,10.6397,10.6397,10.6397,10.6397,10.6397,10.6397,10.6397,10.6397,10.6397,10.6397,10.6397,10.6397,10.6397,10.6397,10.6397,10.6397,10.6397,10.6397,10.6397,10.6397,10.6397,10.6397,10.6397,10.6397,10.6397,10.6397,10.6397,10.6321,10.6131,10.5595,10.4905,10.4215,10.3448,10.2248,10.1356,10.1279,10.1279,10.1279,10.1279,10.1279,10.1279,10.1279,10.1279,10.1279,10.1279,10.1279,10.1279,10.1279,10.1279,10.1279,9.6727,9.6727,9.6727,9.6727,9.6727,9.6727,9.6727,9.6727,9.6727,9.6727,9.6727,9.6727,9.6727,9.6727,9.6727,9.6727,9.6727,9.6727,9.6727,9.6727,9.6727,9.6727,9.6727,9.6727,9.6727,9.6727,9.6727,9.6727,9.6727,9.6727,9.6714,9.6786,9.7218,9.7317,9.7748,9.8528,9.9329,9.996,10.0573,10.1124,10.1279,10.1279,10.1279,10.1279,10.1279,10.1279,10.1279,10.1279,10.1279,10.1279,10.1279,10.1279,10.1279,10.1279,10.1279,10.1356,10.1784,10.2503,10.3654,10.4293,10.5112,10.5941,10.6397,10.6397,10.6397,10.6397,10.6397,10.6397,10.6397,10.6397,10.6397,10.6397,10.6397,10.6397,10.6397,10.6397,10.6397,10.6397,10.6397,10.6397,10.6397,10.6397,10.6397,10.6397,10.6397,10.6397,10.6397,10.6397,10.6397,10.6397,10.6397,10.6397,10.6397,10.6282,10.5746,10.5133,10.4292,10.3407,10.2248,10.1512,10.1394,10.1279,10.1279,10.1279,10.1279,10.1279,10.1279,10.1279,10.1279,10.1279,10.1279,10.1279,10.1279,10.1279,10.1279,9.6727,9.6727,9.6727,9.6759,9.6791,9.6764,9.6759,9.6754,9.6759,9.6727,9.6727,9.6727,9.6727,9.6727,9.6727,9.6727,9.6727,9.6727,9.6727,9.6727,9.6727,9.6727,9.6727,9.6727,9.6727,9.6727,9.6727,9.6727,9.6727,9.6727,9.6727,9.6727,9.6776,9.6863,9.7054,9.7732,9.8547,9.9386,10.0322,10.1083,10.1242,10.1279,10.1279,10.1279,10.1279,10.1279,10.1279,10.1279,10.1279,10.1279,10.1279,10.1279,10.1279,10.1279,10.1279,10.1551,10.2015,10.2883,10.3757,10.4483,10.5389,10.6026,10.6397,10.6397,10.6397,10.6397,10.6397,10.6397,10.6397,10.6397,10.6397,10.6397,10.6397,10.6397,10.6397,10.6397,10.6397,10.6397,10.6397,10.6397,10.6397,10.6397,10.6397,10.6397,10.6397,10.6397,10.6397,10.6397,10.6397,10.6397,10.6397,10.6397,10.6397,10.6321,10.5938,10.5249,10.4289,10.3289,10.2207,10.1589,10.1356,10.1279,10.1279,10.1279,10.1279,10.1279,10.1279,10.1279,10.1279,10.1279,10.1279,10.1279,10.1279,10.1279,10.1279,9.6727,9.6727,9.6727,9.7057,9.7493,9.6942,9.7057,9.7534,9.6942,9.6722,9.6727,9.6727,9.6727,9.6727,9.6727,9.6727,9.6727,9.6727,9.6727,9.6727,9.6727,9.6727,9.6727,9.6727,9.6727,9.6727,9.6727,9.6727,9.6727,9.6727,9.6727,9.6727,9.6727,9.6727,9.6732,9.741,9.8112,9.9009,9.9823,10.0798,10.1245,10.1279,10.1279,10.1279,10.1279,10.1279,10.1279,10.1279,10.1279,10.1279,10.1279,10.1279,10.1279,10.1279,10.1279,10.1435,10.2169,10.3068,10.3889,10.4707,10.5618,10.6102,10.6397,10.6397,10.6397,10.6397,10.6397,10.6397,10.6397,10.6397,10.6397,10.6397,10.6397,10.6397,10.6397,10.6397,10.6397,10.6397,10.6397,10.6397,10.6397,10.6397,10.6397,10.6397,10.6397,10.6397,10.6397,10.6397,10.6397,10.6397,10.6397,10.6397,10.6397,10.6244,10.5977,10.5249,10.4212,10.3328,10.2323,10.1743,10.1317,10.1279,10.1279,10.1279,10.1279,10.1279,10.1279,10.1279,10.1279,10.1279,10.1279,10.1279,10.1279,10.1279,10.1279,9.6727,9.6727,9.6727,9.7167,9.7723,9.7388,9.7498,9.776,9.7424,9.7016,9.6722,9.6727,9.6727,9.6727,9.6727,9.6727,9.6727,9.6727,9.6727,9.6727,9.6727,9.6727,9.6727,9.6727,9.6727,9.6727,9.6727,9.6727,9.6727,9.6727,9.6727,9.6727,9.6727,9.6727,9.6768,9.7216,9.7915,9.8983,9.9452,10.0203,10.1052,10.1272,10.1279,10.1279,10.1279,10.1279,10.1279,10.1279,10.1279,10.1279,10.1279,10.1279,10.1279,10.1279,10.1279,10.1669,10.2402,10.3407,10.4066,10.4915,10.5802,10.621,10.6397,10.6397,10.6397,10.6397,10.6397,10.6397,10.6397,10.6397,10.6397,10.6397,10.6397,10.6397,10.6397,10.6397,10.6397,10.6397,10.6397,10.6397,10.6397,10.6397,10.6397,10.6397,10.6397,10.6397,10.6397,10.6397,10.6397,10.6397,10.6397,10.6397,10.6397,10.6359,10.6205,10.5284,10.4059,10.3171,10.2402,10.1782,10.1279,10.1279,10.1279,10.1279,10.1279,10.1279,10.1279,10.1279,10.1279,10.1279,10.1279,10.1279,10.1279,10.1279,10.1279,9.6727,9.6727,9.6727,9.7236,9.7975,9.7943,9.8053,9.8237,9.8122,9.7603,9.6984,9.6942,9.6827,9.6722,9.6727,9.6727,9.6727,9.6727,9.6727,9.6727,9.6727,9.6727,9.6727,9.6727,9.6727,9.6727,9.6727,9.6727,9.6727,9.6727,9.6727,9.6727,9.6727,9.6727,9.6727,9.6881,9.741,9.8364,9.9052,9.9735,10.0522,10.1259,10.1274,10.1279,10.1279,10.1279,10.1279,10.1279,10.1279,10.1279,10.1279,10.1279,10.1279,10.1279,10.1279,10.1669,10.2866,10.3558,10.4215,10.5369,10.5979,10.6397,10.6397,10.6397,10.6397,10.6397,10.6397,10.6397,10.6397,10.6397,10.6397,10.6397,10.6397,10.6397,10.6397,10.6397,10.6397,10.6397,10.6397,10.6397,10.6397,10.6397,10.6397,10.6397,10.6397,10.6397,10.6397,10.6397,10.6397,10.6397,10.6397,10.6397,10.6397,10.6359,10.6359,10.5208,10.3905,10.3328,10.2594,10.182,10.1279,10.1279,10.1279,10.1279,10.1279,10.1279,10.1279,10.1279,10.1279,10.1279,10.1279,10.1279,10.1279,10.1279,10.1279,9.6727,9.6727,9.6727,9.7525,9.8668,9.8195,9.8641,9.9627,9.9103,9.8411,9.7755,9.7608,9.7388,9.6727,9.6727,9.6727,9.6727,9.6727,9.6727,9.6727,9.6727,9.6727,9.6727,9.6727,9.6727,9.6727,9.6727,9.6727,9.6727,9.6727,9.6727,9.6727,9.6727,9.6727,9.6727,9.6867,9.7169,9.7964,9.837,9.8915,10.0215,10.0855,10.125,10.1279,10.1279,10.1279,10.1279,10.1279,10.1279,10.1279,10.1279,10.1279,10.1279,10.1317,10.1358,10.1861,10.3058,10.3756,10.4525,10.5597,10.6249,10.6397,10.6397,10.6397,10.6397,10.6397,10.6397,10.6397,10.6397,10.6397,10.6397,10.6397,10.6397,10.6397,10.6397,10.6397,10.6397,10.6397,10.6397,10.6397,10.6397,10.6397,10.6397,10.6397,10.6397,10.6397,10.6397,10.6397,10.6397,10.6397,10.6397,10.6397,10.6397,10.6397,10.6321,10.4979,10.3789,10.3328,10.271,10.1782,10.1279,10.1279,10.1279,10.1279,10.1279,10.1279,10.1279,10.1279,10.1279,10.1279,10.1279,10.1279,10.1279,10.1356,10.1392]},{"header":{"parameterUnit":"m.s-1","parameterCategory":1,"la1":31.0,"la2":29.5877,"lo1":-88.7671,"lo2":-86.6584,"dx":0.0162,"dy":0.0185,"nx":115,"ny":88,"refTime":"2022-11-09T18:00:00:Z","depth":0,"parameterNumber":3,"parameterNumberName":"V-component_of_WINDS"},"data":[0.0,0.0,0.0,0.0,0.0,0.0,0.0,0.0,0.0,0.0,0.0,0.0,0.0,0.0,0.0,0.0,0.0,0.0,0.0,0.0,0.0,0.0,0.0,0.0,0.0,0.0,0.0,0.0,0.0,0.0,0.0,0.0,0.0,0.0,0.0,0.0,0.0,0.0,0.0,0.0,0.0,0.0,0.0,0.0,0.0,0.0,0.0,0.0,0.0,0.0,0.0,0.0,0.0,0.0,0.0,0.0,0.0,0.0,0.0,0.0,0.0,0.0,0.0,0.0,0.0,0.0,0.0,0.0,0.0,0.0,0.0,0.0,0.0,0.0,0.0,0.0,0.0,0.0,0.0,0.0,0.0,0.0,0.0,0.0,0.0,0.0,0.0,0.0,0.0,0.0,0.0,0.0,0.0,0.0,0.0,0.0,0.0,0.0,0.0,0.0,0.0,0.0,0.0,0.0,0.0,0.0,0.0,0.0,0.0,0.0,0.0,0.0,0.0,0.0,0.0,0.0,0.0,0.0,0.0,0.0,0.0,0.0,0.0,0.0,0.0,0.0,0.0,0.0,0.0,0.0,0.0,0.0,0.0,0.0,0.0,0.0,0.0,0.0,0.0,0.0,0.0,0.0,0.0,0.0,0.0,0.0,0.0,0.0,0.0,0.0,0.0,0.0,0.0,0.0,0.0,0.0,0.0,0.0,0.0,0.0,0.0,0.0,0.0,0.0,0.0,0.0,0.0,0.0,0.0,0.0,0.0,0.0,0.0,0.0,0.0,0.0,0.0,0.0,0.0,0.0,0.0,0.0,0.0,0.0,0.0,0.0,0.0,0.0,0.0,0.0,0.0,0.0,0.0,0.0,0.0,0.0,0.0,0.0,0.0,0.0,0.0,0.0,0.0,0.0,0.0,0.0,0.0,0.0,0.0,0.0,0.0,0.0,0.0,0.0,0.0,0.0,0.0,0.0,0.0,0.0,0.0,0.0,0.0,0.0,0.0,0.0,0.0,0.0,0.0,0.0,0.0,0.0,0.0,0.0,0.0,0.0,0.0,0.0,0.0,0.0,0.0,0.0,0.0,0.0,0.0,0.0,0.0,0.0,0.0,0.0,0.0,0.0,0.0,0.0,0.0,0.0,0.0,0.0,0.0,0.0,0.0,0.0,0.0,0.0,0.0,0.0,0.0,0.0,0.0,0.0,0.0,0.0,0.0,0.0,0.0,0.0,0.0,0.0,0.0,0.0,0.0,0.0,0.0,0.0,0.0,0.0,0.0,0.0,0.0,0.0,0.0,0.0,0.0,0.0,0.0,0.0,0.0,0.0,0.0,0.0,0.0,0.0,0.0,0.0,0.0,0.0,0.0,0.0,0.0,0.0,0.0,0.0,0.0,0.0,0.0,0.0,0.0,0.0,0.0,0.0,0.0,0.0,0.0,0.0,0.0,0.0,0.0,0.0,0.0,0.0,0.0,0.0,0.0,0.0,0.0,0.0,0.0,0.0,0.0,0.0,0.0,0.0,0.0,0.0,0.0,0.0,0.0,0.0,0.0,0.0,0.0,0.0,0.0,0.0,0.0,0.0,0.0,0.0,0.0,0.0,0.0,0.0,0.0,0.0,0.0,0.0,0.0,0.0,0.0,0.0,0.0,0.0,0.0,0.0,0.0,0.0,0.0,0.0,0.0,0.0,0.0,0.0,0.0,0.0,0.0,0.0,0.0,0.0,0.0,0.0,0.0,0.0,0.0,0.0,0.0,0.0,0.0,0.0,0.0,0.0,0.0,0.0,0.0,0.0,0.0,0.0,0.0,0.0,0.0,0.0,0.0,0.0,0.0,0.0,0.0,0.0,0.0,0.0,0.0,0.0,0.0,0.0,0.0,0.0,0.0,0.0,0.0,0.0,0.0,0.0,0.0,0.0,0.0,0.0,0.0,0.0,0.0,0.0,0.0,0.0,0.0,0.0,0.0,0.0,0.0,0.0,0.0,0.0,0.0,0.0,0.0,0.0,0.0,0.0,0.0,0.0,0.0,0.0,0.0,0.0,0.0,0.0,0.0,0.0,0.0,0.0,0.0,0.0,0.0,0.0,0.0,0.0,0.0,0.0,0.0,0.0,0.0,0.0,0.0,0.0,0.0,0.0,0.0,0.0,0.0,0.0,0.0,0.0,0.0,0.0,0.0,0.0,0.0,0.0,0.0,0.0,0.0,0.0,0.0,0.0,0.0,0.0,0.0,0.0,0.0,0.0,0.0,0.0,0.0,0.0,0.0,0.0,0.0,0.0,0.0,0.0,0.0,0.0,0.0,0.0,0.0,0.0,0.0,0.0,0.0,0.0,0.0,0.0,0.0,0.0,0.0,0.0,0.0,0.0,0.0,0.0,0.0,0.0,0.0,0.0,0.0,0.0,0.0,0.0,0.0,0.0,0.0,0.0,0.0,0.0,0.0,0.0,0.0,0.0,0.0,0.0,0.0,0.0,0.0,0.0,0.0,0.0,0.0,0.0,0.0,0.0,0.0,0.0,0.0,0.0,0.0,0.0,0.0,0.0,0.0,0.0,0.0,0.0,0.0,0.0,0.0,0.0,0.0,0.0,0.0,0.0,0.0,0.0,0.0,0.0,0.0,0.0,0.0,0.0,0.0,0.0,0.0,0.0,0.0,0.0,0.0,0.0,0.0,0.0,0.0,0.0,0.0,0.0,0.0,0.0,0.0,0.0,0.0,0.0,0.0,0.0,0.0,0.0,0.0,0.0,0.0,0.0,0.0,0.0,0.0,0.0,0.0,0.0,0.0,0.0,0.0,0.0,0.0,0.0,0.0,0.0,0.0,0.0,0.0,0.0,0.0,0.0,0.0,0.0,0.0,0.0,0.0,0.0,0.0,0.0,0.0,0.0,0.0,0.0,0.0,0.0,0.0,0.0,0.0,0.0,0.0,0.0,0.0,0.0,0.0,0.0,0.0,0.0,0.0,0.0,0.0,0.0,0.0,0.0,0.0,0.0,0.0,0.0,0.0,0.0,0.0,0.0,0.0,0.0,0.0,0.0,0.0,0.0,0.0,0.0,0.0,0.0,0.0,0.0,0.0,0.0,0.0,0.0,0.0,0.0,0.0,0.0,0.0,0.0,0.0,0.0,0.0,0.0,0.0,0.0,0.0,0.0,0.0,0.0,0.0,0.0,0.0,0.0,0.0,0.0,0.0,0.0,0.0,0.0,0.0,0.0,0.0,0.0,0.0,0.0,0.0,0.0,0.0,0.0,0.0,0.0,0.0,0.0,0.0,0.0,0.0,0.0,0.0,0.0,0.0,0.0,0.0,0.0,0.0,0.0,0.0,0.0,0.0,0.0,0.0,0.0,0.0,0.0,0.0,0.0,0.0,0.0,0.0,0.0,0.0,0.0,0.0,0.0,0.0,0.0,0.0,0.0,0.0,0.0,0.0,0.0,0.0,0.0,0.0,0.0,0.0,0.0,0.0,0.0,0.0,0.0,0.0,0.0,0.0,0.0,0.0,0.0,0.0,0.0,0.0,0.0,0.0,0.0,0.0,0.0,0.0,0.0,0.0,0.0,0.0,0.0,0.0,0.0,0.0,0.0,0.0,0.0,0.0,0.0,0.0,0.0,0.0,0.0,0.0,0.0,0.0,0.0,0.0,0.0,0.0,0.0,0.0,0.0,0.0,0.0,0.0,0.0,0.0,0.0,0.0,0.0,0.0,0.0,0.0,0.0,0.0,0.0,0.0,0.0,0.0,0.0,0.0,0.0,0.0,0.0,0.0,0.0,0.0,0.0,0.0,0.0,0.0,0.0,0.0,0.0,0.0,0.0,0.0,0.0,0.0,0.0,0.0,0.0,0.0,0.0,0.0,0.0,0.0,0.0,0.0,0.0,0.0,0.0,0.0,0.0,0.0,0.0,0.0,0.0,0.0,0.0,0.0,0.0,0.0,0.0,0.0,0.0,0.0,0.0,0.0,0.0,0.0,0.0,0.0,0.0,0.0,0.0,0.0,0.0,0.0,0.0,0.0,0.0,0.0,0.0,0.0,0.0,0.0,0.0,0.0,0.0,0.0,0.0,0.0,0.0,0.0,0.0,0.0,0.0,0.0,0.0,0.0,0.0,0.0,0.0,0.0,0.0,0.0,0.0,0.0,0.0,0.0,0.0,0.0,0.0,0.0,0.0,0.0,0.0,0.0,0.0,0.0,0.0,0.0,0.0,0.0,0.0,0.0,0.0,0.0,0.0,0.0,0.0,0.0,0.0,0.0,0.0,0.0,0.0,0.0,0.0,0.0,0.0,0.0,0.0,0.0,0.0,0.0,0.0,0.0,0.0,0.0,0.0,0.0,0.0,0.0,0.0,0.0,0.0,0.0,0.0,0.0,0.0,0.0,0.0,0.0,0.0,0.0,0.0,0.0,0.0,0.0,0.0,0.0,0.0,0.0,0.0,0.0,0.0,0.0,0.0,0.0,0.0,0.0,0.0,0.0,0.0,0.0,0.0,0.0,0.0,0.0,0.0,0.0,0.0,0.0,0.0,0.0,0.0,0.0,0.0,0.0,0.0,0.0,0.0,0.0,0.0,0.0,0.0,0.0,0.0,0.0,0.0,0.0,0.0,0.0,0.0,0.0,0.0,0.0,0.0,0.0,0.0,0.0,0.0,0.0,0.0,0.0,0.0,0.0,0.0,0.0,0.0,0.0,0.0,0.0,0.0,0.0,0.0,0.0,0.0,0.0,0.0,0.0,0.0,0.0,0.0,0.0,0.0,0.0,0.0,0.0,0.0,0.0,0.0,0.0,0.0,0.0,0.0,0.0,0.0,0.0,0.0,0.0,0.0,0.0,0.0,0.0,0.0,0.0,0.0,0.0,0.0,0.0,0.0,0.0,0.0,0.0,0.0,0.0,0.0,0.0,0.0,0.0,0.0,0.0,0.0,0.0,0.0,0.0,0.0,0.0,0.0,0.0,0.0,0.0,0.0,0.0,0.0,0.0,0.0,0.0,0.0,0.0,0.0,0.0,0.0,0.0,0.0,0.0,0.0,0.0,0.0,0.0,0.0,0.0,0.0,0.0,0.0,0.0,0.0,0.0,0.0,0.0,0.0,0.0,0.0,0.0,0.0,0.0,0.0,0.0,0.0,0.0,0.0,0.0,0.0,0.0,0.0,0.0,0.0,0.0,0.0,0.0,0.0,0.0,0.0,0.0,0.0,0.0,0.0,0.0,0.0,0.0,0.0,0.0,0.0,0.0,0.0,0.0,0.0,0.0,0.0,0.0,0.0,0.0,0.0,0.0,0.0,0.0,0.0,0.0,0.0,0.0,0.0,0.0,0.0,0.0,0.0,0.0,0.0,0.0,0.0,0.0,0.0,0.0,0.0,0.0,0.0,0.0,0.0,0.0,0.0,0.0,0.0,0.0,0.0,0.0,0.0,0.0,0.0,0.0,0.0,0.0,0.0,0.0,0.0,0.0,0.0,0.0,0.0,0.0,0.0,0.0,0.0,0.0,0.0,0.0,0.0,0.0,0.0,0.0,0.0,0.0,0.0,0.0,0.0,0.0,0.0,0.0,0.0,0.0,0.0,0.0,0.0,0.0,0.0,0.0,0.0,0.0,0.0,0.0,0.0,0.0,0.0,0.0,0.0,0.0,0.0,0.0,0.0,0.0,0.0,0.0,0.0,0.0,0.0,0.0,0.0,0.0,0.0,0.0,0.0,0.0,0.0,0.0,0.0,0.0,0.0,0.0,0.0,0.0,0.0,0.0,0.0,0.0,0.0,0.0,0.0,0.0,0.0,0.0,0.0,0.0,0.0,0.0,0.0,0.0,0.0,0.0,0.0,0.0,0.0,0.0,0.0,0.0,0.0,0.0,0.0,0.0,0.0,0.0,0.0,0.0,0.0,0.0,0.0,0.0,0.0,0.0,0.0,0.0,0.0,0.0,0.0,0.0,0.0,0.0,0.0,0.0,0.0,0.0,0.0,0.0,0.0,0.0,0.0,0.0,0.0,0.0,0.0,0.0,0.0,0.0,0.0,0.0,0.0,0.0,0.0,0.0,0.0,0.0,0.0,0.0,0.0,0.0,0.0,0.0,0.0,0.0,0.0,0.0,0.0,0.0,0.0,0.0,0.0,0.0,0.0,0.0,0.0,0.0,0.0,0.0,0.0,0.0,0.0,0.0,0.0,0.0,0.0,0.0,0.0,0.0,0.0,0.0,0.0,0.0,0.0,0.0,0.0,0.0,0.0,0.0,0.0,0.0,0.0,0.0,0.0,0.0,0.0,0.0,0.0,0.0,0.0,0.0,0.0,0.0,0.0,0.0,0.0,0.0,0.0,0.0,0.0,0.0,0.0,0.0,0.0,0.0,0.0,0.0,0.0,0.0,0.0,0.0,0.0,0.0,0.0,0.0,0.0,0.0,0.0,0.0,0.0,0.0,0.0,0.0,0.0,0.0,0.0,0.0,0.0,0.0,0.0,0.0,0.0,0.0,0.0,0.0,0.0,0.0,0.0,0.0,0.0,0.0,0.0,0.0,0.0,0.0,0.0,0.0,0.0,0.0,0.0,0.0,0.0,0.0,0.0,0.0,0.0,0.0,0.0,0.0,0.0,0.0,0.0,0.0,0.0,0.0,0.0,0.0,0.0,0.0,0.0,0.0,0.0,0.0,0.0,0.0,0.0,0.0,0.0,0.0,0.0,0.0,0.0,0.0,0.0,0.0,0.0,0.0,0.0,0.0,0.0,0.0,0.0,0.0,0.0,0.0,0.0,0.0,0.0,0.0,0.0,0.0,0.0,0.0,0.0,0.0,0.0,0.0,0.0,0.0,0.0,0.0,0.0,0.0,0.0,0.0,0.0,0.0,0.0,0.0,0.0,0.0,0.0,0.0,0.0,0.0,0.0,0.0,0.0,0.0,0.0,0.0,0.0,0.0,0.0,0.0,0.0,0.0,0.0,0.0,0.0,0.0,0.0,0.0,0.0,0.0,0.0,0.0,0.0,0.0,0.0,0.0,0.0,0.0,0.0,0.0,0.0,0.0,0.0,0.0,0.0,0.0,0.0,0.0,0.0,0.0,0.0,0.0,0.0,0.0,0.0,0.0,0.0,0.0,0.0,0.0,0.0,0.0,0.0,0.0,0.0,0.0,0.0,0.0,0.0,0.0,0.0,0.0,0.0,0.0,0.0,0.0,0.0,0.0,0.0,0.0,0.0,0.0,0.0,0.0,0.0,0.0,0.0,0.0,0.0,0.0,0.0,0.0,0.0,0.0,0.0,0.0,0.0,0.0,0.0,0.0,0.0,0.0,0.0,0.0,0.0,0.0,0.0,0.0,0.0,0.0,0.0,0.0,0.0,0.0,0.0,0.0,0.0,0.0,0.0,0.0,0.0,0.0,0.0,0.0,0.0,0.0,0.0,0.0,0.0,0.0,0.0,0.0,0.0,0.0,0.0,0.0,0.0,0.0,0.0,0.0,0.0,0.0,0.0,0.0,0.0,0.0,0.0,0.0,0.0,0.0,0.0,0.0,0.0,0.0,0.0,0.0,0.0,0.0,0.0,0.0,0.0,0.0,0.0,0.0,0.0,0.0,0.0,0.0,0.0,0.0,0.0,0.0,0.0,0.0,0.0,0.0,0.0,0.0,0.0,0.0,0.0,0.0,0.0,0.0,0.0,0.0,0.0,0.0,0.0,0.0,0.0,0.0,0.0,0.0,0.0,0.0,0.0,0.0,0.0,0.0,0.0,0.0,0.0,0.0,0.0,0.0,0.0,0.0,0.0,0.0,0.0,0.0,0.0,0.0,0.0,0.0,0.0,0.0,0.0,0.0,0.0568,0.0194,0.0,0.0,0.0,0.0,0.0,0.0,0.0,0.0,0.0,0.0,0.0,0.0,0.0,0.0,0.0,0.0,0.0,0.0,0.0,0.0,0.0,0.0,0.0,0.0,0.0,0.0,0.0,0.0,0.0,0.0,0.0,0.0,0.0,0.0,0.0,0.0,0.0,0.0,0.0,0.0,0.0,0.0,0.0,0.0,0.0,0.0,0.0,0.0,0.0,0.0,0.0,0.0,0.0,0.0,0.0,0.0,0.0,0.0,0.0,0.0,0.0,0.0,0.0,0.0,0.0,0.0,0.0,0.0,0.0,0.0,0.0,0.0,0.0,0.0,0.0,0.0,0.0,0.0,0.0,0.0,0.0,0.0,0.0,0.0,0.0,0.0,0.0,0.0,0.0,0.0,0.0,0.0,0.0,0.0,0.0,0.0,0.0,0.0,0.0,0.0,0.0,0.0,0.0,0.0,0.0,0.0,0.0,0.0,0.0,0.0,0.0,0.0,0.0,0.1226,0.0832,0.0533,0.0323,0.0307,0.0193,0.0,0.0,0.0,0.0,0.0,0.0,0.0,0.0,0.0,0.0,0.0,0.0,0.0,0.0,0.0,0.0,0.0,0.0,0.0,0.0,0.0,0.0,0.0,0.0,0.0,0.0,0.0,0.0,0.0,0.0,0.0,0.0,0.0,0.0,0.0,0.0,0.0,0.0,0.0,0.0,0.0,0.0,0.0,0.0,0.0,0.0,0.0,0.0,0.0,0.0,0.0,0.0,0.0,0.0,0.0,0.0,0.0,0.0,0.0,0.0,0.0,0.0,0.0,0.0,0.0,0.0,0.0,0.0,0.0,0.0,0.0,0.0,0.0,0.0,0.0,0.0,0.0,0.0,0.0,0.0,0.0,0.0,0.0,0.0,0.0,0.0,0.0,0.0,0.0,0.0,0.0,0.0,0.0,0.0,0.0,0.0,0.0,0.0,0.0,0.0,0.0,0.0,0.0,0.0,0.0,0.0,0.0,0.0,0.2493,0.1958,0.1928,0.1635,0.1031,0.0958,0.0649,0.0,0.0,0.0,0.0,0.0,0.0,0.0,0.0,0.0,0.0,0.0,0.0,0.0,0.0,0.0,0.0,0.0,0.0,0.0,0.0,0.0,0.0,0.0,0.0,0.0,0.0,0.0,0.0,0.0,0.0,0.0,0.0,0.0,0.0,0.0,0.0,0.0,0.0,0.0,0.0,0.0,0.0,0.0,0.0,0.0,0.0,0.0,0.0,0.0,0.0,0.0,0.0,0.0,0.0,0.0,0.0,0.0,0.0,0.0,0.0,0.0,0.0,0.0,0.0,0.0,0.0,0.0,0.0,0.0,0.0,0.0,0.0,0.0,0.0,0.0,0.0,0.0,0.0,0.0,0.0,0.0,0.0,0.0,0.0,0.0,0.0,0.0,0.0,0.0,0.0,0.0,0.0,0.0,0.0,0.0,0.0,0.0,0.0,0.0,0.0,0.0,0.0,0.0,0.0,0.0,0.0,0.0,0.0,0.0,0.3453,0.3193,0.2795,0.219,0.1833,0.1535,0.0,0.0,0.0,0.0,0.0,0.0,0.0,0.0,0.0,0.0,0.0,0.0,0.0,0.0,0.0,0.0,0.0,0.0,0.0,0.0,0.0,0.0,0.0,0.0,0.0,0.0,0.0,0.0,0.0,0.0,0.0,0.0,0.0,0.0,0.0,0.0,0.0,0.0,0.0,0.0,0.0,0.0,0.0,0.0,0.0,0.0,0.0,0.0,0.0,0.0,0.0,0.0,0.0,0.0,0.0,0.0,0.0,0.0,0.0,0.0,0.0,0.0,0.0,0.0,0.0,0.0,0.0,0.0,0.0,0.0,0.0,0.0,0.0,0.0,0.0,0.0,0.0,0.0,0.0,0.0,0.0,0.0,0.0,0.0,0.0,0.0,0.0,0.0,0.0,0.0,0.0,0.0,0.0,0.0,0.0,0.0,0.0,0.0,0.0,0.0,0.0,0.0,0.0,0.0,0.0,0.0,0.0,0.0,0.0,0.5944,0.5266,0.4638,0.3975,0.3627,0.3023,0.2125,0.0,0.0,0.0,0.0,0.0,0.0,0.0,0.0,0.0,0.0,0.0,0.0,0.0,0.0,0.0,0.0,0.0,0.0,0.0,0.0,0.0,0.0,0.0,0.0,0.0,0.0,0.0,0.0,0.0,0.0,0.0,0.0,0.0,0.0,0.0,0.0,0.0,0.0,0.0,0.0,0.0,0.0,0.0,0.0,0.0,0.0,0.0,0.0,0.0,0.0,0.0,0.0,0.0,0.0,0.0,0.0,0.0,0.0,0.0,0.0,0.0,0.0,0.0,0.0,0.0,0.0,0.0,0.0,0.0,0.0,0.0,0.0,0.0,0.0,0.0,0.0,0.0,0.0,0.0,0.0,0.0,0.0,0.0,0.0,0.0,0.0,0.0,0.0,0.0,0.0,0.0,0.0,0.0,0.0,0.0,0.0,0.0,0.0,0.0,0.0,0.0,0.0,0.0,0.0,0.0,0.0,0.0,0.0,0.9102,0.8037,0.7099,0.6316,0.6097,0.5012,0.0,0.0,0.0,0.0,0.0,0.0,0.0,0.0,0.0,0.0,0.0,0.0,0.0,0.0,0.0,0.0,0.0,0.0,0.0,0.0,0.0,0.0,0.0,0.0,0.0,0.0,0.0,0.0,0.0,0.0,0.0,0.0,0.0,0.0,0.0,0.0,0.0,0.0,0.0,0.0,0.0,0.0,0.0,0.0,0.0,0.0,0.0,0.0,0.0,0.0,0.0,0.0,0.0,0.0,0.0,0.0,0.0,0.0,0.0,0.0,0.0,0.0,0.0,0.0,0.0,0.0,0.0,0.0,0.0,0.0,0.0,0.0,0.0,0.0,0.0,0.0,0.0,0.0,0.0,0.0,0.0,0.0,0.0,0.0,0.0,0.0,0.0,0.0,0.0,0.0,0.0,0.0,0.0,0.0,0.0,0.0,0.0,0.0,0.0,0.0,0.0,0.0,0.0,0.0,0.0,0.0,0.0,0.0,0.0,1.1315,1.1038,1.015,0.8654,0.7815,0.6758,0.0,0.0,0.0,0.0,0.0,0.0,0.0,0.0,0.0,0.0,0.0,0.0,0.0,0.0,0.0,0.0,0.0,0.0,0.0,0.0,0.0,0.0,0.0,0.0,0.0,0.0,0.0,0.0,0.0,0.0,0.0,0.0,0.0,0.0,0.0,0.0,0.0,0.0,0.0,0.0,0.0,0.0,0.0,0.0,0.0,0.0,0.0,0.0,0.0,0.0,0.0,0.0,0.0,0.0,0.0,0.0,0.0,0.0,0.0,0.0,0.0,0.0,0.0,0.0,0.0,0.0,0.0,0.0,0.0,0.0,0.0,0.0,0.0,0.0,0.0,0.0,0.0,0.0,0.0,0.0,0.0,0.0,0.0,0.0,0.0,0.0,0.0,0.0,0.0,0.0,0.0,0.0,0.0,0.0,0.0,0.0,0.0,0.0,0.0,0.0,0.0,0.0,0.0,0.0,0.0,0.0,0.0,0.0,1.2091,1.2372,1.264,1.2272,1.1166,0.9724,0.8398,0.0,0.0,0.0,0.0,0.0,0.0,0.0,0.0,0.0,0.0,0.0,0.0,0.0,0.0,0.0,0.0,0.0,0.0,0.0,0.0,0.0,0.0,0.0,0.0,0.0,0.0,0.0,0.0,0.0,0.0,0.0,0.0,0.0,0.0,0.0,0.0,0.0,0.0,0.0,0.0,0.0,0.0,0.0,0.0,0.0,0.0,0.0,0.0,0.0,0.0,0.0,0.0,0.0,0.0,0.0,0.0,0.0,0.0,0.0,0.0,0.0,0.0,0.0,0.0,0.0,0.0,0.0,0.0,0.0,0.0,0.0,0.0,0.0,0.0,0.0,0.0,0.0,0.0,0.0,0.0,0.0,0.0,0.0,0.0,0.0,0.0,0.0,0.0,0.0,0.0,0.0,0.0,0.0,0.0,0.0,0.0,0.0,0.0,0.0,0.0,0.0,0.0,0.0,0.0,0.0,0.0,0.0,0.0,1.2971,1.2732,1.3313,1.3555,1.3389,1.1579,0.9927,0.0,0.0,0.0,0.0,0.0,0.0,0.0,0.0,0.0,0.0,0.0,0.0,0.0,0.0,0.0,0.0,0.0,0.0,0.0,0.0,0.0,0.0,0.0,0.0,0.0,0.0,0.0,0.0,0.0,0.0,0.0,0.0,0.0,0.0,0.0,0.0,0.0,0.0,0.0,0.0,0.0,0.0,0.0,0.0,0.0,0.0,0.0,0.0,0.0,0.0,0.0,0.0,0.0,0.0,0.0,0.0,0.0,0.0,0.0,0.0,0.0,0.0,0.0,0.0,0.0,0.0,0.0,0.0,0.0,0.0,0.0,0.0,0.0,0.0,0.0,0.0,0.0,0.0,0.0,0.0,0.0,0.0,0.0,0.0,0.0,0.0,0.0,0.0,0.0,0.0,0.0,0.0,0.0,0.0,0.0,0.0,0.0,0.0,0.0,0.0,0.0,0.0,0.0,0.0,0.0,0.0,0.0,0.0,1.32,1.3523,1.3699,1.3745,1.3711,1.2477,1.1286,0.0,0.0,0.0,0.0,0.0,0.0,0.0,0.0,0.0,0.0,0.0,0.0,0.0,0.0,0.0,0.0,0.0,0.0,0.0,0.0,0.0,0.0,0.0,0.0,0.0,0.0,0.0,0.0,0.0,0.0,0.0,0.0,0.0,0.0,0.0,0.0,0.0,0.0,0.0,0.0,0.0,0.0,0.0,0.0,0.0,0.0,0.0,0.0,0.0,0.0,0.0,0.0,0.0,0.0,0.0,0.0,0.0,0.0,0.0,0.0,0.0,0.0,0.0,0.0,0.0,0.0,0.0,0.0,0.0,0.0,0.0,0.0,0.0,0.0,0.0,0.0,0.0,0.0,0.0,0.0,0.0,0.0,0.0,0.0,0.0,0.0,0.0,0.0,0.0,0.0,0.0,0.0,0.0,0.0,0.0,0.0,0.0,0.0,0.0,0.0,0.0,0.0,0.0,0.0,0.0,0.0,0.0,0.0,1.3526,1.4023,1.404,1.3976,1.3788,1.3126,1.2259,0.0,0.0,0.0,0.0,0.0,0.0,0.0,0.0,0.0,0.0,0.0,0.0,0.0,0.0,0.0,0.0,0.0,0.0,0.0,0.0,0.0,0.0,0.0,0.0,0.0,0.0,0.0,0.0,0.0,0.0,0.0,0.0,0.0,0.0,0.0,0.0,0.0,0.0,0.0,0.0,0.0,0.0,0.0,0.0,0.0,0.0,0.0,0.0,0.0,0.0,0.0,0.0,0.0,0.0,0.0,0.0,0.0,0.0,0.0,0.0,0.0,0.0,0.0,0.0,0.0,0.0,0.0,0.0,0.0,0.0,0.0,0.0,0.0,0.0,0.0,0.0,0.0,0.0,0.0,0.0,0.0,0.0,0.0,0.0,0.0,0.0,0.0,0.0,0.0,0.0,0.0,0.0,0.0,0.0,0.0,0.0,0.0,0.0,0.0,0.0,0.0,0.0,0.0,0.0,0.0,0.0,0.0,1.3291,1.387,1.434,1.4378,1.422,1.3931,1.3651,1.3041,1.2022,0.0,0.0,0.0,0.0,0.0,0.0,0.0,0.0,0.0,0.0,0.0,0.0,0.0,0.0,0.0,0.0,0.0,0.0,0.0,0.0,0.0,0.0,0.0,0.0,0.0,0.0,0.0,0.0,0.0,0.0,0.0,0.0,0.0,0.0,0.0,0.0,0.0,0.0,0.0,0.0,0.0,0.0,0.0,0.0,0.0,0.0,0.0,0.0,0.0,0.0,0.0,0.0,0.0,0.0,0.0,0.0,0.0,0.0,0.0,0.0,0.0,0.0,0.0,0.0,0.0,0.0,0.0,0.0,0.0,0.0,0.0,0.0,0.0,0.0,0.0,0.0,0.0,0.0,0.0,0.0,0.0,0.0,0.0,0.0,0.0,0.0,0.0,0.0,0.0,0.0,0.0,0.0,0.0,0.0,0.0,0.0,0.0,0.0,0.0,0.0,0.0,0.0,0.0,0.0,0.0,1.3061,1.3532,1.4056,1.4606,1.4631,1.4561,1.4378,1.4127,1.3614,1.2818,0.0,0.0,0.0,0.0,0.0,0.0,0.0,0.0,0.0,0.0,0.0,0.0,0.0,0.0,0.0,0.0,0.0,0.0,0.0,0.0,0.0,0.0,0.0,0.0,0.0,0.0,0.0,0.0,0.0,0.0,0.0,0.0,0.0,0.0,0.0,0.0,0.0,0.0,0.0,0.0,0.0,0.0,0.0,0.0,0.0,0.0,0.0,0.0,0.0,0.0,0.0,0.0,0.0,0.0,0.0,0.0,0.0,0.0,0.0,0.0,0.0,0.0,0.0,0.0,0.0,0.0,0.0,0.0,0.0,0.0,0.0,0.0,0.0,0.0,0.0,0.0,0.0,0.0,0.0,0.0,0.0,0.0,0.0,0.0,0.0,0.0,0.0,0.0,0.0,0.0,0.0,0.0,0.0,0.0,0.0,0.0,0.0,0.0,0.0,0.0,0.0,0.0,0.0,0.0,0.0,1.3295,1.3938,1.4489,1.4938,1.4896,1.4833,1.4758,1.4339,1.3777,0.0,0.0,0.0,0.0,0.0,0.0,0.0,0.0,0.0,0.0,0.0,0.0,0.0,0.0,0.0,0.0,0.0,0.0,0.0,0.0,0.0,0.0,0.0,0.0,0.0,0.0,0.0,0.0,0.0,0.0,0.0,0.0,0.0,0.0,0.0,0.0,0.0,0.0,0.0,0.0,0.0,0.0,0.0,0.0,0.0,0.0,0.0,0.0,0.0,0.0,0.0,0.0,0.0,0.0,0.0,0.0,0.0,0.0,0.0,0.0,0.0,0.0,0.0,0.0,0.0,0.0,0.0,0.0,0.0,0.0,0.0,0.0,0.0,0.0,0.0,0.0,0.0,0.0,0.0,0.0,0.0,0.0,0.0,0.0,0.0,0.0,0.0,0.0,0.0,0.0,0.0,0.0,0.0,0.0,0.0,0.0,0.0,0.0,0.0,0.0,0.0,0.0,0.0,0.0,0.0,0.0,1.3492,1.4225,1.483,1.5224,1.5082,1.5021,1.5057,1.4486,1.3889,0.0,0.0,0.0,0.0,0.0,0.0,0.0,0.0,0.0,0.0,0.0,0.0,0.0,0.0,0.0,0.0,0.0,0.0,0.0,0.0,0.0,0.0,0.0,0.0,0.0,0.0,0.0,0.0,0.0,0.0,0.0,0.0,0.0,0.0,0.0,0.0,0.0,0.0,0.0,0.0,0.0,0.0,0.0,0.0,0.0,0.0,0.0,0.0,0.0,0.0,0.0,0.0,0.0,0.0,0.0,0.0,0.0,0.0,0.0,0.0,0.0,0.0,0.0,0.0,0.0,0.0,0.0,0.0,0.0,0.0,0.0,0.0,0.0,0.0,0.0,0.0,0.0,0.0,0.0,0.0,0.0,0.0,0.0,0.0,0.0,0.0,0.0,0.0,0.0,0.0,0.0,0.0,0.0,0.0,0.0,0.0,0.0,0.0,0.0,0.0,0.0,0.0,0.0,0.0,0.0,0.0,1.3731,1.4145,1.4674,1.5318,1.5136,1.5104,1.5332,1.4774,1.4173,0.0,0.0,0.0,0.0,0.0,0.0,0.0,0.0,0.0,0.0,0.0,0.0,0.0,0.0,0.0,0.0,0.0,0.0,0.0,0.0,0.0,0.0,0.0,0.0,0.0,0.0,0.0,0.0,0.0,0.0,0.0,0.0,0.0,0.0,0.0,0.0,0.0,0.0,0.0,0.0,0.0,0.0,0.0,0.0,0.0,0.0,0.0,0.0,0.0,0.0,0.0,0.0,0.0,0.0,0.0,0.0,0.0,0.0,0.0,0.0,0.0,0.0,0.0,0.0,0.0,0.0,0.0,0.0,0.0,0.0,0.0,0.0,0.0,0.0,0.0,0.0,0.0,0.0,0.0,0.0,0.0,0.0,0.0,0.0,0.0,0.0,0.0,0.0,0.0,0.0,0.0,0.0,0.0,0.0,0.0,0.0,0.0,0.0,0.0,0.0,0.0,0.0,0.0,0.0,0.0,1.3169,1.3949,1.4516,1.505,1.5489,1.5387,1.5433,1.568,1.4986,1.443,0.0,0.0,0.0,0.0,0.0,0.0,0.0,0.0,0.0,0.0,0.0,0.0,0.0,0.0,0.0,0.0,0.0,0.0,0.0,0.0,0.0,0.0,0.0,0.0,0.0,0.0,0.0,0.0,0.0,0.0,0.0,0.0,0.0,0.0,0.0,0.0,0.0,0.0,0.0,0.0,0.0,0.0,0.0,0.0,0.0,0.0,0.0,0.0,0.0,0.0,0.0,0.0,0.0,0.0,0.0,0.0,0.0,0.0,0.0,0.0,0.0,0.0,0.0,0.0,0.0,0.0,0.0,0.0,0.0,0.0,0.0,0.0,0.0,0.0,0.0,0.0,0.0,0.0,0.0,0.0,0.0,0.0,0.0,0.0,0.0,0.0,0.0,0.0,0.0,0.0,0.0,0.0,0.0,0.0,0.0,0.0,0.0,0.0,0.0,0.0,0.0,0.0,0.0,0.0,0.0,0.0,1.409,1.483,1.533,1.5604,1.5599,1.5677,1.5809,1.5169,0.0,0.0,0.0,0.0,0.0,0.0,0.0,0.0,0.0,0.0,0.0,0.0,0.0,0.0,0.0,0.0,0.0,0.0,0.0,0.0,0.0,0.0,0.0,0.0,0.0,0.0,0.0,0.0,0.0,0.0,0.0,0.0,0.0,0.0,0.0,0.0,0.0,0.0,0.0,0.0,0.0,0.0,0.0,0.0,0.0,0.0,0.0,0.0,0.0,0.0,0.0,0.0,0.0,0.0,0.0,0.0,0.0,0.0,0.0,0.0,0.0,0.0,0.0,0.0,0.0,0.0,0.0,0.0,0.0,0.0,0.0,0.0,0.0,0.0,0.0,0.0,0.0,0.0,0.0,0.0,0.0,0.0,0.0,0.0,0.0,0.0,0.0,0.0,0.0,0.0,0.0,0.0,0.0,0.0,0.0,0.0,0.0,0.0,0.0,0.0,0.0,0.0,0.0,0.0,0.0,0.0,1.3617,1.4097,1.483,1.5318,1.5573,1.5599,1.5593,1.5612,1.533,1.4833,0.0,0.0,0.0,0.0,0.0,0.0,0.0,0.0,0.0,0.0,0.0,0.0,0.0,0.0,0.0,0.0,0.0,0.0,0.0,0.0,0.0,0.0,0.0,0.0,0.0,0.0,0.0,0.0,0.0,0.0,0.0,0.0,0.0,0.0,0.0,0.0,0.0,0.0,0.0,0.0,0.0,0.0,0.0,0.0,0.0,0.0,0.0,0.0,0.0,0.0,0.0,0.0,0.0,0.0,0.0,0.0,0.0,0.0,0.0,0.0,0.0,0.0,0.0,0.0,0.0,0.0,0.0,0.0,0.0,0.0,0.0,0.0,0.0,0.0,0.0,0.0,0.0,0.0,0.0,0.0,0.0,0.0,0.0,0.0,0.0,0.0,0.0,0.0,0.0,0.0,0.0,0.0,0.0,0.0,0.0,0.0,0.0,0.0,0.0,0.0,0.0,0.0,0.0,0.0,0.0,1.3715,1.434,1.4991,1.5425,1.5611,1.5806,1.5913,1.5901,1.5521,1.5118,0.0,0.0,0.0,0.0,0.0,0.0,0.0,0.0,0.0,0.0,0.0,0.0,0.0,0.0,0.0,0.0,0.0,0.0,0.0,0.0,0.0,0.0,0.0,0.0,0.0,0.0,0.0,0.0,0.0,0.0,0.0,0.0,0.0,0.0,0.0,0.0,0.0,0.0,0.0,0.0,0.0,0.0,0.0,0.0,0.0,0.0,0.0,0.0,0.0,0.0,0.0,0.0,0.0,0.0,0.0,0.0,0.0,0.0,0.0,0.0,0.0,0.0,0.0,0.0,0.0,0.0,0.0,0.0,0.0,0.0,0.0,0.0,0.0,0.0,0.0,0.0,0.0,0.0,0.0,0.0,0.0,0.0,0.0,0.0,0.0,0.0,0.0,0.0,0.0,0.0,0.0,0.0,0.0,0.0,0.0,0.0,0.0,0.0,0.0,0.0,0.0,0.0,0.0,0.0,0.0,1.3966,1.4566,1.5215,1.5562,1.5599,1.5886,1.6013,1.5953,1.563,1.5323,0.0,0.0,0.0,0.0,0.0,0.0,0.0,0.0,0.0,0.0,0.0,0.0,0.0,0.0,0.0,0.0,0.0,0.0,0.0,0.0,0.0,0.0,0.0,0.0,0.0,0.0,0.0,0.0,0.0,0.0179,0.0636,0.0,0.0,0.0,0.0,0.0,0.0,0.0,0.0,0.0,0.0,0.0,0.0,0.0,0.0,0.0,0.0,0.0,0.0,0.0,0.0,0.0,0.0,0.0,0.0,0.0,0.0,0.0,0.0,0.0,0.0,0.0,0.0,0.0,0.0,0.0,0.0,0.0,0.0,0.0,0.0,0.0,0.0,0.0,0.0,0.0,0.0,0.0,0.0,0.8374,0.0,0.0,0.6153,0.0,0.0,0.0,0.0,0.0,0.0,0.0,0.0,0.0,0.0,0.0,0.0,0.0,0.0,0.0,0.0,0.0,0.0,0.0,0.0,0.0,0.0,1.4421,1.4706,1.5483,1.5795,1.5612,1.5797,1.5822,1.5614,1.5599,1.5413,1.5019,0.0,0.0,0.0,0.0,0.0,0.0,0.0,0.0,0.0,0.0,0.0,0.0,0.0,0.0,0.0,0.0,0.0,0.0,0.0,0.0,0.0,0.0,0.0,0.0,0.0,0.0,0.0,0.0,0.0616,0.0,0.0,0.0,0.0,0.0,0.0,0.0,0.0,0.0,0.0,0.0,0.0,0.0,0.0,0.0,0.0,0.0,0.0,0.0,0.0,0.0,0.0,0.0,0.0,0.0,0.0,0.0,0.0,0.0,0.0,0.0,0.0,0.0,0.0,0.0,0.0,0.0,0.0,0.0,0.0,0.0,0.0,0.0,0.0,0.0,0.0,0.0,0.0,1.014,0.9908,0.0,0.0,0.0,0.0,0.0,0.0,0.0,0.0,0.0,0.0,0.0,1.0786,1.1667,0.0,0.0,0.0,0.0,0.0,0.0,0.0,0.0,0.0,0.0,0.0,0.0,1.4532,1.5031,1.5479,1.5677,1.5593,1.579,1.5797,1.5606,1.5599,1.542,1.5007,0.0,0.0,0.0,0.0,0.0,0.0,0.0,0.0,0.0,0.0,0.0,0.0,0.0,0.0,0.0,0.0,0.0,0.0,0.0,0.0,0.0,0.0,0.0,0.0,0.0,0.1512,0.0,0.0,0.0,0.0,0.0,0.0,0.0,0.0,0.0,0.0,0.0,0.0,0.0,0.0,0.0,0.0,0.0,0.0,0.0,0.0,0.0,0.0,0.0,0.0,0.0,0.0,0.0,0.0,0.0,0.0,0.0,0.0,0.0,0.0,0.0,0.0,0.0,0.0,0.0,0.0,0.0,0.0,0.0,0.0,0.0,0.0,0.0,0.0,0.0,0.0,0.0,1.1177,1.0906,1.0792,0.0,0.0,0.0,0.0,0.0,0.0,0.0,0.0,1.0616,1.1508,1.2113,1.2755,1.3249,0.0,1.354,1.3319,0.0,0.0,0.0,0.0,0.0,0.0,0.0,0.0,1.4801,1.5204,1.5533,1.5726,1.577,1.5779,1.5725,1.5606,1.5599,1.5515,1.5318,1.49,1.4477,0.0,0.0,0.0,0.0,0.0,0.0,0.0,0.0,0.0,0.0,0.0,0.0,0.0,0.0,0.0,0.0,0.0,0.0,0.0,0.0,0.0,0.0,0.0,0.2952,0.0,0.0,0.0,0.0,0.0,0.0,0.0,0.0,0.0,0.0081,0.0,0.0,0.0,0.0,0.0,0.0,0.0,0.0,0.0,0.0,0.0,0.0,0.0,0.0,0.0,0.0,0.0,0.0,0.0,0.0,0.0,0.0,0.0,0.0,0.0,0.0,0.0,0.0,0.0,0.0,0.0,0.0,0.0,0.0,0.0,0.0,0.0,0.0,0.0,0.0,1.247,1.2098,0.0,1.1607,0.0,0.0,0.0,0.0,1.0169,1.1261,0.0,0.0,1.324,1.3817,1.3146,1.3905,1.4432,1.4665,1.431,1.4267,1.4457,1.3938,0.0,0.0,0.0,0.0,0.0,0.0,1.5192,1.5238,1.5658,1.5955,1.6067,1.5782,1.5612,1.5612,1.5624,1.571,1.5855,1.5338,1.5084,1.5175,1.407,0.0,0.0,0.0,0.0,0.0,0.0,0.0,0.0,0.0,0.0,0.0,0.0,0.0,0.0,0.0,0.0,0.0,0.0,0.0,0.0,0.5643,0.0,0.0,0.0,0.0,0.0,0.0,0.0,0.0,0.0,0.2125,0.0392,0.0,0.0,0.0,0.0,0.0,0.0,0.0,0.0,0.0,0.0,0.0,0.0,0.0,0.0,0.0,0.0,0.0,0.0,0.0,0.0,0.0,0.0,0.0,0.0,0.0,0.0,0.0,0.0,0.0,0.0,0.0,0.0,1.2956,0.0,0.0,0.0,0.0,1.2436,1.2685,1.3095,1.3125,1.3206,1.3289,1.3218,0.0,0.0,0.0,0.0,0.0,0.0,1.2622,1.2836,1.3545,1.3973,1.422,1.4464,1.4613,1.4706,1.4833,1.4932,1.4991,1.5022,1.4697,1.4051,0.0,0.0,0.0,0.0,1.5246,1.5607,1.5659,1.5743,1.5879,1.5841,1.5816,1.5816,1.5816,1.5836,1.5894,1.5738,1.5491,1.5214,1.4647,0.0,0.0,0.0,0.0,0.0,0.0,0.0,0.0,0.0,0.0,0.0,0.0,0.0,0.0,0.0,0.0,0.0,0.0,0.0,0.9952,1.078,1.02,0.0,0.0,0.0,0.0,0.0,0.0,0.0,0.0,0.0,0.2315,0.0866,0.0553,0.0,0.0,0.1681,0.0205,0.1264,0.169,0.0228,0.0,0.0,0.0,0.0,0.0,0.0,0.0,0.0,0.0,0.0,0.0,0.0,0.0,0.0,0.0,0.0,0.0,0.0,0.0,0.0,0.0,0.0,0.0,1.4129,1.3866,1.3441,1.3308,1.341,1.3406,1.3678,1.412,1.4109,1.4253,1.4466,1.4337,1.4084,1.3739,1.3621,0.0,0.0,0.0,1.383,1.4329,1.4362,1.4627,1.5027,1.5046,1.5103,1.5181,1.5192,1.5253,1.5352,1.5371,1.5167,1.4749,0.0,0.0,1.5075,1.5124,1.5296,1.5554,1.5581,1.5702,1.5927,1.5906,1.5928,1.5977,1.5935,1.5928,1.5977,1.5935,1.5799,1.555,1.5081,1.4602,0.0,0.0,0.0,0.0,0.0,0.0,0.0,0.0,0.0,0.0,0.0,1.0101,1.0811,0.0,0.0,0.0,1.1906,1.1675,1.2198,1.3478,0.0,0.0,0.0,0.0,0.0,0.0,0.0,0.9294,0.8349,0.706,0.4933,0.2293,0.1506,0.398,0.5119,0.5272,0.4015,0.0,0.8162,0.6917,0.4828,0.3331,0.3197,0.3159,0.2502,0.0313,0.0,0.0,0.0,0.3272,0.6229,0.6182,0.4637,0.3179,0.316,0.3161,0.2354,0.0,0.0,0.0,0.0,0.0,0.0,1.5059,1.4985,1.4125,1.4042,1.4523,1.4507,1.4755,1.5172,1.517,1.5109,1.5019,1.5012,1.4758,1.4367,1.426,0.0,1.5021,1.4844,1.5039,1.5592,1.5467,1.5481,1.5599,1.5599,1.5698,1.5862,1.5449,1.5377,1.5592,1.5274,1.5199,1.5438,1.5445,1.5371,1.5258,1.5325,1.5342,1.5231,1.5481,1.5752,1.6077,1.5976,1.599,1.6088,1.5984,1.5977,1.6082,1.5984,1.5982,1.6077,1.5448,1.5107,1.5168,0.0,0.0,0.0,0.0,0.0,0.0,0.0,0.0,0.0,0.0,0.0,0.0,0.0,0.0,1.3877,1.3664,0.0,1.4244,1.4316,0.0,0.0,0.0,1.2368,1.3827,1.415,1.3606,1.1897,0.0,0.0,0.8204,0.4703,0.3503,0.6501,0.8817,1.0202,1.0219,1.3811,1.6931,1.6206,1.2406,0.9072,0.8771,0.8677,0.723,0.3095,0.1266,0.0,0.0,0.8936,1.5362,1.542,1.1928,0.8651,0.8647,0.8638,0.7141,0.2633,0.0,0.0,0.0,0.0,0.0,1.5455,1.5442,1.5213,1.4942,1.464,1.4651,1.4803,1.5039,1.4884,1.495,1.5143,1.5041,1.4993,1.4989,1.5063,1.5174,1.5291,1.5257,1.5355,1.5585,1.5455,1.5481,1.5599,1.5599,1.5619,1.5677,1.5714,1.5767,1.5829,1.5836,1.5828,1.5787,1.5787,1.5688,1.5515,1.5337,1.5335,1.5494,1.5571,1.5763,1.6091,1.607,1.6086,1.6101,1.6074,1.6067,1.6088,1.6061,1.6075,1.6081,1.5844,1.5537,1.521,1.458,0.0,0.0,0.0,0.0,0.0,0.0,0.0,0.0,0.0,1.2852,1.4206,0.0,1.4476,0.0,1.4577,1.4516,1.4315,1.4486,0.0,0.0,1.4311,1.4645,1.547,1.5594,1.5068,1.365,1.3421,1.3146,1.257,1.1023,1.0888,1.3363,1.4175,1.4583,1.4649,1.5455,1.6326,1.6209,1.5243,1.4569,1.4281,1.4293,1.3584,1.248,1.217,1.2269,1.2224,1.4201,1.6096,1.6082,1.5186,1.4215,1.4035,1.4166,1.3741,1.1981,0.5814,0.0,0.0,0.0,0.2432,1.5672,1.5593,1.5599,1.5397,1.5093,1.5093,1.5152,1.5262,1.5139,1.5211,1.5365,1.5228,1.5248,1.5379,1.5448,1.5535,1.5632,1.5688,1.5745,1.582,1.5738,1.5757,1.5826,1.5814,1.5826,1.5839,1.587,1.5901,1.5901,1.5817,1.5783,1.5769,1.5714,1.5695,1.5723,1.5506,1.5444,1.5561,1.5723,1.5907,1.6094,1.612,1.612,1.612,1.612,1.612,1.612,1.612,1.612,1.6097,1.5889,1.5646,1.539,1.4876,1.4446,0.0,0.0,0.0,0.0,0.0,0.0,0.0,0.0,0.0,0.0,0.0,1.5051,1.4938,1.5078,1.5044,1.4724,1.4954,1.5236,1.5559,1.5599,1.5742,1.6077,1.6123,1.582,1.5084,1.4986,1.4994,1.4985,1.4496,1.462,1.5952,1.611,1.6114,1.6109,1.6111,1.6112,1.6123,1.6325,1.6514,1.6514,1.6377,1.6246,1.6127,1.6121,1.6111,1.611,1.6193,1.629,1.6289,1.6277,1.629,1.6277,1.6277,1.6284,1.5499,1.1572,0.5956,0.11,0.3819,0.9394,1.581,1.5633,1.5665,1.5652,1.5593,1.5626,1.5633,1.5638,1.56,1.5599,1.5592,1.5475,1.5477,1.5593,1.5619,1.5737,1.5896,1.6025,1.6054,1.6041,1.6067,1.6067,1.6053,1.6087,1.612,1.6101,1.5972,1.593,1.5937,1.5649,1.5582,1.5692,1.5608,1.5688,1.5937,1.5792,1.5664,1.5614,1.5987,1.6161,1.6143,1.615,1.615,1.615,1.615,1.6143,1.6122,1.6122,1.6114,1.6098,1.5825,1.5621,1.5553,1.5059,1.4773,0.0,1.4412,0.0,0.0,0.0,0.0,0.0,0.0,0.0,0.0,1.5202,1.554,1.5282,1.5389,1.5406,1.5267,1.5505,1.5781,1.6081,1.6118,1.6115,1.6159,1.6123,1.6112,1.6109,1.612,1.612,1.6064,1.6121,1.6102,1.6112,1.6114,1.6054,1.6,1.6084,1.6174,1.6151,1.6351,1.6507,1.6514,1.6509,1.6413,1.6216,1.6183,1.6178,1.6247,1.6427,1.6568,1.6555,1.6516,1.6497,1.6504,1.6504,1.6504,1.6465,1.5903,1.2792,0.5919,0.9204,1.5686,1.5972,1.5862,1.5972,1.5859,1.5624,1.5764,1.5848,1.5829,1.5665,1.5599,1.5599,1.5511,1.5536,1.5612,1.5776,1.5862,1.5901,1.5935,1.5856,1.5694,1.5858,1.5856,1.57,1.5987,1.612,1.6108,1.6086,1.6128,1.6218,1.6171,1.6145,1.6185,1.6253,1.6267,1.6232,0.0,0.0,0.0,1.6432,1.6539,1.6429,1.643,1.6435,1.6423,1.6417,0.0,1.6273,1.6266,1.6201,1.6105,1.6035,0.0,0.0,0.0,0.0,0.0,0.0,0.0,0.0,0.0,0.0,0.0,1.576,1.5968,1.5145,1.5624,1.587,1.5566,1.5707,1.5727,1.5544,1.582,1.6038,1.6107,1.6111,1.6193,1.6391,1.6233,1.611,1.6108,1.612,1.6108,1.6109,1.6109,1.6112,1.6145,1.6115,1.5893,1.5479,1.6017,1.6415,1.6424,1.6473,1.6511,1.6504,1.6518,1.6512,1.6415,1.6415,1.6518,1.6749,1.6825,1.6895,1.6877,1.669,1.6518,1.6518,1.6504,1.6524,1.6511,1.6576,1.5916,1.3599,1.4539,1.6165,1.6116,1.5999,1.6061,1.6007,0.0,1.5958,1.6004,1.5991,1.5718,1.5599,1.5599,1.5563,1.5563,1.5612,1.5803,1.5901,1.5908,1.5964,1.5939,1.5866,1.5946,1.5939,1.5866,1.609,1.6198,1.6211,1.6266,1.6328,1.6383,1.6335,1.6301,1.6301,1.6369,1.6402,1.6409,1.6626,1.6626,1.6402,1.66,1.6647,1.6517,1.6504,1.6504,1.6504,1.6504,0.0,0.0,0.0,0.0,0.0,0.0,0.0,0.0,0.0,0.0,1.5298,1.5303,1.5303,1.5286,1.5372,1.5463,1.5634,1.5946,1.591,1.542,1.5837,1.6003,1.578,1.5892,1.5967,1.5869,1.5998,1.612,1.6108,1.6106,1.6152,1.6266,1.6306,1.6266,1.6218,1.6259,1.6275,1.6237,1.6164,1.6259,1.6476,1.6279,1.5999,1.5782,1.6271,1.6709,1.6528,1.6566,1.6606,1.6613,1.6707,1.6748,1.6735,1.6735,1.6812,1.6975,1.7,1.7,1.6987,1.6858,1.6748,1.6748,1.6735,1.6748,1.6748,1.6799,1.6786,1.6579,1.6543,1.6589,1.6204,1.6114,1.615,1.6169,1.6123,1.6178,1.6197,1.615,1.5821,0.0,0.0,1.568,1.5694,1.5727,1.5892,1.5984,1.6018,1.6116,1.6169,1.6136,1.6163,1.6156,1.6143,1.6273,1.6322,1.6341,1.6457,1.6512,1.6532,1.6417,1.6389,1.6416,1.6429,1.6484,1.662,1.6878,1.6891,1.6667,1.6709,1.6695,1.6592,1.6592,1.6592,1.6585,1.6592,1.6579,1.6526,1.6519,1.6426,1.617,1.615,1.6152,1.6169,1.5886,1.5731,1.5699,1.5719,1.5721,1.5721,1.565,1.5744,1.6072,1.5643,1.5444,1.559,1.5849,1.599,1.5928,1.6045,1.6108,1.612,1.612,1.6121,1.6117,1.6119,1.6108,1.6179,1.6355,1.645,1.6375,1.643,1.6478,1.6368,1.6253,1.6335,1.6717,1.6411,1.6133,1.6238,1.6616,1.6877,1.6689,1.6714,1.6762,1.677,1.6876,1.6998,1.6964,1.6978,1.7004,1.7004,1.7004,1.7004,1.7003,1.7004,1.6991,1.6998,1.6971,1.7004,1.7004,1.7004,1.7004,1.6997,1.6996,1.6973,1.614,1.6116,1.6341,1.6375,1.63,1.6512,1.6559,1.6423,1.6151,1.6046,1.6022,1.6034,1.6102,1.6206,1.6251,1.6313,1.6416,1.6436,1.6395,1.6286,1.6402,1.6382,1.6274,1.6409,1.6464,1.6471,1.6485,1.6566,1.6648,1.6648,1.6728,1.687,1.6903,1.6971,1.7087,1.7023,1.709,1.725,1.7059,1.6943,1.693,1.6943,1.6943,1.693,1.693,1.6856,1.6682,1.6682,1.6607,1.6452,1.6393,1.6382,1.6435,1.6338,1.622,1.6054,1.6144,1.6206,1.6187,1.5836,1.5743,1.6061,1.6018,1.5871,1.5615,1.5636,1.5786,1.6024,1.6075,1.612,1.612,1.6108,1.6112,1.6107,1.6117,1.6189,1.6403,1.647,1.6497,1.6477,1.6491,1.6444,1.6357,1.6385,1.6454,1.6507,1.6315,1.6195,1.6445,1.6753,1.6962,1.6955,1.6944,1.6964,1.6984,1.6978,1.7018,1.7004,1.6998,1.7012,1.7032,1.7032,1.7025,1.6998,1.7005,1.6998,1.6998,1.7004,1.7004,1.7004,1.7004,1.7004,1.7004,1.7002,1.7001,1.8536,1.8345,1.7066,1.6457,1.641,1.6558,1.6546,1.6485,1.6369,1.632,1.632,1.632,1.6348,1.6409,1.6397,1.6443,1.6504,1.6504,1.6477,1.6423,1.6477,1.6477,1.6442,1.6552,1.662,1.6614,1.6721,1.6796,1.685,1.6925,1.7012,1.7113,1.7188,1.7249,1.7304,1.7244,1.7264,1.7392,1.729,1.7209,1.7222,1.7222,1.7222,1.7222,1.7202,1.7175,1.7074,1.7006,1.6911,1.6775,1.6629,1.6636,1.6747,1.6632,1.6484,1.634,1.6375,1.6363,1.6301,1.5871,1.5737,1.6061,1.612,1.6096,1.6098,1.5953,1.5892,1.5985,1.6053,1.612,1.6108,1.6113,1.6119,1.6117,1.6394,1.6634,1.6702,1.6588,1.6504,1.6504,1.6504,1.6484,1.6435,1.6457,1.6515,1.6493,1.6277,1.6283,1.6696,1.7027,1.719,1.7113,1.7175,1.7216,1.7202,1.7216,1.7162,1.7029,1.6996,1.7069,1.7176,1.7229,1.7182,1.7127,1.7107,1.7073,1.7025,1.6991,1.7004,1.7004,1.7004,1.7004,1.7004,1.7004,1.7004,2.1159,2.0372,1.8368,1.7162,1.6619,1.6613,1.6613,1.6613,1.66,1.6613,1.6606,1.6545,1.6512,1.6533,1.6546,1.6579,1.6619,1.6613,1.6613,1.66,1.6613,1.66,1.6626,1.6722,1.6776,1.683,1.6984,1.7059,1.7093,1.7195,1.7243,1.7256,1.7385,1.7446,1.746,1.7487,1.7521,1.7521,1.7521,1.7473,1.7399,1.7392,1.7392,1.7392,1.7392,1.7392,1.7399,1.729,1.7169,1.7014,1.6852,1.6847,1.699,1.6839,1.6728,1.6625,1.66,1.6564,1.6467,1.6122,1.6022,1.6286,1.6312,1.6389,1.656,1.6425,1.6231,1.6084,1.6155,1.6191,1.613,1.6116,1.6158,1.6287,1.6714,1.6952,1.6979,1.6761,1.6554,1.6521,1.6507,1.6552,1.6518,1.6504,1.655,1.6591,1.6429,1.6549,1.7078,1.7387,1.7436,1.7357,1.7372,1.7385,1.7392,1.7379,1.7305,1.7116,1.7103,1.7224,1.7426,1.752,1.7439,1.731,1.7256,1.7222,1.7127,1.7107,1.7113,1.7107,1.7114,1.71,1.7021,1.7061,1.7093,2.297,2.0755,2.0514,1.9099,1.7029,1.6957,1.6937,1.695,1.6964,1.6951,1.6917,1.6646,1.6586,1.6675,1.6675,1.6789,1.6917,1.6964,1.6944,1.6931,1.6951,1.6951,1.6951,1.6958,1.7039,1.7134,1.7181,1.7236,1.7338,1.7358,1.7379,1.7406,1.7514,1.7602,1.7602,1.7751,1.7847,1.7861,1.7847,1.769,1.7419,1.7392,1.7392,1.7392,1.7399,1.7392,1.7412,1.7392,1.7257,1.7036,1.6996,1.6988,1.7008,1.6979,1.6964,1.6944,1.6944,1.6955,1.6928,1.6895,1.684,1.6922,1.6883,1.6896,1.6935,1.6924,1.6775,1.6519,1.6444,1.6341,1.6138,1.6126,1.6326,1.6775,1.6933,1.6996,1.6994,1.6984,1.6805,1.6436,1.6597,1.6654,1.6565,1.6533,1.6638,1.6981,1.695,1.7092,1.7594,1.7753,1.7757,1.7582,1.7494,1.7419,1.7419,1.7399,1.7419,1.7379,1.7379,1.7493,1.771,1.7791,1.7769,1.7507,1.7385,1.7372,1.7345,1.7365,1.7345,1.7304,1.7297,1.7291,1.7096,1.7197,1.7344,2.6802,2.5424,2.2331,1.947,1.7168,1.7004,1.7004,1.7004,1.7004,1.7039,1.7113,1.6971,1.689,1.6883,1.689,1.6924,1.7004,1.7004,1.7039,1.7113,1.7133,1.7154,1.7236,1.7229,1.7263,1.7311,1.7317,1.7331,1.7412,1.748,1.7582,1.7677,1.7751,1.7765,1.7779,1.786,1.7915,1.7915,1.7915,1.7826,1.7711,1.7697,1.7697,1.7697,1.7697,1.7697,1.7684,1.7589,1.7514,1.7507,1.7338,1.723,1.7244,1.7243,1.7202,1.7127,1.7039,1.7005,1.6992,1.7003,1.7001,1.6996,1.6999,1.6997,1.6997,1.6997,1.6938,1.6801,1.6619,1.644,1.6364,1.6335,1.6512,1.6897,1.7005,1.6996,1.6991,1.7002,1.696,1.6922,1.6796,1.6736,1.675,1.6628,1.6813,1.7336,1.7522,1.7634,1.7879,1.7915,1.7861,1.7806,1.7717,1.7704,1.7704,1.769,1.769,1.7697,1.7697,1.7793,1.7854,1.7923,1.7861,1.7718,1.7602,1.7487,1.7392,1.7392,1.7392,1.7419,1.7392,1.7365,1.7264,1.7473,1.7648,3.0193,2.8878,2.4413,2.132,1.9444,1.8597,1.8294,1.8156,1.7477,1.7175,1.7249,1.7256,1.7215,1.7107,1.71,1.7113,1.71,1.7113,1.7154,1.7249,1.7256,1.7297,1.7399,1.7392,1.7419,1.744,1.744,1.748,1.7534,1.7636,1.7758,1.7895,1.7915,1.7915,1.7915,1.7915,1.7915,1.7915,1.7915,1.7915,1.7915,1.7915,1.7915,1.7915,1.7915,1.7915,1.7888,1.7765,1.7752,1.7875,1.7677,1.7541,1.7541,1.7541,1.7473,1.7324,1.7276,1.7169,1.7023,1.7062,1.7067,1.7015,1.6993,1.7004,1.7004,1.7004,1.7004,1.6984,1.6775,1.6646,1.6621,1.6624,1.6757,1.6972,1.7003,1.6993,1.6993,1.7056,1.7182,1.7276,1.705,1.6871,1.6953,1.6883,1.7063,1.7707,1.788,1.7923,1.7916,1.7916,1.7908,1.7915,1.7901,1.7895,1.7915,1.7881,1.7915,1.7915,1.7881,1.7874,1.7915,1.7915,1.7908,1.7813,1.7724,1.7683,1.7629,1.7575,1.7534,1.7541,1.7534,1.7541,1.7534,1.7758,1.7861,3.2556,2.9891,2.7062,2.565,2.542,2.2663,2.1464,2.1075,1.8679,1.7453,1.7405,1.7385,1.7379,1.7385,1.7385,1.7372,1.7378,1.7365,1.7372,1.7399,1.7399,1.7385,1.7392,1.7392,1.7473,1.7602,1.7595,1.7697,1.7847,1.7867,1.7881,1.7915,1.7915,1.7915,1.7915,1.7915,1.7915,1.7915,1.7915,1.7915,1.7915,1.7915,1.7915,1.7915,1.7915,1.7915,1.7901,1.7881,1.7895,1.7922,1.7868,1.7882,1.7868,1.7873,1.7758,1.7629,1.7752,1.7574,1.7149,1.7217,1.7237,1.7053,1.7,1.7018,1.7086,1.7086,1.7093,1.7032,1.7039,1.7005,1.6985,1.6952,1.6952,1.6985,1.6994,1.6996,1.7049,1.7311,1.7364,1.7416,1.7336,1.7216,1.7069,1.721,1.7453,1.7793,1.7909,1.7909,1.7916,1.7908,1.7915,1.7915,1.7915,1.7915,1.7915,1.7915,1.7915,1.7915,1.7915,1.7915,1.7915,1.7915,1.7922,1.7915,1.7867,1.7847,1.7874,1.7867,1.784,1.7827,1.7813,1.7806,1.7758,1.7847,1.7916,3.2711,3.0159,2.9157,2.7723,2.6017,2.4936,2.3521,2.175,2.0714,1.9164,1.7731,1.7528,1.7589,1.7731,1.7718,1.7595,1.7406,1.7392,1.7446,1.7514,1.7541,1.7602,1.7711,1.7731,1.7738,1.7779,1.7785,1.7826,1.7895,1.7915,1.7915,1.7915,1.7915,1.7915,1.7915,1.7915,1.7915,1.7915,1.7915,1.7915,1.7915,1.7915,1.7915,1.7915,1.7915,1.7915,1.7915,1.7915,1.7915,1.7915,1.7909,1.7909,1.7923,1.7916,1.7895,1.7921,1.7915,1.7805,1.7585,1.7305,1.7097,1.7018,1.6999,1.7196,1.7487,1.7575,1.7589,1.7575,1.7561,1.7568,1.7494,1.7243,1.6995,1.7003,1.7009,1.7196,1.7521,1.7813,1.7964,1.7964,1.7929,1.7825,1.7641,1.7667,1.7763,1.7881,1.7916,1.7915,1.7915,1.7915,1.7915,1.7915,1.7915,1.7915,1.7915,1.7915,1.7915,1.7915,1.7915,1.7915,1.7915,1.7915,1.7915,1.7908,1.7915,1.7915,1.7895,1.7895,1.7915,1.7915,1.7915,1.7915,1.7915,1.7915,1.7915,3.3499,3.1949,3.1818,3.076,2.8898,2.6986,2.514,2.3121,2.1346,1.9456,1.7909,1.769,1.7772,1.7895,1.7915,1.7779,1.7561,1.7555,1.7623,1.7683,1.769,1.7786,1.7874,1.7915,1.7915,1.7901,1.7915,1.7915,1.7915,1.7915,1.7915,1.7915,1.7915,1.7915,1.7915,1.7915,1.7915,1.7915,1.7915,1.7915,1.7915,1.7915,1.7915,1.7915,1.7915,1.7915,1.7915,1.7915,1.7915,1.7915,1.7915,1.7915,1.7922,1.7942,1.7996,1.8098,1.8064,1.8086,1.8134,1.7796,1.7592,1.756,1.7403,1.752,1.7963,1.8018,1.7957,1.7861,1.7806,1.7799,1.7812,1.7527,1.725,1.7223,1.739,1.773,1.8122,1.8337,1.8378,1.8299,1.8269,1.8191,1.8066,1.7957,1.7911,1.7914,1.7914,1.7922,1.7915,1.7915,1.7915,1.7915,1.7915,1.7915,1.7915,1.7915,1.7915,1.7915,1.7915,1.7915,1.7915,1.7915,1.7915,1.7915,1.7915,1.7915,1.7915,1.7915,1.7915,1.7915,1.7915,1.7915,1.7915,1.7915,1.7915,3.5138,3.4927,3.5138,3.4755,3.3714,2.9337,2.6782,2.5723,2.118,1.9277,1.8584,1.8177,1.8219,1.7915,1.7915,1.7895,1.7854,1.7854,1.7861,1.7881,1.7888,1.7888,1.7915,1.7915,1.7915,1.7915,1.7915,1.7915,1.7915,1.7915,1.7915,1.7915,1.7915,1.7915,1.7915,1.7915,1.7915,1.7915,1.7915,1.7915,1.7915,1.7915,1.7915,1.7915,1.7915,1.7915,1.7915,1.7915,1.7915,1.7915,1.7915,1.7915,1.7922,1.8023,1.8091,1.8124,1.8212,1.8446,1.8684,1.8648,1.8549,1.844,1.8143,1.7908,1.8118,1.8213,1.8086,1.7827,1.7731,1.7744,1.7935,1.7932,1.7767,1.7532,1.8032,1.8489,1.8684,1.8776,1.8675,1.8412,1.8369,1.8314,1.8266,1.817,1.8033,1.7931,1.7913,1.7908,1.7908,1.7915,1.7915,1.7915,1.7915,1.7915,1.7915,1.7915,1.7915,1.7915,1.7915,1.7915,1.7915,1.7915,1.7915,1.7915,1.7915,1.7915,1.7915,1.7915,1.7915,1.7915,1.7915,1.7915,1.7915,1.7915,1.7915,3.5191,3.5191,3.5191,3.5191,3.5019,3.3195,3.1444,2.9473,2.7446,2.4621,2.1398,2.0858,1.9795,1.8219,1.7915,1.7915,1.7915,1.7915,1.7915,1.7915,1.7915,1.7915,1.7915,1.7915,1.7915,1.7915,1.7915,1.7915,1.7915,1.7915,1.7915,1.7915,1.7915,1.7915,1.7915,1.7915,1.7915,1.7915,1.7915,1.7915,1.7915,1.7915,1.7915,1.7915,1.7915,1.7915,1.7915,1.7915,1.7915,1.7915,1.7922,1.7907,1.7933,1.8035,1.8152,1.8226,1.8273,1.8322,1.8424,1.8467,1.8391,1.8212,1.8003,1.7947,1.8011,1.8038,1.8098,1.8156,1.8232,1.83,1.8464,1.8532,1.8289,1.7801,1.8005,1.8416,1.8728,1.8796,1.8749,1.867,1.8634,1.8636,1.8634,1.8516,1.8329,1.7991,1.7938,1.7913,1.7908,1.7908,1.7915,1.7915,1.7915,1.7915,1.7915,1.7915,1.7915,1.7915,1.7915,1.7915,1.7915,1.7915,1.7915,1.7915,1.7915,1.7915,1.7915,1.7915,1.7915,1.7915,1.7915,1.7915,1.7915,1.7915,1.7915,3.5191,3.5191,3.5191,3.5191,3.5019,3.4148,3.2625,3.0821,2.9712,2.7163,2.406,2.2611,2.1248,1.952,1.8419,1.7915,1.7915,1.7915,1.7915,1.7915,1.7915,1.7915,1.7915,1.7915,1.7915,1.7915,1.7915,1.7915,1.7915,1.7915,1.7915,1.7915,1.7915,1.7915,1.7915,1.7915,1.7915,1.7915,1.7915,1.7915,1.7915,1.7915,1.7915,1.7915,1.7915,1.7915,1.7915,1.7915,1.7915,1.7915,1.7915,1.7914,1.7912,1.7975,1.8064,1.8124,1.8152,1.8145,1.8166,1.8139,1.809,1.7931,1.7909,1.7915,1.7904,1.7908,1.8079,1.8352,1.8422,1.8524,1.8722,1.8799,1.8609,1.8304,1.8258,1.8402,1.8742,1.8806,1.8799,1.8771,1.8792,1.8801,1.8798,1.8781,1.8663,1.8295,1.8039,1.7916,1.792,1.7914,1.7922,1.7915,1.7915,1.7915,1.7915,1.7915,1.7915,1.7915,1.7915,1.7915,1.7915,1.7915,1.7915,1.7915,1.7915,1.7915,1.7915,1.7915,1.7915,1.7915,1.7915,1.7915,1.7915,1.7915,1.7915,3.5191,3.5191,3.5191,3.5191,3.4887,3.2679,3.1684,3.0886,2.8774,2.7486,2.6286,2.4005,2.2415,2.1535,1.9115,1.7915,1.7915,1.7915,1.7915,1.7915,1.7915,1.7915,1.7915,1.7915,1.7915,1.7915,1.7915,1.7915,1.7915,1.7915,1.7915,1.7915,1.7915,1.7915,1.7915,1.7915,1.7915,1.7915,1.7915,1.7915,1.7915,1.7915,1.7915,1.7915,1.7915,1.7915,1.7915,1.7915,1.7915,1.7915,1.7915,1.7908,1.7908,1.7922,1.7915,1.7928,1.7915,1.7935,1.7936,1.7956,1.7942,1.7922,1.7914,1.7929,1.7956,1.7989,1.8084,1.8313,1.8361,1.847,1.8723,1.8806,1.8763,1.8784,1.8699,1.8742,1.8784,1.8806,1.8806,1.8806,1.8806,1.8799,1.8793,1.8792,1.8781,1.867,1.8295,1.8103,1.7918,1.792,1.7908,1.7915,1.7915,1.7915,1.7915,1.7915,1.7915,1.7915,1.7915,1.7915,1.7915,1.7915,1.7915,1.7915,1.7915,1.7915,1.7915,1.7915,1.7915,1.7915,1.7915,1.7915,1.7915,1.7915,1.7915,3.5191,3.5191,3.5191,3.5191,3.5125,3.4293,3.4016,3.3976,3.3222,3.1404,2.9498,2.6664,2.41,2.2005,1.928,1.7915,1.7915,1.7915,1.7915,1.7915,1.7915,1.7915,1.7915,1.7915,1.7915,1.7915,1.7915,1.7915,1.7915,1.7915,1.7915,1.7915,1.7915,1.7915,1.7915,1.7915,1.7915,1.7915,1.7915,1.7915,1.7915,1.7915,1.7915,1.7915,1.7915,1.7915,1.7915,1.7915,1.7915,1.7915,1.7915,1.7915,1.7915,1.7915,1.7915,1.7915,1.7915,1.7915,1.7915,1.7915,1.7915,1.7915,1.7915,1.797,1.8197,1.8197,1.8277,1.8403,1.8449,1.8531,1.8737,1.8806,1.8806,1.8806,1.8806,1.8806,1.8806,1.8806,1.8806,1.8806,1.8806,1.8806,1.8792,1.8794,1.8798,1.876,1.8609,1.8318,1.804,1.7919,1.7914,1.7908,1.7915,1.7915,1.7915,1.7915,1.7915,1.7915,1.7915,1.7915,1.7915,1.7915,1.7915,1.7915,1.7915,1.7915,1.7915,1.7915,1.7915,1.7915,1.7915,1.7915,1.7915,1.7915,1.7915,3.5191,3.5191,3.5191,3.5191,3.5191,3.5191,3.5191,3.5191,3.5151,3.4346,3.2042,2.8239,2.5596,2.3701,1.9795,1.7957,1.7915,1.7915,1.7915,1.7915,1.7915,1.7915,1.7915,1.7915,1.7915,1.7915,1.7915,1.7915,1.7915,1.7915,1.7915,1.7915,1.7915,1.7915,1.7915,1.7915,1.7915,1.7915,1.7915,1.7915,1.7915,1.7915,1.7915,1.7915,1.7915,1.7915,1.7915,1.7915,1.7915,1.7915,1.7915,1.7915,1.7915,1.7915,1.7915,1.7915,1.7915,1.7915,1.7915,1.7915,1.7915,1.7915,1.7915,1.7977,1.8121,1.8225,1.8342,1.8316,1.8382,1.8497,1.864,1.875,1.8799,1.8806,1.8806,1.8806,1.8806,1.8806,1.8806,1.8806,1.8806,1.8806,1.8806,1.8806,1.8794,1.8799,1.879,1.8412,1.8044,1.7973,1.7914,1.7914,1.7908,1.7915,1.7915,1.7915,1.7915,1.7915,1.7915,1.7915,1.7915,1.7915,1.7915,1.7915,1.7915,1.7915,1.7915,1.7915,1.7915,1.7915,1.7915,1.7915,1.7915,1.7915,1.7915,3.5191,3.5191,3.5191,3.5191,3.5191,3.5191,3.5191,3.5191,3.5191,3.5111,3.3844,2.9324,2.7328,2.6573,2.1417,1.8509,1.8488,1.8164,1.7915,1.7915,1.7915,1.7915,1.7915,1.7915,1.7915,1.7915,1.7915,1.7915,1.7915,1.7915,1.7915,1.7915,1.7915,1.7915,1.7915,1.7915,1.7915,1.7915,1.7915,1.7915,1.7915,1.7915,1.7915,1.7915,1.7915,1.7915,1.7915,1.7915,1.7915,1.7915,1.7915,1.7915,1.7915,1.7915,1.7915,1.7915,1.7915,1.7915,1.7915,1.7915,1.7915,1.7915,1.7915,1.7922,1.7983,1.8115,1.8211,1.8214,1.8246,1.8422,1.8565,1.8723,1.8792,1.8806,1.8806,1.8806,1.8806,1.8806,1.8806,1.8806,1.8806,1.8806,1.8806,1.8806,1.8799,1.8795,1.8794,1.8585,1.823,1.8053,1.7967,1.7914,1.7914,1.7915,1.7915,1.7915,1.7915,1.7915,1.7915,1.7915,1.7915,1.7915,1.7915,1.7915,1.7915,1.7915,1.7915,1.7915,1.7915,1.7915,1.7915,1.7915,1.7915,1.7915,1.7915,3.5191,3.5191,3.5191,3.5191,3.5191,3.5191,3.5191,3.5191,3.5191,3.5191,3.4372,3.1391,2.9926,2.9511,2.4032,2.1275,2.068,1.9025,1.7915,1.7915,1.7915,1.7915,1.7915,1.7915,1.7915,1.7915,1.7915,1.7915,1.7915,1.7915,1.7915,1.7915,1.7915,1.7915,1.7915,1.7915,1.7915,1.7915,1.7915,1.7915,1.7915,1.7915,1.7915,1.7915,1.7915,1.7915,1.7915,1.7915,1.7915,1.7915,1.7915,1.7915,1.7915,1.7915,1.7915,1.7915,1.7915,1.7915,1.7915,1.7915,1.7915,1.7915,1.7908,1.7914,1.7918,1.796,1.809,1.8211,1.8388,1.8504,1.8688,1.8764,1.8799,1.8806,1.8806,1.8806,1.8806,1.8806,1.8806,1.8806,1.8806,1.8806,1.8806,1.8806,1.8799,1.88,1.8768,1.8717,1.8488,1.8197,1.8061,1.7981,1.7955,1.7956,1.7915,1.7915,1.7915,1.7915,1.7915,1.7915,1.7915,1.7915,1.7915,1.7915,1.7915,1.7915,1.7915,1.7915,1.7915,1.7915,1.7915,1.7915,1.7915,1.7915,1.7915,3.5191,3.5191,3.5191,3.5191,3.5191,3.5191,3.5191,3.5191,3.5191,3.5191,3.457,3.2175,3.0952,3.0566,2.634,2.3611,2.174,1.928,1.7915,1.7915,1.7915,1.7915,1.7915,1.7915,1.7915,1.7915,1.7915,1.7915,1.7915,1.7915,1.7915,1.7915,1.7915,1.7915,1.7915,1.7915,1.7915,1.7915,1.7915,1.7915,1.7915,1.7915,1.7915,1.7915,1.7915,1.7915,1.7915,1.7915,1.7915,1.7915,1.7915,1.7915,1.7915,1.7915,1.7915,1.7915,1.7915,1.7915,1.7915,1.7915,1.7915,1.7915,1.7915,1.7921,1.7906,1.7913,1.8015,1.8199,1.8363,1.8511,1.8757,1.8806,1.8806,1.8806,1.8806,1.8806,1.8806,1.8806,1.8806,1.8806,1.8806,1.8806,1.8806,1.8806,1.8806,1.8792,1.8792,1.8748,1.8761,1.8468,1.8197,1.8082,1.8022,1.7976,1.7929,1.7915,1.7915,1.7915,1.7915,1.7915,1.7915,1.7915,1.7915,1.7915,1.7915,1.7915,1.7915,1.7915,1.7915,1.7915,1.7915,1.7915,1.7915,1.7915,1.7915,3.5191,3.5191,3.5191,3.5191,3.5191,3.5191,3.5191,3.5191,3.5191,3.5191,3.4821,3.2507,3.1989,3.0966,2.8602,2.5474,2.2279,2.0152,1.8894,1.7929,1.7915,1.7915,1.7915,1.7915,1.7915,1.7915,1.7915,1.7915,1.7915,1.7915,1.7915,1.7915,1.7915,1.7915,1.7915,1.7915,1.7915,1.7915,1.7915,1.7915,1.7915,1.7915,1.7915,1.7915,1.7915,1.7915,1.7915,1.7915,1.7915,1.7915,1.7915,1.7915,1.7915,1.7915,1.7915,1.7915,1.7915,1.7915,1.7915,1.7915,1.7915,1.7915,1.7915,1.7915,1.7915,1.7935,1.801,1.8153,1.8309,1.8498,1.875,1.8806,1.8806,1.8806,1.8806,1.8806,1.8806,1.8806,1.8806,1.8806,1.8806,1.8806,1.8806,1.8806,1.8806,1.8806,1.8799,1.8801,1.8799,1.8726,1.8447,1.8184,1.8111,1.7989,1.7922,1.7915,1.7915,1.7915,1.7915,1.7915,1.7915,1.7915,1.7915,1.7915,1.7915,1.7915,1.7915,1.7915,1.7915,1.7915,1.7915,1.7915,1.7915,1.7915,1.7915,3.5191,3.5191,3.5191,3.5191,3.5191,3.5191,3.5191,3.5191,3.5191,3.5191,3.5085,3.4663,3.424,3.3605,3.1471,2.7351,2.3679,2.159,2.007,1.8488,1.8067,1.7915,1.7915,1.7915,1.7915,1.7915,1.7915,1.7915,1.7915,1.7915,1.7915,1.7915,1.7915,1.7915,1.7915,1.7915,1.7915,1.7915,1.7915,1.7915,1.7915,1.7915,1.7915,1.7915,1.7915,1.7915,1.7915,1.7915,1.7915,1.7915,1.7915,1.7915,1.7915,1.7915,1.7915,1.7915,1.7915,1.7915,1.7915,1.7915,1.7915,1.7915,1.7915,1.7908,1.7915,1.7936,1.8065,1.8215,1.8384,1.8558,1.8764,1.8806,1.8806,1.8806,1.8806,1.8806,1.8806,1.8806,1.8806,1.8806,1.8806,1.8806,1.8806,1.8806,1.8806,1.8806,1.8806,1.8799,1.8795,1.8751,1.8628,1.8392,1.8186,1.8043,1.7922,1.7915,1.7915,1.7915,1.7915,1.7915,1.7915,1.7915,1.7915,1.7915,1.7915,1.7915,1.7915,1.7915,1.7915,1.7915,1.7915,1.7915,1.7915,1.7915,1.7915,3.5191,3.5191,3.5191,3.5191,3.5191,3.5191,3.5191,3.5191,3.5191,3.5191,3.5191,3.5191,3.5191,3.4821,3.3962,3.0606,2.7055,2.3143,2.1562,2.0042,1.8736,1.7915,1.7915,1.7915,1.7915,1.7915,1.7915,1.7915,1.7915,1.7915,1.7915,1.7915,1.7915,1.7915,1.7915,1.7915,1.7915,1.7915,1.7915,1.7915,1.7915,1.7915,1.7915,1.7915,1.7915,1.7915,1.7915,1.7915,1.7915,1.7915,1.7915,1.7915,1.7915,1.7915,1.7915,1.7915,1.7915,1.7915,1.7915,1.7915,1.7915,1.7915,1.7915,1.7921,1.7941,1.8016,1.8182,1.8343,1.8534,1.8695,1.8799,1.8806,1.8806,1.8806,1.8806,1.8806,1.8806,1.8806,1.8806,1.8806,1.8806,1.8806,1.8806,1.8806,1.8806,1.8806,1.8806,1.8806,1.8806,1.8753,1.8709,1.8516,1.8289,1.8098,1.7962,1.7915,1.7922,1.7915,1.7915,1.7915,1.7915,1.7915,1.7915,1.7915,1.7915,1.7915,1.7915,1.7915,1.7915,1.7915,1.7915,1.7915,1.7915,1.7915,1.7915,3.5191,3.5191,3.5191,3.5191,3.5191,3.5191,3.5191,3.5191,3.5191,3.5191,3.5191,3.5191,3.5191,3.5164,3.4808,3.3407,3.0646,2.5772,2.3797,2.1603,2.0042,1.875,1.7984,1.7915,1.7915,1.7915,1.7915,1.7915,1.7915,1.7915,1.7915,1.7915,1.7915,1.7915,1.7915,1.7915,1.7915,1.7915,1.7915,1.7915,1.7915,1.7915,1.7915,1.7915,1.7915,1.7915,1.7915,1.7915,1.7915,1.7915,1.7915,1.7915,1.7915,1.7915,1.7915,1.7915,1.7915,1.7915,1.7915,1.7915,1.7915,1.7915,1.7915,1.7914,1.8014,1.818,1.8443,1.8533,1.866,1.8778,1.8806,1.8806,1.8806,1.8806,1.8806,1.8806,1.8806,1.8806,1.8806,1.8806,1.8806,1.8806,1.8806,1.8806,1.8806,1.8806,1.8806,1.8806,1.8806,1.8806,1.874,1.8598,1.8406,1.818,1.803,1.7942,1.7929,1.7915,1.7915,1.7915,1.7915,1.7915,1.7915,1.7915,1.7915,1.7915,1.7915,1.7915,1.7915,1.7915,1.7915,1.7915,1.7915,1.7915,1.7915,3.5191,3.5191,3.5191,3.5191,3.5191,3.5191,3.5191,3.5191,3.5191,3.5191,3.5191,3.5191,3.5191,3.5191,3.5191,3.3513,3.1352,2.962,2.6799,2.3633,2.2156,2.0419,1.8378,1.7929,1.8081,1.8012,1.7915,1.7915,1.7915,1.7915,1.7915,1.7915,1.7915,1.7915,1.7915,1.7915,1.7915,1.7915,1.7915,1.7915,1.7915,1.7915,1.7915,1.7915,1.7915,1.7915,1.7915,1.7915,1.7915,1.7915,1.7915,1.7915,1.7915,1.7915,1.7915,1.7915,1.7915,1.7915,1.7915,1.7908,1.7922,1.7914,1.7908,1.7913,1.8103,1.8405,1.8627,1.8497,1.8674,1.8784,1.8806,1.8806,1.8806,1.8806,1.8806,1.8806,1.8806,1.8806,1.8806,1.8806,1.8806,1.8806,1.8806,1.8806,1.8806,1.8806,1.8806,1.8806,1.8806,1.8806,1.8778,1.8658,1.8487,1.8267,1.8118,1.8023,1.7949,1.7915,1.7915,1.7915,1.7915,1.7915,1.7915,1.7915,1.7915,1.7915,1.7915,1.7915,1.7915,1.7915,1.7915,1.7915,1.7915,1.7915,1.7915,3.5191,3.5191,3.5191,3.5191,3.5191,3.5191,3.5191,3.5191,3.5191,3.5191,3.5191,3.5191,3.5191,3.5191,3.5191,3.4557,3.3155,3.1737,2.9808,2.6947,2.5244,2.3061,2.1009,2.0207,1.9823,1.8067,1.7915,1.7915,1.7915,1.7915,1.7915,1.7915,1.7915,1.7915,1.7915,1.7915,1.7915,1.7915,1.7915,1.7915,1.7915,1.7915,1.7915,1.7915,1.7915,1.7915,1.7915,1.7915,1.7915,1.7915,1.7915,1.7915,1.7915,1.7915,1.7915,1.7915,1.7915,1.7915,1.7915,1.7914,1.7913,1.7918,1.7938,1.8044,1.8348,1.8604,1.8776,1.8696,1.875,1.8799,1.8806,1.8806,1.8806,1.8806,1.8806,1.8806,1.8806,1.8806,1.8806,1.8806,1.8806,1.8806,1.8806,1.8806,1.8806,1.8806,1.8806,1.8806,1.8806,1.8806,1.8771,1.8723,1.8553,1.8341,1.8233,1.8132,1.7989,1.7942,1.7915,1.7915,1.7915,1.7915,1.7915,1.7915,1.7915,1.7915,1.7915,1.7915,1.7915,1.7915,1.7915,1.7915,1.7915,1.7915,1.7915,3.5191,3.5191,3.5191,3.5191,3.5191,3.5191,3.5191,3.5191,3.5191,3.5191,3.5191,3.5191,3.5191,3.5191,3.5191,3.5046,3.4953,3.2917,3.1605,3.0287,2.8468,2.5515,2.2898,2.18,2.0515,1.7984,1.7915,1.7915,1.7915,1.7915,1.7915,1.7915,1.7915,1.7915,1.7915,1.7915,1.7915,1.7915,1.7915,1.7915,1.7915,1.7915,1.7915,1.7915,1.7915,1.7915,1.7915,1.7915,1.7915,1.7915,1.7915,1.7915,1.7915,1.7915,1.7915,1.7915,1.7915,1.7915,1.7921,1.792,1.7944,1.8005,1.8119,1.8361,1.8647,1.8804,1.8806,1.8785,1.8792,1.8806,1.8806,1.8806,1.8806,1.8806,1.8806,1.8806,1.8806,1.8806,1.8806,1.8806,1.8806,1.8806,1.8806,1.8806,1.8806,1.8806,1.8806,1.8806,1.8806,1.8806,1.8778,1.875,1.8599,1.8415,1.828,1.8179,1.805,1.7969,1.7922,1.7915,1.7915,1.7915,1.7915,1.7915,1.7915,1.7915,1.7915,1.7915,1.7915,1.7915,1.7915,1.7915,1.7915,1.7915,1.7915,3.5191,3.5191,3.5191,3.5191,3.5191,3.5191,3.5191,3.5191,3.5191,3.5191,3.5191,3.5191,3.5191,3.5191,3.5191,3.5191,3.5164,3.498,3.3354,3.1737,3.026,2.7594,2.4973,2.3007,2.1499,1.8991,1.8708,1.846,1.7957,1.8053,1.7984,1.7915,1.7915,1.7915,1.7915,1.7915,1.7915,1.7915,1.7915,1.7915,1.7915,1.7915,1.7915,1.7915,1.7915,1.7915,1.7915,1.7915,1.7915,1.7915,1.7915,1.7915,1.7915,1.7915,1.7915,1.7915,1.7915,1.7915,1.7908,1.7932,1.8041,1.8263,1.8498,1.8646,1.878,1.8803,1.8792,1.8806,1.8806,1.8806,1.8806,1.8806,1.8806,1.8806,1.8806,1.8806,1.8806,1.8806,1.8806,1.8806,1.8806,1.8806,1.8806,1.8806,1.8806,1.8806,1.8806,1.8806,1.8806,1.8806,1.8806,1.8757,1.8612,1.8455,1.8321,1.8206,1.8098,1.7983,1.7929,1.7915,1.7915,1.7915,1.7915,1.7915,1.7915,1.7915,1.7915,1.7915,1.7915,1.7915,1.7915,1.7915,1.7915,1.7915,1.7915,3.5191,3.5191,3.5191,3.5191,3.5191,3.5191,3.5191,3.5191,3.5191,3.5191,3.5191,3.5191,3.5191,3.5191,3.5191,3.5191,3.5191,3.5191,3.4319,3.3963,3.2931,3.1006,2.8532,2.6812,2.6154,2.3162,2.1554,2.0543,2.0556,1.9349,1.8095,1.7915,1.8281,1.7915,1.7915,1.7915,1.7915,1.7915,1.7915,1.7915,1.7915,1.7915,1.7915,1.7915,1.7915,1.7915,1.7915,1.7915,1.7915,1.7915,1.7915,1.7915,1.7915,1.7915,1.7915,1.7915,1.7915,1.7915,1.7914,1.7944,1.811,1.8512,1.872,1.8797,1.8805,1.8807,1.8799,1.8806,1.8806,1.8806,1.8806,1.8806,1.8806,1.8806,1.8806,1.8806,1.8806,1.8806,1.8806,1.8806,1.8806,1.8806,1.8806,1.8806,1.8806,1.8806,1.8806,1.8806,1.8806,1.8806,1.8806,1.8806,1.8688,1.8504,1.8348,1.8226,1.8131,1.8023,1.7915,1.7915,1.7915,1.7915,1.7915,1.7915,1.7915,1.7915,1.7915,1.7915,1.7915,1.7915,1.7915,1.7915,1.7915,1.7915,1.7915,3.5191,3.5191,3.5191,3.5191,3.5191,3.5191,3.5191,3.5191,3.5191,3.5191,3.5191,3.5191,3.5191,3.5191,3.5191,3.5191,3.5191,3.5191,3.5191,3.4993,3.465,3.342,3.1804,3.022,2.8548,2.6623,2.4905,2.347,2.3388,2.139,2.1157,2.0823,1.9548,1.9087,1.7915,1.7915,1.7915,1.7915,1.7915,1.7915,1.7915,1.7915,1.7915,1.7915,1.7915,1.7915,1.7915,1.7915,1.7915,1.7915,1.7915,1.7915,1.7915,1.7915,1.7915,1.7915,1.7915,1.7915,1.7914,1.8033,1.8258,1.8668,1.8765,1.8792,1.8806,1.8806,1.8806,1.8806,1.8806,1.8806,1.8806,1.8806,1.8806,1.8806,1.8806,1.8806,1.8806,1.8806,1.8806,1.8806,1.8806,1.8806,1.8806,1.8806,1.8806,1.8806,1.8806,1.8806,1.8806,1.8806,1.8806,1.8806,1.8771,1.8565,1.8361,1.8273,1.8186,1.7989,1.7915,1.7915,1.7915,1.7915,1.7915,1.7915,1.7915,1.7915,1.7915,1.7915,1.7915,1.7915,1.7915,1.7915,1.7915,1.7915,1.7915,3.5191,3.5191,3.5191,3.5191,3.5191,3.5191,3.5191,3.5191,3.5191,3.5191,3.5191,3.5191,3.5191,3.5191,3.5191,3.5191,3.5191,3.5191,3.5191,3.5191,3.5111,3.3433,3.2228,3.1086,3.0659,2.7446,2.6448,2.6434,2.6421,2.5163,2.5298,2.4498,2.2484,2.0268,1.8164,1.7915,1.7915,1.7915,1.7915,1.7915,1.7915,1.7915,1.7915,1.7915,1.7915,1.7915,1.7915,1.7915,1.7915,1.7915,1.7915,1.7915,1.7915,1.7915,1.7915,1.7915,1.7915,1.7908,1.7928,1.8137,1.8436,1.8722,1.8806,1.8806,1.8806,1.8806,1.8806,1.8806,1.8806,1.8806,1.8806,1.8806,1.8806,1.8806,1.8806,1.8806,1.8806,1.8806,1.8806,1.8806,1.8806,1.8806,1.8806,1.8806,1.8806,1.8806,1.8806,1.8806,1.8806,1.8806,1.8806,1.8806,1.8799,1.8626,1.8443,1.8348,1.8226,1.8023,1.7915,1.7915,1.7915,1.7915,1.7915,1.7915,1.7915,1.7915,1.7915,1.7915,1.7915,1.7915,1.7915,1.7915,1.7915,1.7915,1.7915,3.5191,3.5191,3.5191,3.5191,3.5191,3.5191,3.5191,3.5191,3.5191,3.5191,3.5191,3.5191,3.5191,3.5191,3.5191,3.5191,3.5191,3.5191,3.5191,3.5191,3.5191,3.4768,3.3791,3.3288,3.297,3.1962,3.0792,2.9417,2.9404,2.8212,2.6826,2.5759,2.4318,2.0762,1.8667,1.7915,1.7915,1.7915,1.7915,1.7915,1.7915,1.7915,1.7915,1.7915,1.7915,1.7915,1.7915,1.7915,1.7915,1.7915,1.7915,1.7915,1.7915,1.7915,1.7915,1.7915,1.7908,1.7913,1.7979,1.8166,1.8457,1.8682,1.8806,1.8806,1.8806,1.8806,1.8806,1.8806,1.8806,1.8806,1.8806,1.8806,1.8806,1.8806,1.8806,1.8806,1.8806,1.8806,1.8806,1.8806,1.8806,1.8806,1.8806,1.8806,1.8806,1.8806,1.8806,1.8806,1.8806,1.8806,1.8806,1.8806,1.8771,1.864,1.8517,1.8388,1.821,1.7987,1.7907,1.7915,1.7915,1.7915,1.7915,1.7915,1.7915,1.7915,1.7915,1.7915,1.7915,1.7915,1.7915,1.7915,1.7915,1.7915,1.7915,3.5191,3.5191,3.5191,3.5191,3.5191,3.5191,3.5191,3.5191,3.5191,3.5191,3.5191,3.5191,3.5191,3.5191,3.5191,3.5191,3.5191,3.5191,3.5191,3.5191,3.5191,3.5032,3.5059,3.5191,3.4663,3.4584,3.3685,3.2387,3.2361,3.0525,2.9297,2.8078,2.6097,2.4268,2.1691,1.9809,1.7915,1.7915,1.7915,1.7915,1.7915,1.7915,1.7915,1.7915,1.7915,1.7915,1.7915,1.7915,1.7915,1.7915,1.7915,1.7915,1.7915,1.7915,1.7915,1.7915,1.7908,1.7918,1.7973,1.8159,1.8456,1.875,1.8799,1.8806,1.8806,1.8806,1.8806,1.8806,1.8806,1.8806,1.8806,1.8806,1.8806,1.8806,1.8806,1.8806,1.8806,1.8806,1.8806,1.8806,1.8806,1.8806,1.8806,1.8806,1.8806,1.8806,1.8806,1.8806,1.8806,1.8806,1.8806,1.8806,1.8785,1.8675,1.8531,1.8381,1.8182,1.7957,1.7919,1.7915,1.7915,1.7915,1.7915,1.7915,1.7915,1.7915,1.7915,1.7915,1.7915,1.7915,1.7915,1.7915,1.7915,1.7915,1.7915,3.5191,3.5191,3.5191,3.5191,3.5191,3.5191,3.5191,3.5191,3.5191,3.5191,3.5191,3.5191,3.5191,3.5191,3.5191,3.5191,3.5191,3.5191,3.5191,3.5191,3.5191,3.5191,3.5191,3.5191,3.5191,3.5191,3.4742,3.4227,3.4953,3.3857,3.2559,3.1351,2.9913,2.7984,2.5136,2.2154,1.968,1.9143,1.8136,1.8039,1.7915,1.7915,1.7915,1.7915,1.7915,1.7915,1.7915,1.7915,1.7915,1.7915,1.7915,1.7915,1.7915,1.7915,1.7915,1.7915,1.7915,1.7911,1.795,1.8152,1.8449,1.8737,1.8799,1.8806,1.8806,1.8806,1.8806,1.8806,1.8806,1.8806,1.8806,1.8806,1.8806,1.8806,1.8806,1.8806,1.8806,1.8806,1.8806,1.8806,1.8806,1.8806,1.8806,1.8806,1.8806,1.8806,1.8806,1.8806,1.8806,1.8806,1.8806,1.8806,1.8764,1.8723,1.8587,1.8429,1.8272,1.8066,1.794,1.7915,1.7915,1.7915,1.7915,1.7915,1.7915,1.7915,1.7915,1.7915,1.7915,1.7915,1.7915,1.7915,1.7915,1.7915,1.7915,3.5191,3.5191,3.5191,3.5191,3.5191,3.5191,3.5191,3.5191,3.5191,3.5191,3.5191,3.5191,3.5191,3.5191,3.5191,3.5191,3.5191,3.5191,3.5191,3.5191,3.5191,3.5191,3.5191,3.5191,3.5191,3.5191,3.5191,3.5191,3.5125,3.5191,3.5085,3.3936,3.2108,3.0541,2.8713,2.5886,2.3405,2.0758,1.9128,1.8108,1.7915,1.7915,1.7915,1.7915,1.7915,1.7915,1.7915,1.7915,1.7915,1.7915,1.7915,1.7915,1.7915,1.7915,1.7915,1.7915,1.7922,1.7919,1.7944,1.8144,1.845,1.8716,1.8799,1.8806,1.8806,1.8806,1.8806,1.8806,1.8806,1.8806,1.8806,1.8806,1.8806,1.8806,1.8806,1.8806,1.8806,1.8806,1.8806,1.8806,1.8806,1.8806,1.8806,1.8806,1.8806,1.8806,1.8806,1.8806,1.8806,1.8806,1.8806,1.8806,1.8792,1.8744,1.8634,1.8498,1.8361,1.8212,1.8043,1.7929,1.7915,1.7915,1.7915,1.7915,1.7915,1.7915,1.7915,1.7915,1.7915,1.7915,1.7915,1.7915,1.7915,1.7915,1.7915,3.5191,3.5191,3.5191,3.5191,3.5191,3.5191,3.5191,3.5191,3.5191,3.5191,3.5191,3.5191,3.5191,3.5191,3.5191,3.5191,3.5191,3.5191,3.5191,3.5191,3.5191,3.5191,3.5191,3.5191,3.5191,3.5191,3.5191,3.5191,3.5191,3.5191,3.5111,3.4914,3.309,3.2798,3.1996,3.0579,2.7721,2.3883,2.0576,1.8557,1.7915,1.7915,1.7915,1.7915,1.7915,1.7915,1.7915,1.7915,1.7915,1.7915,1.7915,1.7915,1.7915,1.7915,1.7915,1.7929,1.7976,1.7944,1.7942,1.8141,1.8445,1.8695,1.8806,1.8806,1.8806,1.8806,1.8806,1.8806,1.8806,1.8806,1.8806,1.8806,1.8806,1.8806,1.8806,1.8806,1.8806,1.8806,1.8806,1.8806,1.8806,1.8806,1.8806,1.8806,1.8806,1.8806,1.8806,1.8806,1.8806,1.8806,1.8806,1.8806,1.8806,1.8785,1.8676,1.8553,1.8375,1.8219,1.8043,1.7942,1.7936,1.7915,1.7915,1.7915,1.7915,1.7915,1.7915,1.7915,1.7915,1.7915,1.7915,1.7915,1.7915,1.7915,1.7915,3.5191,3.5191,3.5191,3.5217,3.5244,3.5204,3.5217,3.523,3.5217,3.5191,3.5191,3.5191,3.5191,3.5191,3.5191,3.5191,3.5191,3.5191,3.5191,3.5191,3.5191,3.5191,3.5191,3.5191,3.5191,3.5191,3.5191,3.5191,3.5191,3.5191,3.5191,3.5191,3.494,3.4584,3.4279,3.4115,3.0909,2.5703,2.1768,1.8991,1.8122,1.7915,1.7915,1.7915,1.7915,1.7915,1.7915,1.7915,1.7915,1.7915,1.7915,1.7915,1.7915,1.7915,1.7915,1.7949,1.8017,1.804,1.8033,1.8188,1.845,1.8665,1.8806,1.8806,1.8806,1.8806,1.8806,1.8806,1.8806,1.8806,1.8806,1.8806,1.8806,1.8806,1.8806,1.8806,1.8806,1.8806,1.8806,1.8806,1.8806,1.8806,1.8806,1.8806,1.8806,1.8806,1.8806,1.8806,1.8806,1.8806,1.8806,1.8806,1.8806,1.8792,1.871,1.8573,1.8389,1.8213,1.8051,1.7956,1.7929,1.7915,1.7915,1.7915,1.7915,1.7915,1.7915,1.7915,1.7915,1.7915,1.7915,1.7915,1.7915,1.7915,1.7915,3.5191,3.5191,3.5191,3.5311,3.5485,3.5284,3.5311,3.5485,3.5284,3.5204,3.5191,3.5191,3.5191,3.5191,3.5191,3.5191,3.5191,3.5191,3.5191,3.5191,3.5191,3.5191,3.5191,3.5191,3.5191,3.5191,3.5191,3.5191,3.5191,3.5191,3.5191,3.5191,3.5191,3.5191,3.5178,3.5139,3.2264,2.6674,2.3951,2.025,1.8108,1.7915,1.7915,1.7915,1.7915,1.7915,1.7915,1.7915,1.7915,1.7915,1.7915,1.7915,1.7915,1.7915,1.7915,1.7929,1.8044,1.8116,1.8187,1.8271,1.8504,1.8679,1.8806,1.8806,1.8806,1.8806,1.8806,1.8806,1.8806,1.8806,1.8806,1.8806,1.8806,1.8806,1.8806,1.8806,1.8806,1.8806,1.8806,1.8806,1.8806,1.8806,1.8806,1.8806,1.8806,1.8806,1.8806,1.8806,1.8806,1.8806,1.8806,1.8806,1.8806,1.8778,1.8716,1.8573,1.8375,1.8219,1.8071,1.7983,1.7922,1.7915,1.7915,1.7915,1.7915,1.7915,1.7915,1.7915,1.7915,1.7915,1.7915,1.7915,1.7915,1.7915,1.7915,3.5191,3.5191,3.5191,3.5351,3.5538,3.5431,3.5471,3.5551,3.5445,3.5311,3.5204,3.5191,3.5191,3.5191,3.5191,3.5191,3.5191,3.5191,3.5191,3.5191,3.5191,3.5191,3.5191,3.5191,3.5191,3.5191,3.5191,3.5191,3.5191,3.5191,3.5191,3.5191,3.5191,3.5191,3.5191,3.4755,3.2362,2.6769,2.5445,2.2487,1.8729,1.7957,1.7915,1.7915,1.7915,1.7915,1.7915,1.7915,1.7915,1.7915,1.7915,1.7915,1.7915,1.7915,1.7915,1.7956,1.8071,1.8219,1.8306,1.844,1.8581,1.8743,1.8806,1.8806,1.8806,1.8806,1.8806,1.8806,1.8806,1.8806,1.8806,1.8806,1.8806,1.8806,1.8806,1.8806,1.8806,1.8806,1.8806,1.8806,1.8806,1.8806,1.8806,1.8806,1.8806,1.8806,1.8806,1.8806,1.8806,1.8806,1.8806,1.8806,1.8806,1.8799,1.8772,1.8594,1.8348,1.8206,1.8071,1.799,1.7915,1.7915,1.7915,1.7915,1.7915,1.7915,1.7915,1.7915,1.7915,1.7915,1.7915,1.7915,1.7915,1.7915,1.7915,3.5191,3.5191,3.5191,3.5391,3.5645,3.5618,3.5658,3.5725,3.5698,3.5525,3.5284,3.5284,3.5257,3.5204,3.5191,3.5191,3.5191,3.5191,3.5191,3.5191,3.5191,3.5191,3.5191,3.5191,3.5191,3.5191,3.5191,3.5191,3.5191,3.5191,3.5191,3.5191,3.5191,3.5191,3.5191,3.465,3.2519,2.8962,2.6512,2.3815,2.0823,1.8026,1.7943,1.7915,1.7915,1.7915,1.7915,1.7915,1.7915,1.7915,1.7915,1.7915,1.7915,1.7915,1.7915,1.7956,1.8138,1.826,1.8361,1.8565,1.8702,1.8806,1.8806,1.8806,1.8806,1.8806,1.8806,1.8806,1.8806,1.8806,1.8806,1.8806,1.8806,1.8806,1.8806,1.8806,1.8806,1.8806,1.8806,1.8806,1.8806,1.8806,1.8806,1.8806,1.8806,1.8806,1.8806,1.8806,1.8806,1.8806,1.8806,1.8806,1.8806,1.8799,1.8799,1.8581,1.8321,1.8219,1.8105,1.7997,1.7915,1.7915,1.7915,1.7915,1.7915,1.7915,1.7915,1.7915,1.7915,1.7915,1.7915,1.7915,1.7915,1.7915,1.7915,3.5191,3.5191,3.5191,3.5511,3.5912,3.5725,3.5872,3.6246,3.6086,3.5819,3.5565,3.5511,3.5431,3.5191,3.5191,3.5191,3.5191,3.5191,3.5191,3.5191,3.5191,3.5191,3.5191,3.5191,3.5191,3.5191,3.5191,3.5191,3.5191,3.5191,3.5191,3.5191,3.5191,3.5191,3.5191,3.457,3.3473,3.0419,2.8803,2.6721,2.2074,1.9561,1.8081,1.7915,1.7915,1.7915,1.7915,1.7915,1.7915,1.7915,1.7915,1.7915,1.7915,1.7922,1.7915,1.7989,1.8172,1.8266,1.8401,1.862,1.8749,1.8806,1.8806,1.8806,1.8806,1.8806,1.8806,1.8806,1.8806,1.8806,1.8806,1.8806,1.8806,1.8806,1.8806,1.8806,1.8806,1.8806,1.8806,1.8806,1.8806,1.8806,1.8806,1.8806,1.8806,1.8806,1.8806,1.8806,1.8806,1.8806,1.8806,1.8806,1.8806,1.8806,1.8792,1.8525,1.8301,1.8219,1.8125,1.799,1.7915,1.7915,1.7915,1.7915,1.7915,1.7915,1.7915,1.7915,1.7915,1.7915,1.7915,1.7915,1.7915,1.7929,1.7949]}]]